[[{"header":{"parameterUnit":"m.s-1","parameterCategory":1,"la1":31.0,"la2":29.5877,"lo1":-88.7671,"lo2":-86.6584,"dy":0.0162,"dx":0.0185,"nx":115,"ny":88,"refTime":"2024-09-19T12:00:00:Z","depth":0,"parameterNumber":2,"parameterNumberName":"U-component_of_WINDS"},"data":[0.0,0.0,0.0,0.0,0.0,0.0,0.0,0.0,0.0,0.0,0.0,0.0,0.0,0.0,0.0,0.0,0.0,0.0,0.0,0.0,0.0,0.0,0.0,0.0,0.0,0.0,0.0,0.0,0.0,0.0,0.0,0.0,0.0,0.0,0.0,0.0,0.0,0.0,0.0,0.0,0.0,0.0,0.0,0.0,0.0,0.0,0.0,0.0,0.0,0.0,0.0,0.0,0.0,0.0,0.0,0.0,0.0,0.0,0.0,0.0,0.0,0.0,0.0,0.0,0.0,0.0,0.0,0.0,0.0,0.0,0.0,0.0,0.0,0.0,0.0,0.0,0.0,0.0,0.0,0.0,0.0,0.0,0.0,0.0,0.0,0.0,0.0,0.0,0.0,0.0,0.0,0.0,0.0,0.0,0.0,0.0,0.0,0.0,0.0,0.0,0.0,0.0,0.0,0.0,0.0,0.0,0.0,0.0,0.0,0.0,0.0,0.0,0.0,0.0,0.0,0.0,0.0,0.0,0.0,0.0,0.0,0.0,0.0,0.0,0.0,0.0,0.0,0.0,0.0,0.0,0.0,0.0,0.0,0.0,0.0,0.0,0.0,0.0,0.0,0.0,0.0,0.0,0.0,0.0,0.0,0.0,0.0,0.0,0.0,0.0,0.0,0.0,0.0,0.0,0.0,0.0,0.0,0.0,0.0,0.0,0.0,0.0,0.0,0.0,0.0,0.0,0.0,0.0,0.0,0.0,0.0,0.0,0.0,0.0,0.0,0.0,0.0,0.0,0.0,0.0,0.0,0.0,0.0,0.0,0.0,0.0,0.0,0.0,0.0,0.0,0.0,0.0,0.0,0.0,0.0,0.0,0.0,0.0,0.0,0.0,0.0,0.0,0.0,0.0,0.0,0.0,0.0,0.0,0.0,0.0,0.0,0.0,0.0,0.0,0.0,0.0,0.0,0.0,0.0,0.0,0.0,0.0,0.0,0.0,0.0,0.0,0.0,0.0,0.0,0.0,0.0,0.0,0.0,0.0,0.0,0.0,0.0,0.0,0.0,0.0,0.0,0.0,0.0,0.0,0.0,0.0,0.0,0.0,0.0,0.0,0.0,0.0,0.0,0.0,0.0,0.0,0.0,0.0,0.0,0.0,0.0,0.0,0.0,0.0,0.0,0.0,0.0,0.0,0.0,0.0,0.0,0.0,0.0,0.0,0.0,0.0,0.0,0.0,0.0,0.0,0.0,0.0,0.0,0.0,0.0,0.0,0.0,0.0,0.0,0.0,0.0,0.0,0.0,0.0,0.0,0.0,0.0,0.0,0.0,0.0,0.0,0.0,0.0,0.0,0.0,0.0,0.0,0.0,0.0,0.0,0.0,0.0,0.0,0.0,0.0,0.0,0.0,0.0,0.0,0.0,0.0,0.0,0.0,0.0,0.0,0.0,0.0,0.0,0.0,0.0,0.0,0.0,0.0,0.0,0.0,0.0,0.0,0.0,0.0,0.0,0.0,0.0,0.0,0.0,0.0,0.0,0.0,0.0,0.0,0.0,0.0,0.0,0.0,0.0,0.0,0.0,0.0,0.0,0.0,0.0,0.0,0.0,0.0,0.0,0.0,0.0,0.0,0.0,0.0,0.0,0.0,0.0,0.0,0.0,0.0,0.0,0.0,0.0,0.0,0.0,0.0,0.0,0.0,0.0,0.0,0.0,0.0,0.0,0.0,0.0,0.0,0.0,0.0,0.0,0.0,0.0,0.0,0.0,0.0,0.0,0.0,0.0,0.0,0.0,0.0,0.0,0.0,0.0,0.0,0.0,0.0,0.0,0.0,0.0,0.0,0.0,0.0,0.0,0.0,0.0,0.0,0.0,0.0,0.0,0.0,0.0,0.0,0.0,0.0,0.0,0.0,0.0,0.0,0.0,0.0,0.0,0.0,0.0,0.0,0.0,0.0,0.0,0.0,0.0,0.0,0.0,0.0,0.0,0.0,0.0,0.0,0.0,0.0,0.0,0.0,0.0,0.0,0.0,0.0,0.0,0.0,0.0,0.0,0.0,0.0,0.0,0.0,0.0,0.0,0.0,0.0,0.0,0.0,0.0,0.0,0.0,0.0,0.0,0.0,0.0,0.0,0.0,0.0,0.0,0.0,0.0,0.0,0.0,0.0,0.0,0.0,0.0,0.0,0.0,0.0,0.0,0.0,0.0,0.0,0.0,0.0,0.0,0.0,0.0,0.0,0.0,0.0,0.0,0.0,0.0,0.0,0.0,0.0,0.0,0.0,0.0,0.0,0.0,0.0,0.0,0.0,0.0,0.0,0.0,0.0,0.0,0.0,0.0,0.0,0.0,0.0,0.0,0.0,0.0,0.0,0.0,0.0,0.0,0.0,0.0,0.0,0.0,0.0,0.0,0.0,0.0,0.0,0.0,0.0,0.0,0.0,0.0,0.0,0.0,0.0,0.0,0.0,0.0,0.0,0.0,0.0,0.0,0.0,0.0,0.0,0.0,0.0,0.0,0.0,0.0,0.0,0.0,0.0,0.0,0.0,0.0,0.0,0.0,0.0,0.0,0.0,0.0,0.0,0.0,0.0,0.0,0.0,0.0,0.0,0.0,0.0,0.0,0.0,0.0,0.0,0.0,0.0,0.0,0.0,0.0,0.0,0.0,0.0,0.0,0.0,0.0,0.0,0.0,0.0,0.0,0.0,0.0,0.0,0.0,0.0,0.0,0.0,0.0,0.0,0.0,0.0,0.0,0.0,0.0,0.0,0.0,0.0,0.0,0.0,0.0,0.0,0.0,0.0,0.0,0.0,0.0,0.0,0.0,0.0,0.0,0.0,0.0,0.0,0.0,0.0,0.0,0.0,0.0,0.0,0.0,0.0,0.0,0.0,0.0,0.0,0.0,0.0,0.0,0.0,0.0,0.0,0.0,0.0,0.0,0.0,0.0,0.0,0.0,0.0,0.0,0.0,0.0,0.0,0.0,0.0,0.0,0.0,0.0,0.0,0.0,0.0,0.0,0.0,0.0,0.0,0.0,0.0,0.0,0.0,0.0,0.0,0.0,0.0,0.0,0.0,0.0,0.0,0.0,0.0,0.0,0.0,0.0,0.0,0.0,0.0,0.0,0.0,0.0,0.0,0.0,0.0,0.0,0.0,0.0,0.0,0.0,0.0,0.0,0.0,0.0,0.0,0.0,0.0,0.0,0.0,0.0,0.0,0.0,0.0,0.0,0.0,0.0,0.0,0.0,0.0,0.0,0.0,0.0,0.0,0.0,0.0,0.0,0.0,0.0,0.0,0.0,0.0,0.0,0.0,0.0,0.0,0.0,0.0,0.0,0.0,0.0,0.0,0.0,0.0,0.0,0.0,0.0,0.0,0.0,0.0,0.0,0.0,0.0,0.0,0.0,0.0,0.0,0.0,0.0,0.0,0.0,0.0,0.0,0.0,0.0,0.0,0.0,0.0,0.0,0.0,0.0,0.0,0.0,0.0,0.0,0.0,0.0,0.0,0.0,0.0,0.0,0.0,0.0,0.0,0.0,0.0,0.0,0.0,0.0,0.0,0.0,0.0,0.0,0.0,0.0,0.0,0.0,0.0,0.0,0.0,0.0,0.0,0.0,0.0,0.0,0.0,0.0,0.0,0.0,0.0,0.0,0.0,0.0,0.0,0.0,0.0,0.0,0.0,0.0,0.0,0.0,0.0,0.0,0.0,0.0,0.0,0.0,0.0,0.0,0.0,0.0,0.0,0.0,0.0,0.0,0.0,0.0,0.0,0.0,0.0,0.0,0.0,0.0,0.0,0.0,0.0,0.0,0.0,0.0,0.0,0.0,0.0,0.0,0.0,0.0,0.0,0.0,0.0,0.0,0.0,0.0,0.0,0.0,0.0,0.0,0.0,0.0,0.0,0.0,0.0,0.0,0.0,0.0,0.0,0.0,0.0,0.0,0.0,0.0,0.0,0.0,0.0,0.0,0.0,0.0,0.0,0.0,0.0,0.0,0.0,0.0,0.0,0.0,0.0,0.0,0.0,0.0,0.0,0.0,0.0,0.0,0.0,0.0,0.0,0.0,0.0,0.0,0.0,0.0,0.0,0.0,0.0,0.0,0.0,0.0,0.0,0.0,0.0,0.0,0.0,0.0,0.0,0.0,0.0,0.0,0.0,0.0,0.0,0.0,0.0,0.0,0.0,0.0,0.0,0.0,0.0,0.0,0.0,0.0,0.0,0.0,0.0,0.0,0.0,0.0,0.0,0.0,0.0,0.0,0.0,0.0,0.727,0.0,0.0,0.0,0.0,0.0,0.0,0.0,0.0,0.0,0.0,0.0,0.0,0.0,0.0,0.0,0.0,0.0,0.0,0.0,0.0,0.0,0.0,0.0,0.0,0.0,0.0,0.0,0.0,0.0,0.0,0.0,0.0,0.0,0.0,0.0,0.0,0.0,0.0,0.0,0.0,0.0,0.0,0.0,0.0,0.0,0.0,0.0,0.0,0.0,0.0,0.0,0.0,0.0,0.0,0.0,0.0,0.0,0.0,0.0,0.0,0.0,0.0,0.0,0.0,0.0,0.0,0.0,0.0,0.0,0.0,0.0,0.0,0.0,0.0,0.0,0.0,0.0,0.0,0.0,0.0,0.0,0.0,0.0,0.0,0.0,0.0,0.0,0.0,0.0,0.0,0.0,0.0,0.0,0.0,0.0,0.0,0.0,0.0,0.0,0.0,0.0,0.0,0.0,0.0,0.0,0.0,0.0,0.0,0.0,0.0,0.9136,0.9062,0.7926,0.7064,0.6631,0.0,0.0,0.0,0.0,0.0,0.0,0.0,0.0,0.0,0.0,0.0,0.0,0.0,0.0,0.0,0.0,0.0,0.0,0.0,0.0,0.0,0.0,0.0,0.0,0.0,0.0,0.0,0.0,0.0,0.0,0.0,0.0,0.0,0.0,0.0,0.0,0.0,0.0,0.0,0.0,0.0,0.0,0.0,0.0,0.0,0.0,0.0,0.0,0.0,0.0,0.0,0.0,0.0,0.0,0.0,0.0,0.0,0.0,0.0,0.0,0.0,0.0,0.0,0.0,0.0,0.0,0.0,0.0,0.0,0.0,0.0,0.0,0.0,0.0,0.0,0.0,0.0,0.0,0.0,0.0,0.0,0.0,0.0,0.0,0.0,0.0,0.0,0.0,0.0,0.0,0.0,0.0,0.0,0.0,0.0,0.0,0.0,0.0,0.0,0.0,0.0,0.0,0.0,0.0,0.0,0.0,0.0,0.0,0.0,0.0,0.0,0.0,0.7721,0.6985,0.6353,0.0,0.0,0.0,0.0,0.0,0.0,0.0,0.0,0.0,0.0,0.0,0.0,0.0,0.0,0.0,0.0,0.0,0.0,0.0,0.0,0.0,0.0,0.0,0.0,0.0,0.0,0.0,0.0,0.0,0.0,0.0,0.0,0.0,0.0,0.0,0.0,0.0,0.0,0.0,0.0,0.0,0.0,0.0,0.0,0.0,0.0,0.0,0.0,0.0,0.0,0.0,0.0,0.0,0.0,0.0,0.0,0.0,0.0,0.0,0.0,0.0,0.0,0.0,0.0,0.0,0.0,0.0,0.0,0.0,0.0,0.0,0.0,0.0,0.0,0.0,0.0,0.0,0.0,0.0,0.0,0.0,0.0,0.0,0.0,0.0,0.0,0.0,0.0,0.0,0.0,0.0,0.0,0.0,0.0,0.0,0.0,0.0,0.0,0.0,0.0,0.0,0.0,0.0,0.0,0.0,0.0,0.0,0.0,0.0,0.0,0.7763,0.8464,0.7718,0.0,0.7211,0.0,0.0,0.0,0.0,0.0,0.0,0.0,0.0,0.0,0.0,0.0,0.0,0.0,0.0,0.0,0.0,0.0,0.0,0.0,0.0,0.0,0.0,0.0,0.0,0.0,0.0,0.0,0.0,0.0,0.0,0.0,0.0,0.0,0.0,0.0,0.0,0.0,0.0,0.0,0.0,0.0,0.0,0.0,0.0,0.0,0.0,0.0,0.0,0.0,0.0,0.0,0.0,0.0,0.0,0.0,0.0,0.0,0.0,0.0,0.0,0.0,0.0,0.0,0.0,0.0,0.0,0.0,0.0,0.0,0.0,0.0,0.0,0.0,0.0,0.0,0.0,0.0,0.0,0.0,0.0,0.0,0.0,0.0,0.0,0.0,0.0,0.0,0.0,0.0,0.0,0.0,0.0,0.0,0.0,0.0,0.0,0.0,0.0,0.0,0.0,0.0,0.0,0.0,0.0,0.0,0.0,0.0,0.0,0.0,0.0,0.7338,0.7662,0.6893,0.6691,0.0,0.0,0.0,0.0,0.0,0.0,0.0,0.0,0.0,0.0,0.0,0.0,0.0,0.0,0.0,0.0,0.0,0.0,0.0,0.0,0.0,0.0,0.0,0.0,0.0,0.0,0.0,0.0,0.0,0.0,0.0,0.0,0.0,0.0,0.0,0.0,0.0,0.0,0.0,0.0,0.0,0.0,0.0,0.0,0.0,0.0,0.0,0.0,0.0,0.0,0.0,0.0,0.0,0.0,0.0,0.0,0.0,0.0,0.0,0.0,0.0,0.0,0.0,0.0,0.0,0.0,0.0,0.0,0.0,0.0,0.0,0.0,0.0,0.0,0.0,0.0,0.0,0.0,0.0,0.0,0.0,0.0,0.0,0.0,0.0,0.0,0.0,0.0,0.0,0.0,0.0,0.0,0.0,0.0,0.0,0.0,0.0,0.0,0.0,0.0,0.0,0.0,0.0,0.0,0.0,0.0,0.0,0.0,0.0,0.0,0.693,0.6858,0.7028,0.6507,0.6382,0.6751,0.0,0.0,0.0,0.0,0.0,0.0,0.0,0.0,0.0,0.0,0.0,0.0,0.0,0.0,0.0,0.0,0.0,0.0,0.0,0.0,0.0,0.0,0.0,0.0,0.0,0.0,0.0,0.0,0.0,0.0,0.0,0.0,0.0,0.0,0.0,0.0,0.0,0.0,0.0,0.0,0.0,0.0,0.0,0.0,0.0,0.0,0.0,0.0,0.0,0.0,0.0,0.0,0.0,0.0,0.0,0.0,0.0,0.0,0.0,0.0,0.0,0.0,0.0,0.0,0.0,0.0,0.0,0.0,0.0,0.0,0.0,0.0,0.0,0.0,0.0,0.0,0.0,0.0,0.0,0.0,0.0,0.0,0.0,0.0,0.0,0.0,0.0,0.0,0.0,0.0,0.0,0.0,0.0,0.0,0.0,0.0,0.0,0.0,0.0,0.0,0.0,0.0,0.0,0.0,0.0,0.0,0.0,0.0,0.7031,0.6347,0.6295,0.7002,0.6963,0.6642,0.0,0.0,0.0,0.0,0.0,0.0,0.0,0.0,0.0,0.0,0.0,0.0,0.0,0.0,0.0,0.0,0.0,0.0,0.0,0.0,0.0,0.0,0.0,0.0,0.0,0.0,0.0,0.0,0.0,0.0,0.0,0.0,0.0,0.0,0.0,0.0,0.0,0.0,0.0,0.0,0.0,0.0,0.0,0.0,0.0,0.0,0.0,0.0,0.0,0.0,0.0,0.0,0.0,0.0,0.0,0.0,0.0,0.0,0.0,0.0,0.0,0.0,0.0,0.0,0.0,0.0,0.0,0.0,0.0,0.0,0.0,0.0,0.0,0.0,0.0,0.0,0.0,0.0,0.0,0.0,0.0,0.0,0.0,0.0,0.0,0.0,0.0,0.0,0.0,0.0,0.0,0.0,0.0,0.0,0.0,0.0,0.0,0.0,0.0,0.0,0.0,0.0,0.0,0.0,0.0,0.0,0.0,0.0,0.0,0.5561,0.5743,0.6376,0.7428,0.6677,0.6295,0.0,0.0,0.0,0.0,0.0,0.0,0.0,0.0,0.0,0.0,0.0,0.0,0.0,0.0,0.0,0.0,0.0,0.0,0.0,0.0,0.0,0.0,0.0,0.0,0.0,0.0,0.0,0.0,0.0,0.0,0.0,0.0,0.0,0.0,0.0,0.0,0.0,0.0,0.0,0.0,0.0,0.0,0.0,0.0,0.0,0.0,0.0,0.0,0.0,0.0,0.0,0.0,0.0,0.0,0.0,0.0,0.0,0.0,0.0,0.0,0.0,0.0,0.0,0.0,0.0,0.0,0.0,0.0,0.0,0.0,0.0,0.0,0.0,0.0,0.0,0.0,0.0,0.0,0.0,0.0,0.0,0.0,0.0,0.0,0.0,0.0,0.0,0.0,0.0,0.0,0.0,0.0,0.0,0.0,0.0,0.0,0.0,0.0,0.0,0.0,0.0,0.0,0.0,0.0,0.0,0.0,0.0,0.0,0.0,0.5388,0.0,0.6788,0.7367,0.6574,0.6077,0.0,0.0,0.0,0.0,0.0,0.0,0.0,0.0,0.0,0.0,0.0,0.0,0.0,0.0,0.0,0.0,0.0,0.0,0.0,0.0,0.0,0.0,0.0,0.0,0.0,0.0,0.0,0.0,0.0,0.0,0.0,0.0,0.0,0.0,0.0,0.0,0.0,0.0,0.0,0.0,0.0,0.0,0.0,0.0,0.0,0.0,0.0,0.0,0.0,0.0,0.0,0.0,0.0,0.0,0.0,0.0,0.0,0.0,0.0,0.0,0.0,0.0,0.0,0.0,0.0,0.0,0.0,0.0,0.0,0.0,0.0,0.0,0.0,0.0,0.0,0.0,0.0,0.0,0.0,0.0,0.0,0.0,0.0,0.0,0.0,0.0,0.0,0.0,0.0,0.0,0.0,0.0,0.0,0.0,0.0,0.0,0.0,0.0,0.0,0.0,0.0,0.0,0.0,0.0,0.0,0.0,0.0,0.0,0.542,0.6736,0.7382,0.7401,0.677,0.6732,0.6035,0.0,0.0,0.0,0.0,0.0,0.0,0.0,0.0,0.0,0.0,0.0,0.0,0.0,0.0,0.0,0.0,0.0,0.0,0.0,0.0,0.0,0.0,0.0,0.0,0.0,0.0,0.0,0.0,0.0,0.0,0.0,0.0,0.0,0.0,0.0,0.0,0.0,0.0,0.0,0.0,0.0,0.0,0.0,0.0,0.0,0.0,0.0,0.0,0.0,0.0,0.0,0.0,0.0,0.0,0.0,0.0,0.0,0.0,0.0,0.0,0.0,0.0,0.0,0.0,0.0,0.0,0.0,0.0,0.0,0.0,0.0,0.0,0.0,0.0,0.0,0.0,0.0,0.0,0.0,0.0,0.0,0.0,0.0,0.0,0.0,0.0,0.0,0.0,0.0,0.0,0.0,0.0,0.0,0.0,0.0,0.0,0.0,0.0,0.0,0.0,0.0,0.0,0.0,0.0,0.0,0.0,0.0,0.0,0.0,0.6797,0.6995,0.7476,0.8146,0.7268,0.6774,0.0,0.0,0.0,0.0,0.0,0.0,0.0,0.0,0.0,0.0,0.0,0.0,0.0,0.0,0.0,0.0,0.0,0.0,0.0,0.0,0.0,0.0,0.0,0.0,0.0,0.0,0.0,0.0,0.0,0.0,0.0,0.0,0.0,0.0,0.0,0.0,0.0,0.0,0.0,0.0,0.0,0.0,0.0,0.0,0.0,0.0,0.0,0.0,0.0,0.0,0.0,0.0,0.0,0.0,0.0,0.0,0.0,0.0,0.0,0.0,0.0,0.0,0.0,0.0,0.0,0.0,0.0,0.0,0.0,0.0,0.0,0.0,0.0,0.0,0.0,0.0,0.0,0.0,0.0,0.0,0.0,0.0,0.0,0.0,0.0,0.0,0.0,0.0,0.0,0.0,0.0,0.0,0.0,0.0,0.0,0.0,0.0,0.0,0.0,0.0,0.0,0.0,0.0,0.0,0.0,0.0,0.0,0.0,0.0,0.7795,0.7813,0.8115,0.8661,0.7866,0.7388,0.7256,0.0,0.0,0.0,0.0,0.0,0.0,0.0,0.0,0.0,0.0,0.0,0.0,0.0,0.0,0.0,0.0,0.0,0.0,0.0,0.0,0.0,0.0,0.0,0.0,0.0,0.0,0.0,0.0,0.0,0.0,0.0,0.0,0.0,0.0,0.0,0.0,0.0,0.0,0.0,0.0,0.0,0.0,0.0,0.0,0.0,0.0,0.0,0.0,0.0,0.0,0.0,0.0,0.0,0.0,0.0,0.0,0.0,0.0,0.0,0.0,0.0,0.0,0.0,0.0,0.0,0.0,0.0,0.0,0.0,0.0,0.0,0.0,0.0,0.0,0.0,0.0,0.0,0.0,0.0,0.0,0.0,0.0,0.0,0.0,0.0,0.0,0.0,0.0,0.0,0.0,0.0,0.0,0.0,0.0,0.0,0.0,0.0,0.0,0.0,0.0,0.0,0.0,0.0,0.0,0.0,0.0,0.0,0.0,0.9478,0.964,0.9343,0.8564,0.8544,0.7913,0.0,0.0,0.0,0.0,0.0,0.0,0.0,0.0,0.0,0.0,0.0,0.0,0.0,0.0,0.0,0.0,0.0,0.0,0.0,0.0,0.0,0.0,0.0,0.0,0.0,0.0,0.0,0.0,0.0,0.0,0.0,0.0,0.0,0.0,0.0,0.0,0.0,0.0,0.0,0.0,0.0,0.0,0.0,0.0,0.0,0.0,0.0,0.0,0.0,0.0,0.0,0.0,0.0,0.0,0.0,0.0,0.0,0.0,0.0,0.0,0.0,0.0,0.0,0.0,0.0,0.0,0.0,0.0,0.0,0.0,0.0,0.0,0.0,0.0,0.0,0.0,0.0,0.0,0.0,0.0,0.0,0.0,0.0,0.0,0.0,0.0,0.0,0.0,0.0,0.0,0.0,0.0,0.0,0.0,0.0,0.0,0.0,0.0,0.0,0.0,0.0,0.0,0.0,0.0,0.0,0.0,0.0,0.0,0.0,1.0632,1.1175,1.1187,1.0668,0.969,0.9039,0.0,0.0,0.0,0.0,0.0,0.0,0.0,0.0,0.0,0.0,0.0,0.0,0.0,0.0,0.0,0.0,0.0,0.0,0.0,0.0,0.0,0.0,0.0,0.0,0.0,0.0,0.0,0.0,0.0,0.0,0.0,0.0,0.0,0.0,0.0,0.0,0.0,0.0,0.0,0.0,0.0,0.0,0.0,0.0,0.0,0.0,0.0,0.0,0.0,0.0,0.0,0.0,0.0,0.0,0.0,0.0,0.0,0.0,0.0,0.0,0.0,0.0,0.0,0.0,0.0,0.0,0.0,0.0,0.0,0.0,0.0,0.0,0.0,0.0,0.0,0.0,0.0,0.0,0.0,0.0,0.0,0.0,0.0,0.0,0.0,0.0,0.0,0.0,0.0,0.0,0.0,0.0,0.0,0.0,0.0,0.0,0.0,0.0,0.0,0.0,0.0,0.0,0.0,0.0,0.0,0.0,0.0,0.0,1.0679,1.1399,1.2329,1.2704,1.2463,1.1489,1.0498,0.0,0.0,0.0,0.0,0.0,0.0,0.0,0.0,0.0,0.0,0.0,0.0,0.0,0.0,0.0,0.0,0.0,0.0,0.0,0.0,0.0,0.0,0.0,0.0,0.0,0.0,0.0,0.0,0.0,0.0,0.0,0.0,0.0,0.0,0.0,0.0,0.0,0.0,0.0,0.0,0.0,0.0,0.0,0.0,0.0,0.0,0.0,0.0,0.0,0.0,0.0,0.0,0.0,0.0,0.0,0.0,0.0,0.0,0.0,0.0,0.0,0.0,0.0,0.0,0.0,0.0,0.0,0.0,0.0,0.0,0.0,0.0,0.0,0.0,0.0,0.0,0.0,0.0,0.0,0.0,0.0,0.0,0.0,0.0,0.0,0.0,0.0,0.0,0.0,0.0,0.0,0.0,0.0,0.0,0.0,0.0,0.0,0.0,0.0,0.0,0.0,0.0,0.0,0.0,0.0,0.0,0.0,0.0,1.1477,1.1836,1.3136,1.3848,1.3885,1.3253,1.1861,0.0,0.0,0.0,0.0,0.0,0.0,0.0,0.0,0.0,0.0,0.0,0.0,0.0,0.0,0.0,0.0,0.0,0.0,0.0,0.0,0.0,0.0,0.0,0.0,0.0,0.0,0.0,0.0,0.0,0.0,0.0,0.0,0.0,0.0,0.0,0.0,0.0,0.0,0.0,0.0,0.0,0.0,0.0,0.0,0.0,0.0,0.0,0.0,0.0,0.0,0.0,0.0,0.0,0.0,0.0,0.0,0.0,0.0,0.0,0.0,0.0,0.0,0.0,0.0,0.0,0.0,0.0,0.0,0.0,0.0,0.0,0.0,0.0,0.0,0.0,0.0,0.0,0.0,0.0,0.0,0.0,0.0,0.0,0.0,0.0,0.0,0.0,0.0,0.0,0.0,0.0,0.0,0.0,0.0,0.0,0.0,0.0,0.0,0.0,0.0,0.0,0.0,0.0,0.0,0.0,0.0,0.0,0.0,1.1167,1.2184,1.3398,1.4217,1.4573,1.2706,1.1391,0.0,0.0,0.0,0.0,0.0,0.0,0.0,0.0,0.0,0.0,0.0,0.0,0.0,0.0,0.0,0.0,0.0,0.0,0.0,0.0,0.0,0.0,0.0,0.0,0.0,0.0,0.0,0.0,0.0,0.0,0.0,0.0,0.0,0.0,0.0,0.0,0.0,0.0,0.0,0.0,0.0,0.0,0.0,0.0,0.0,0.0,0.0,0.0,0.9887,0.0,0.0,0.0,0.0,0.0,0.0,0.0,0.0,0.0,0.0,0.0,0.0,0.0,0.0,0.0,0.0,0.0,0.0,0.0,0.0,0.0,0.0,0.0,0.0,0.0,0.0,0.0,0.0,0.0,0.0,0.0,0.0,0.0,0.0,0.0,0.0,0.0,0.0,0.0,0.0,0.0,0.0,0.0,0.0,0.0,0.0,0.0,0.0,0.0,0.0,0.0,0.0,0.0,0.0,0.0,0.0,0.0,0.0,0.0,1.1745,1.2484,1.3671,1.441,1.4558,1.2743,1.1516,0.0,0.0,0.0,0.0,0.0,0.0,0.0,0.0,0.0,0.0,0.0,0.0,0.0,0.0,0.0,0.0,0.0,0.0,0.0,0.0,0.0,0.0,0.0,0.0,0.0,0.0,0.0,0.0,0.0,0.0,0.0,0.0,0.0,0.0,0.0,0.0,0.0,0.0,0.0,0.0,0.0,0.0,0.0,0.0,0.0,0.0,0.0,0.0,0.0,0.0,0.0,0.0,0.0,0.0,0.0,0.0,0.0,0.0,0.0,0.0,0.0,0.0,0.0,0.0,0.0,0.0,0.0,0.0,0.0,0.0,0.0,0.0,0.0,0.0,0.0,0.0,0.0,0.0,0.0,0.0,0.0,0.0,0.0,0.0,0.0,0.0,0.0,0.0,0.0,0.0,0.0,0.0,0.0,0.0,0.0,0.0,0.0,0.0,0.0,0.0,0.0,0.0,0.0,0.0,0.0,0.0,0.0,1.1056,1.2293,1.265,1.3804,1.4438,1.4487,1.3062,1.1902,1.1122,0.0,0.0,0.0,0.0,0.0,0.0,0.0,0.0,0.0,0.0,0.0,0.0,0.0,0.0,0.0,0.0,0.0,0.0,0.0,0.0,0.0,0.0,0.0,0.0,0.0,0.0,0.0,0.0,0.0,0.0,0.0,0.0,0.0,0.0,0.0,0.0,0.0,0.0,1.009,1.0787,0.0,0.0,0.0,0.0,0.0,0.0,0.0,0.0,1.0008,0.0,0.0,0.0,0.0,0.0,0.0,0.0,0.0,0.0,0.0,0.0,0.0,0.0,0.0,0.0,0.0,0.0,0.0,0.0,0.0,0.0,0.0,0.0,0.0,0.0,0.0,0.0,0.0,0.0,0.0,0.0,0.0,0.0,0.0,0.0,0.0,0.0,0.0,0.0,0.0,0.0,0.0,0.0,0.0,0.0,0.0,0.0,0.0,0.0,0.0,0.0,0.0,0.0,0.0,0.0,0.0,0.9696,1.0507,1.1331,1.2284,1.3416,1.4149,1.4458,1.3269,1.2149,1.1161,0.0,0.0,0.0,0.0,0.0,0.0,0.0,0.0,0.0,0.0,0.0,0.0,0.0,0.0,0.0,0.0,0.0,0.0,0.0,0.0,0.0,0.0,0.0,0.0,0.0,0.0,0.0,0.0,0.0,0.0,0.0,0.0,0.0,0.0,0.0,0.0,0.0,0.0,0.0,1.3362,1.4028,0.0,0.0,0.0,0.0,0.0,0.0,0.0,0.0,1.0072,0.0,0.0,0.0,0.0,0.0,0.0,0.0,0.0,0.0,0.0,0.0,0.0,0.0,0.0,0.0,0.0,0.0,0.0,0.0,0.0,0.0,0.0,0.0,0.0,0.0,0.0,0.0,0.0,0.0,0.0,0.0,0.0,0.0,0.0,0.0,0.0,0.0,0.0,0.0,0.0,0.0,0.0,0.0,0.0,0.0,0.0,0.0,0.0,0.0,0.0,0.0,0.0,0.0,0.0,0.0,0.9484,1.0716,1.1503,1.1903,1.2968,1.3489,1.339,1.227,1.1268,0.0,0.0,0.0,0.0,0.0,0.0,0.0,0.0,0.0,0.0,0.0,0.0,0.0,0.0,0.0,0.0,0.0,0.0,0.0,0.0,0.0,0.0,0.0,0.0,0.0,0.0,0.0,0.0,0.0,0.0,0.0,0.0,0.0,0.0,0.0,0.0,0.0,0.0,0.0,0.0,1.3637,1.4451,1.4602,0.0,0.0,0.0,0.0,0.0,0.0,1.1257,1.0591,0.0,0.0,0.0,0.0,0.0,0.0,0.0,0.0,0.0,0.0,0.0,0.0,0.0,0.0,0.0,0.0,0.0,0.0,0.0,0.0,0.0,0.0,0.0,0.0,0.0,0.0,0.0,0.0,0.0,0.0,0.0,0.0,0.0,0.0,0.0,0.0,0.0,0.0,0.0,0.0,0.0,0.0,0.0,0.0,0.0,0.0,0.0,0.0,0.0,0.0,0.0,0.0,0.0,0.0,0.0,0.8957,1.0573,1.1443,1.1525,1.2423,1.2743,1.2388,1.1323,1.0414,0.0,0.0,0.0,0.0,0.0,0.0,0.0,0.0,0.0,0.0,0.0,0.0,0.0,0.0,0.0,0.0,0.0,0.0,0.0,0.0,0.0,0.0,0.0,0.0,0.0,0.0,0.0,0.0,0.0,0.0,0.0,0.0,0.0,0.0,0.0,0.0,0.0,0.0,0.0,0.0,0.0,1.506,1.5432,1.4685,0.0,0.0,0.0,0.0,1.2249,1.2189,0.0,0.0,0.0,0.0,0.0,0.0,0.0,0.0,0.0,0.0,0.0,0.0,0.0,0.0,0.0,0.0,0.0,0.0,0.0,0.0,0.0,0.0,0.0,0.0,0.0,0.0,0.0,0.0,0.0,0.0,0.0,0.0,0.0,0.0,0.0,0.0,0.0,0.0,0.0,0.0,0.0,0.0,0.0,0.0,0.0,0.0,0.0,0.0,0.0,0.0,0.0,0.0,0.0,0.0,0.0,0.0,0.8095,0.8982,0.9978,1.1039,1.1656,1.2111,1.2371,1.1479,1.0486,0.0,0.0,0.0,0.0,0.0,0.0,0.0,0.0,0.0,0.0,0.0,0.0,0.0,0.0,0.0,0.0,0.0,0.0,0.0,0.0,0.0,0.0,0.0,0.0,0.0,0.0,0.0,0.0,0.0,0.0,0.0,0.0,0.0,0.0,0.0,0.0,0.0,0.0,0.0,0.0,0.0,1.781,1.5483,1.5822,1.5894,0.0,0.0,1.4383,1.4702,1.467,0.0,0.0,0.0,0.0,0.0,0.0,0.0,0.0,0.0,0.0,0.0,0.0,0.0,0.0,0.0,0.0,0.0,0.0,0.0,0.0,0.0,0.0,0.0,0.0,0.0,0.0,0.0,0.0,0.0,0.0,0.0,0.0,0.0,0.0,0.0,0.0,0.0,0.0,0.0,0.0,0.0,0.0,0.0,0.0,0.0,0.0,0.0,0.0,0.0,0.0,0.0,0.0,0.0,0.0,0.0,0.6501,0.7649,0.8799,0.9538,0.9867,1.0639,1.0986,1.0832,1.0129,0.9377,0.0,0.0,0.0,0.0,0.0,0.0,0.0,0.0,0.0,0.0,0.0,0.0,0.0,0.0,0.0,0.0,0.0,0.0,0.0,0.0,0.0,0.0,0.0,0.0,0.0,0.0,0.0,0.0,0.0,0.0,0.0,0.0,0.0,0.0,0.0,0.0,0.0,0.0,0.0,0.0,0.0,0.0,1.6961,1.6946,0.0,0.0,0.0,1.5779,1.5723,0.0,0.0,0.0,0.0,0.0,0.0,0.0,0.0,0.0,0.0,0.0,0.0,0.0,0.0,0.0,0.0,0.0,0.0,0.0,0.0,0.0,0.0,0.0,0.0,0.0,0.0,0.0,0.0,0.0,0.0,0.0,0.0,0.0,0.0,0.0,0.0,0.0,0.0,0.0,0.0,0.0,0.0,0.0,0.0,0.0,0.0,0.0,0.0,0.0,0.0,0.0,0.0,0.0,0.0,0.0,0.0,0.0,0.7203,0.8273,0.8794,0.8751,0.945,0.967,0.9303,0.8757,0.0,0.0,0.0,0.0,0.0,0.0,0.0,0.0,0.0,0.0,0.0,0.0,0.0,0.0,0.0,0.0,0.0,0.0,0.0,0.0,0.0,0.0,0.0,0.0,0.0,0.0,0.0,0.5163,0.0,0.0,0.0,0.0,0.0,0.0,0.0,0.0,0.0,0.0,0.0,0.0,0.0,0.0,1.7166,1.7902,1.7931,1.7818,0.0,0.0,1.7122,1.6585,1.6653,1.5979,0.0,0.0,0.0,0.0,0.0,0.0,0.0,0.0,0.0,0.0,0.0,0.0,0.0,0.0,0.0,0.0,0.0,0.0,0.0,0.0,0.0,0.0,0.0,0.0,0.0,0.0,0.0,0.0,0.0,0.0,0.0,0.0,0.0,0.0,0.0,0.0,0.0,0.0,0.0,0.0,0.0,0.0,0.0,0.0,0.0,0.0,0.0,0.0,0.0,0.0,0.0,0.0,0.0,0.0,0.5412,0.6596,0.6692,0.7149,0.7945,0.803,0.8209,0.846,0.7837,0.7285,0.0,0.0,0.0,0.0,0.0,0.0,0.0,0.0,0.0,0.0,0.0,0.0,0.0,0.0,0.0,0.0,0.0,0.0,0.0,0.0,0.0,0.0,0.0,0.0,0.0,0.0,0.0,0.0,0.0,0.0,0.0,0.0,0.0,0.0,0.0,0.0,0.0,0.0,0.0,0.0,0.0,1.8207,1.7311,1.8644,1.9232,0.0,1.8447,1.8712,1.7733,1.8629,1.8345,1.5171,0.0,0.0,0.0,0.0,0.0,0.0,0.0,0.0,0.0,0.0,0.0,0.0,0.0,0.0,0.0,0.0,0.0,0.0,0.0,0.0,0.0,0.0,0.0,0.0,0.0,0.0,0.0,0.0,0.0,0.0,0.0,0.0,0.0,0.0,0.0,0.0,0.0,0.0,0.0,0.0,0.0,0.0,0.0,0.0,0.0,0.0,0.0,0.0,0.0,0.0,0.0,0.0,0.0,0.5126,0.5972,0.6313,0.6561,0.6669,0.6903,0.7103,0.7223,0.6969,0.6636,0.0,0.0,0.0,0.0,0.0,0.0,0.0,0.0,0.0,0.0,0.0,0.0,0.0,0.0,0.0,0.0,0.0,0.0,0.0,0.0,0.0,0.0,0.0,0.0,0.0,0.0,0.0,0.0,0.7087,0.7542,0.7933,0.0,0.0,0.0,0.0,0.0,0.0,0.0,0.0,0.0,0.0,1.698,1.7343,1.8303,0.0,0.0,1.8388,1.8535,1.802,1.7949,1.7415,1.5795,1.4915,0.0,0.0,0.0,0.0,0.0,0.0,0.0,0.0,0.0,0.0,0.0,0.0,0.0,0.0,0.0,0.0,0.0,0.0,0.0,0.0,0.0,0.0,0.0,0.0,0.0,0.0,0.0,0.0,0.0,0.0,0.0,0.0,0.0,0.0,0.0,0.0,0.0,0.0,0.0,0.0,0.0,0.0,0.0,0.0,0.0,0.0,0.0,0.0,0.0,0.0,0.0,0.0,0.4637,0.5261,0.5589,0.5611,0.5329,0.5728,0.5929,0.5944,0.596,0.5793,0.0,0.0,0.0,0.0,0.0,0.0,0.0,0.0,0.0,0.0,0.0,0.0,0.0,0.0,0.0,0.0,0.0,0.0,0.0,0.0,0.0,0.0,0.0,0.0,0.0,0.0,0.0,0.0,0.7264,0.7513,0.8109,0.0,0.0,0.0,0.0,0.0,0.0,0.0,0.0,0.0,0.0,1.6376,1.7577,1.821,1.8491,1.8368,1.8457,1.8455,1.8134,1.7617,1.6927,1.595,0.0,0.0,0.0,0.0,0.0,0.0,0.0,0.0,0.0,0.0,0.0,0.0,0.0,0.0,0.0,0.0,0.0,0.0,0.0,0.0,0.0,0.0,0.0,0.0,0.0,0.0,0.0,0.4239,0.0,0.0,0.426,0.0,0.0,0.0,0.0,0.0,0.0,0.0,0.0,0.0,0.0,0.0,0.0,0.0,0.0,0.0,0.0,0.0,0.0,0.0,0.0,0.0,0.0,0.3878,0.449,0.4252,0.408,0.408,0.4425,0.465,0.466,0.4771,0.471,0.4455,0.0,0.0,0.0,0.0,0.0,0.0,0.0,0.0,0.0,0.0,0.0,0.0,0.0,0.0,0.0,0.0,0.0,0.0,0.0,0.0,0.0,0.0,0.0,0.0,0.0,0.0,0.6757,0.7013,0.7328,0.0,0.0,0.0,0.0,0.0,0.0,0.0,0.0,0.0,1.4438,1.5684,1.6872,1.79,1.8544,1.8812,1.8822,1.8859,1.8681,1.8137,1.8054,1.7457,0.0,0.0,0.0,0.0,0.0,0.0,0.0,0.0,0.0,0.0,0.0,0.0,0.0,0.0,0.0,0.0,0.0,0.0,0.0,0.0,0.0,0.0,0.0,0.0,0.0,0.0,0.0,0.2882,0.2812,0.0,0.0,0.0,0.0,0.0,0.0,0.0,0.0,0.0,0.0,0.0,0.2672,0.2395,0.0,0.0,0.0,0.0,0.0,0.0,0.0,0.0,0.0,0.0,0.0,0.0,0.3518,0.4068,0.413,0.4185,0.4256,0.4311,0.4337,0.4332,0.4302,0.4209,0.4071,0.0,0.0,0.0,0.0,0.0,0.0,0.0,0.0,0.0,0.0,0.0,0.0,0.0,0.0,0.0,0.0,0.0,0.0,0.0,0.0,0.0,0.0,0.0,0.0,0.0,0.7197,0.0,0.0,0.0,0.0,0.0,0.0,0.0,0.0,0.0,0.0,1.2611,1.3106,1.5083,1.5699,1.6237,1.6965,1.75,1.7727,0.0,0.0,0.0,0.0,0.0,0.0,0.0,0.0,0.0,0.0,0.0,0.0,0.0,0.0,1.4436,1.2379,1.1709,1.1485,1.1523,0.0,0.0,0.0,0.0,0.0,0.0,0.0,0.0,0.0,0.0,0.0,0.0,0.0,0.0,0.112,0.0997,0.1034,0.0,0.0,0.0,0.0,0.0,0.0,0.0,0.0,0.1572,0.1284,0.0781,0.0575,0.0606,0.0,0.1196,0.1479,0.0,0.0,0.0,0.0,0.0,0.0,0.0,0.0,0.2828,0.3047,0.3151,0.3228,0.3326,0.3398,0.3424,0.3442,0.3314,0.3282,0.3382,0.2741,0.2613,0.0,0.0,0.0,0.0,0.0,0.0,0.0,0.0,0.0,0.0,0.0,0.0,0.0,0.0,0.0,0.0,0.0,0.0,0.0,0.0,0.0,0.0,0.0,0.713,0.0,0.0,0.0,0.0,0.0,0.0,0.0,0.0,0.0,1.3341,1.3067,1.3267,1.4864,1.5229,1.5551,1.6111,0.0,0.0,0.0,0.0,0.0,0.0,0.0,1.5836,1.5504,1.5658,1.5598,1.4865,1.4973,1.5098,1.4926,0.0,0.0,1.3791,1.3199,1.2946,1.3002,1.295,1.2986,1.3463,1.4132,1.4538,0.0,0.0,0.0,0.0,0.0,0.0,0.0,0.0,-0.0927,-0.0989,0.0,-0.096,0.0,0.0,0.0,0.0,0.0,0.0275,0.0,0.0,-0.0531,-0.0644,-0.0974,-0.0852,-0.0793,-0.0751,0.0104,0.0119,-0.0628,0.0429,0.0,0.0,0.0,0.0,0.0,0.0,0.1829,0.1542,0.1434,0.1335,0.1396,0.1775,0.1997,0.1984,0.187,0.2001,0.2339,0.2111,0.1992,0.2031,0.266,0.0,0.0,0.0,0.0,0.0,0.0,0.0,0.0,0.0,0.0,0.0,0.0,0.0,0.0,0.0,0.0,0.0,0.0,0.0,0.0,0.6035,0.0,0.0,0.0,0.0,0.0,0.0,0.0,0.0,0.0,1.1527,1.2947,1.3292,1.3593,1.3949,0.0,0.0,0.0,0.0,1.6348,1.6348,1.6348,1.5957,1.4872,1.5031,1.5005,1.4115,0.0,0.0,1.4087,1.4346,1.4549,1.4049,1.4491,1.5108,1.6204,1.5479,1.5024,1.5474,1.4893,1.4688,1.5442,1.5377,1.5327,-0.2721,0.0,0.0,0.0,0.0,-0.0898,-0.1183,-0.2049,-0.2049,-0.2078,-0.2083,-0.2054,0.0,0.0,0.0,0.0,0.0,0.0,-0.0982,-0.152,-0.1358,-0.195,-0.3226,-0.268,-0.269,-0.3148,-0.238,-0.1868,-0.1642,-0.1619,-0.086,0.06,0.0,0.0,0.0,0.0,0.135,0.1347,0.1456,0.1566,0.1657,0.1691,0.1649,0.1503,0.1476,0.1501,0.1598,0.1445,0.1596,0.2116,0.1928,0.0,0.0,0.0,0.0,0.0,0.0,0.0,0.0,0.0,0.0,0.0,0.0,0.0,0.0,0.0,0.0,0.0,0.0,0.0,0.5684,0.5769,0.5993,0.0,0.0,0.0,0.0,0.0,0.0,0.0,0.0,0.0,1.2855,1.3132,1.3673,0.0,0.0,1.4926,1.5533,1.5365,1.5197,1.5174,1.5197,0.0,1.4755,1.5028,1.5108,1.4552,1.4344,1.4224,1.4255,1.4383,1.4535,1.4706,1.5246,1.5794,1.6115,1.5695,1.5429,1.5856,1.5753,1.5588,1.5829,1.5857,1.5828,-0.5565,-0.4416,-0.3544,-0.3279,-0.3392,-0.295,-0.3229,-0.3965,-0.3961,-0.3992,-0.4036,-0.3969,-0.3514,-0.2707,-0.2414,0.0,0.0,0.0,-0.3077,-0.3614,-0.3553,-0.409,-0.5085,-0.4651,-0.4646,-0.5027,-0.4319,-0.3883,-0.3651,-0.3703,-0.3174,-0.2098,0.0,-0.0531,0.0016,0.0119,0.013,0.006,0.0189,0.0413,0.0713,0.0894,0.0896,0.0774,0.0776,0.0878,0.1041,0.0984,0.1194,0.1744,0.1707,0.2017,0.0,0.0,0.0,0.0,0.0,0.0,0.0,0.0,0.0,0.0,0.0,0.3556,0.3222,0.0,0.0,0.0,0.4813,0.5917,0.5784,0.5945,0.0,0.0,0.0,0.0,0.0,0.0,0.0,1.0611,1.0956,1.1431,1.2299,1.2286,1.2766,1.4328,1.421,1.4212,1.4812,0.0,1.3988,1.4074,1.4143,1.4055,1.372,1.4045,1.4358,1.4451,1.4035,1.3841,1.42,1.4296,1.4387,1.4661,1.5028,1.5313,1.552,1.5299,1.5277,1.5903,1.6023,1.6014,1.605,1.5847,1.569,-0.7857,-0.7609,-0.5596,-0.5037,-0.5473,-0.5432,-0.57,-0.6211,-0.6216,-0.6276,-0.6386,-0.6279,-0.5975,-0.5509,-0.4866,0.0,-0.5389,-0.5376,-0.5746,-0.6406,-0.6411,-0.6524,-0.6681,-0.6509,-0.6463,-0.6483,-0.5748,-0.5697,-0.6136,-0.5624,-0.5396,-0.5306,-0.334,-0.205,-0.1537,-0.1401,-0.1528,-0.1869,-0.1794,-0.1539,-0.0984,-0.0426,-0.0132,-0.0063,-0.008,0.0153,0.0621,0.0641,0.077,0.1083,0.1701,0.1993,0.1894,0.0,0.0,0.0,0.0,0.0,0.0,0.0,0.0,0.0,0.0,0.0,0.0,0.0,0.0,0.3039,0.488,0.0,0.5704,0.6381,0.0,0.0,0.0,0.7876,0.8166,0.8896,0.9688,1.0428,0.0,0.0,1.1226,1.0998,1.1255,1.2559,1.274,1.2943,1.3567,1.3082,1.2787,1.3017,1.3164,1.2999,1.2422,1.2757,1.3371,1.3992,1.3803,1.375,1.4105,1.4184,1.4159,1.4305,1.4212,1.4353,1.4608,1.4828,1.5036,1.5656,1.5837,1.5964,1.603,1.561,1.5337,-0.9021,-0.8508,-0.7967,-0.7504,-0.7095,-0.6525,-0.6378,-0.6507,-0.6507,-0.6467,-0.6401,-0.637,-0.6226,-0.6033,-0.5952,-0.6007,-0.6147,-0.6237,-0.6376,-0.6556,-0.6561,-0.686,-0.7391,-0.6828,-0.6855,-0.7333,-0.6659,-0.6312,-0.6329,-0.6218,-0.6076,-0.5968,-0.5453,-0.4578,-0.3354,-0.234,-0.2063,-0.2493,-0.2037,-0.1741,-0.1585,-0.1451,-0.1138,-0.0693,-0.0681,-0.0402,0.0128,0.0156,0.0367,0.0773,0.0803,0.1336,0.2413,0.1887,0.0,0.0,0.0,0.0,0.0,0.0,0.0,0.0,0.0,0.4186,0.3581,0.0,0.4279,0.0,0.515,0.6151,0.6272,0.6285,0.0,0.0,0.7768,0.8405,0.9003,0.9641,1.0166,1.0661,1.0764,1.0448,0.9565,1.0248,1.0898,1.1266,1.1298,1.152,1.2094,1.1897,1.167,1.1773,1.1977,1.2105,1.2199,1.2898,1.361,1.4037,1.4004,1.4126,1.4544,1.4626,1.4729,1.5023,1.509,1.5118,1.5176,1.5244,1.5302,1.5463,1.5507,1.5542,1.558,1.5439,1.5364,-1.0012,-0.9692,-0.9684,-0.9444,-0.9013,-0.8004,-0.7563,-0.7589,-0.7589,-0.7529,-0.7454,-0.7448,-0.7424,-0.7376,-0.7441,-0.748,-0.7492,-0.7553,-0.7738,-0.8019,-0.8019,-0.8415,-0.9065,-0.8659,-0.8534,-0.8613,-0.821,-0.784,-0.7486,-0.748,-0.743,-0.7345,-0.703,-0.6564,-0.5922,-0.4554,-0.3833,-0.3767,-0.2794,-0.2292,-0.2267,-0.1958,-0.151,-0.0944,-0.1102,-0.0822,-0.0036,-0.0208,-0.01,0.0356,0.047,0.0837,0.1462,0.1313,0.1582,0.0,0.0,0.0,0.0,0.0,0.0,0.0,0.0,0.0,0.0,0.0,0.4539,0.4165,0.5793,0.679,0.6479,0.6872,0.7265,0.758,0.8158,0.862,0.8937,0.9345,0.966,0.987,0.9914,0.9607,0.8936,0.9429,0.9923,0.9917,1.0019,1.04,1.1099,1.1032,1.0887,1.1017,1.1388,1.1862,1.2379,1.2991,1.3534,1.3857,1.3617,1.3598,1.4361,1.4222,1.4176,1.4732,1.4876,1.4991,1.5323,1.542,1.542,1.542,1.542,1.542,1.542,1.542,1.542,-1.0864,-1.0813,-1.0813,-1.0813,-1.072,-0.9562,-0.9061,-0.9061,-0.9054,-0.9054,-0.9061,-0.9061,-0.9061,-0.9061,-0.9061,-0.9061,-0.9061,-0.9061,-0.9361,-0.9917,-0.9917,-1.0244,-1.0788,-1.0813,-1.0491,-0.9935,-0.9909,-0.964,-0.9087,-0.8962,-0.8929,-0.8877,-0.8209,-0.8064,-0.8373,-0.7184,-0.6075,-0.5115,-0.3853,-0.3118,-0.301,-0.2404,-0.1764,-0.1183,-0.1508,-0.1229,-0.0276,-0.0521,-0.0509,-0.0109,0.0358,0.0428,0.0049,0.0647,0.1329,0.0,0.1743,0.0,0.0,0.0,0.0,0.0,0.0,0.0,0.0,0.417,0.4607,0.4477,0.6304,0.717,0.6453,0.7431,0.8003,0.7791,0.8184,0.8436,0.8216,0.8384,0.8533,0.8619,0.856,0.8507,0.8368,0.8474,0.8507,0.8578,0.8747,0.9184,1.0057,1.0159,1.015,1.0422,1.1047,1.1644,1.2295,1.2596,1.286,1.3316,1.3072,1.284,1.3855,1.3493,1.327,1.3859,1.4061,1.4264,1.4991,1.505,1.505,1.4991,1.4962,1.5089,1.5323,1.542,1.542,-1.1291,-1.0813,-1.0813,-1.0813,-1.0788,-1.0542,-1.0415,-1.044,-1.0415,-1.0415,-1.0415,-1.0415,-1.0423,-1.0415,-1.0415,-1.044,-1.0415,-1.0415,-1.0491,-1.061,-1.061,-1.0695,-1.0813,-1.0813,-1.072,-1.0618,-1.0618,-1.0534,-1.0423,-0.9865,-0.9614,-0.9595,-0.8923,-0.8646,-0.8698,0.0,0.0,0.0,-0.4808,-0.4338,-0.3651,-0.3482,-0.3078,-0.24,-0.2346,0.0,-0.1331,-0.092,-0.067,-0.0579,-0.0116,0.0,0.0,0.0,0.0,0.0,0.0,0.0,0.0,0.0,0.0,0.0,0.2719,0.3124,0.3807,0.4238,0.4552,0.4788,0.5013,0.5453,0.6166,0.644,0.6695,0.6849,0.6967,0.6977,0.6929,0.6993,0.7187,0.7589,0.7295,0.688,0.66,0.6768,0.7112,0.7311,0.7307,0.7465,0.7786,0.8575,0.9071,0.9211,1.0129,1.0854,1.1028,1.1083,1.1525,1.2201,1.28,1.291,1.3124,1.3097,1.2977,1.3215,1.3233,1.3243,1.3463,1.3455,1.3545,1.3455,1.3494,1.3846,1.5108,1.5381,1.542,-1.2414,-1.185,-1.1816,-1.1841,0.0,-1.1841,-1.1841,-1.1792,-1.1099,-1.0813,-1.0813,-1.0813,-1.0813,-1.0813,-1.0813,-1.0813,-1.0813,-1.0813,-1.0965,-1.1291,-1.1291,-1.1491,-1.1841,-1.1841,-1.1658,-1.1316,-1.1291,-1.1141,-1.0796,-1.044,-1.0115,-0.9795,-0.9458,-0.9133,-0.8811,-0.8778,-0.7987,-0.6406,-0.596,-0.536,-0.4578,-0.4407,-0.3848,-0.2854,-0.287,0.0,0.0,0.0,0.0,0.0,0.0,0.0,0.0,0.0,0.0,0.1015,0.1022,0.1163,0.152,0.156,0.1685,0.1979,0.2167,0.2729,0.3823,0.3959,0.4143,0.4493,0.4525,0.4883,0.5751,0.6182,0.6458,0.6573,0.6588,0.6588,0.6588,0.6588,0.6615,0.6632,0.6637,0.6421,0.5946,0.6325,0.6658,0.6869,0.6998,0.6968,0.6801,0.7516,0.8275,0.8746,0.9832,1.0364,0.9907,1.0295,1.0919,1.1765,1.1904,1.1997,1.2341,1.2081,1.1909,1.2271,1.2406,1.2481,1.2917,1.3009,1.3009,1.3009,1.3009,1.3105,1.3793,1.4019,1.4243,-1.3671,-1.3224,-1.3089,-1.3065,-1.3065,-1.2954,-1.2915,-1.2808,-1.1658,0.0,0.0,-1.1174,-1.1174,-1.1174,-1.1174,-1.1166,-1.1174,-1.1174,-1.1475,-1.1996,-1.2005,-1.232,-1.2881,-1.2915,-1.2584,-1.1996,-1.1972,-1.1724,-1.1174,-1.104,-1.0695,-1.0192,-1.0046,-0.964,-0.9008,-0.8857,-0.8507,-0.7904,-0.7063,-0.6241,-0.55,-0.5233,-0.451,-0.3286,-0.3393,-0.3019,-0.2135,-0.2353,-0.2277,-0.177,-0.1313,-0.0777,-0.0207,-0.0156,0.0127,0.0664,0.0635,0.0729,0.1042,0.1064,0.1193,0.1489,0.1715,0.2303,0.3393,0.3599,0.3708,0.3843,0.3993,0.4325,0.4868,0.5422,0.5814,0.581,0.5837,0.5783,0.5787,0.581,0.5592,0.5534,0.5706,0.5946,0.5707,0.5955,0.6345,0.6539,0.6639,0.6762,0.6341,0.6813,0.7511,0.7976,0.8988,0.9678,0.9,0.9748,1.073,1.1111,1.0912,1.086,1.1281,1.1044,1.0898,1.1456,1.1565,1.1849,1.2397,1.2458,1.2581,1.2581,1.2581,1.2443,1.2074,1.225,1.2557,-1.4491,-1.441,-1.3897,-1.3661,-1.3637,-1.3128,-1.2915,-1.2881,-1.2676,-1.2593,-1.2627,-1.2593,-1.2593,-1.2593,-1.2618,-1.2603,-1.2593,-1.2618,-1.2676,-1.2749,-1.274,-1.2798,-1.2915,-1.2915,-1.2847,-1.274,-1.2749,-1.2691,-1.2544,-1.1956,-1.1591,-1.1441,-1.0939,-1.0312,-0.9684,-0.908,-0.8752,-0.8613,-0.7906,-0.7107,-0.6252,-0.5982,-0.5462,-0.4671,-0.426,-0.3787,-0.319,-0.2739,-0.2468,-0.2376,-0.1931,-0.1395,-0.0824,-0.0766,-0.0503,0.0079,0.0118,0.0122,0.0,0.0,0.0463,0.1127,0.1651,0.2052,0.2249,0.3285,0.3537,0.263,0.2544,0.2563,0.2676,0.2869,0.3005,0.2922,0.2864,0.2839,0.2977,0.3005,0.3201,0.368,0.3699,0.4144,0.4702,0.4917,0.5097,0.5287,0.5582,0.5497,0.5718,0.6265,0.6465,0.6268,0.7279,0.7924,0.7795,0.9192,1.0034,0.9716,1.0193,1.0485,1.0717,1.0534,1.0466,1.0701,1.0726,1.0839,1.0989,1.0926,1.1076,1.1115,1.1139,1.1038,1.0968,1.1045,1.102,-1.4514,-1.4143,-1.3563,-1.331,-1.3286,-1.3017,-1.2915,-1.2915,-1.2915,-1.2915,-1.2915,-1.2915,-1.2915,-1.2915,-1.2915,-1.2915,-1.2915,-1.2915,-1.2915,-1.2915,-1.2915,-1.2915,-1.2915,-1.2915,-1.2915,-1.2915,-1.2915,-1.2915,-1.2881,-1.2559,-1.2005,-1.1233,-1.0236,-0.9536,-0.9263,-0.8962,-0.8778,-0.8778,-0.8448,-0.7903,-0.7123,-0.6909,-0.6395,-0.5515,-0.4893,-0.4392,-0.3933,-0.3381,-0.3042,-0.2944,-0.2515,-0.2129,-0.1786,-0.1599,-0.1192,-0.0546,-0.0559,-0.0415,-0.0024,0.0,0.0151,0.0477,0.0757,0.0903,0.093,0.2205,0.2801,0.2216,0.1506,0.1342,0.21,0.2206,0.2204,0.2204,0.2204,0.2204,0.2204,0.2204,0.2359,0.2624,0.2693,0.2871,0.3292,0.3765,0.4168,0.4388,0.4845,0.5248,0.5371,0.5716,0.5881,0.5557,0.6112,0.6625,0.685,0.7242,0.8129,0.9037,0.9198,0.9428,0.9696,0.9562,0.9236,0.9253,0.9568,0.9849,0.9913,1.0301,1.053,1.0586,1.0586,1.0586,1.0586,1.0586,1.0577,-1.5221,-1.4741,-1.4152,-1.3748,-1.3452,-1.3216,-1.3104,-1.3089,-1.2954,-1.2915,-1.2915,-1.2915,-1.2915,-1.2915,-1.2915,-1.2915,-1.2915,-1.2915,-1.2915,-1.2915,-1.2915,-1.2915,-1.2915,-1.2915,-1.2915,-1.2915,-1.2915,-1.2915,-1.2915,-1.2915,-1.2255,-1.1015,-0.984,-0.9185,-0.9035,-0.8883,-0.8778,-0.8778,-0.8778,-0.8533,-0.7957,-0.778,-0.7267,-0.6371,-0.5567,-0.4959,-0.457,-0.401,-0.3626,-0.3467,-0.3153,-0.2892,-0.2653,-0.2391,-0.1934,-0.13,-0.129,-0.1037,-0.0332,-0.0106,0.0,0.0,0.0,0.0,0.0,0.1034,0.1701,0.1564,0.0671,0.0505,0.1402,0.1651,0.1703,0.1703,0.1703,0.1647,0.1675,0.1713,0.1788,0.1911,0.1965,0.2038,0.2326,0.2889,0.3369,0.3634,0.4442,0.5047,0.5087,0.5223,0.5395,0.5395,0.5395,0.5686,0.6268,0.5947,0.647,0.842,0.8377,0.8452,0.8759,0.8404,0.8079,0.8197,0.8576,0.9075,0.93,0.9817,1.0301,1.0491,1.0586,1.0586,1.0586,1.0586,1.0586,-1.7804,-1.7698,-1.7002,-1.6248,-1.5132,-1.4135,-1.3692,-1.3634,-1.3162,-1.2915,-1.2915,-1.2915,-1.2915,-1.2915,-1.2915,-1.2915,-1.2915,-1.2915,-1.2915,-1.2915,-1.2915,-1.2915,-1.2915,-1.2915,-1.2915,-1.2915,-1.2915,-1.2915,-1.2915,-1.2881,-1.2486,-1.1715,-1.0965,-1.0261,-0.9718,-0.9106,-0.8804,-0.8778,-0.8778,-0.8778,-0.8685,-0.844,-0.8018,-0.7376,-0.6406,-0.562,-0.5114,-0.434,-0.3944,-0.3933,-0.3896,-0.3605,-0.3112,-0.3002,-0.2715,-0.2128,-0.2087,-0.1759,-0.1055,-0.0383,0.0,0.0,0.0,0.0,0.0,0.014,0.0,0.0,0.0,0.0,0.0,0.0,0.0,0.0,0.0,0.0196,0.0,0.0201,0.0435,0.1153,0.1189,0.1514,0.2139,0.2464,0.2669,0.2917,0.3621,0.4143,0.4207,0.4815,0.5259,0.5326,0.5395,0.5425,0.5591,0.5491,0.5947,0.692,0.7548,0.7849,0.7949,0.8002,0.7942,0.7503,0.7949,0.8323,0.8877,0.9434,0.969,1.0269,1.0498,1.0586,1.0586,1.0586,1.0586,-1.7666,-1.7617,-1.7021,-1.6214,-1.5268,-1.4332,-1.3827,-1.3626,-1.3608,-1.335,-1.2964,-1.3135,-1.3115,-1.2915,-1.2915,-1.2915,-1.2915,-1.2915,-1.2915,-1.2915,-1.2915,-1.2915,-1.2915,-1.2915,-1.2915,-1.2915,-1.2915,-1.2915,-1.2822,-1.2476,-1.2104,-1.1765,-1.1116,-1.0466,-0.9814,-0.9536,-0.9204,-0.8804,-0.8778,-0.8778,-0.8765,-0.8697,-0.8435,-0.8012,-0.728,-0.6701,-0.6234,-0.5238,-0.4652,-0.4606,-0.4264,-0.3895,-0.3646,-0.3719,-0.3428,-0.2784,-0.2383,-0.2074,-0.1748,-0.1468,-0.1313,-0.1284,-0.0894,-0.0643,-0.0616,-0.0252,0.0,0.0,0.0,0.0,0.0,0.0,0.0,0.0,0.0,0.0,0.0,0.0,0.0,0.0424,0.0466,0.0,0.1012,0.1469,0.2034,0.2544,0.3056,0.3222,0.3278,0.4013,0.4486,0.4652,0.5024,0.5359,0.5395,0.5395,0.5782,0.6396,0.6519,0.6531,0.7088,0.6712,0.6453,0.6523,0.6929,0.7312,0.7605,0.8291,0.878,0.9588,1.0371,1.0586,1.0586,1.0586,1.0586,-1.7982,-1.7908,-1.7379,-1.6795,-1.6166,-1.5117,-1.4521,-1.421,-1.4162,-1.3763,-1.3271,-1.3437,-1.334,-1.3091,-1.2964,-1.2915,-1.2915,-1.2915,-1.2915,-1.2915,-1.2915,-1.2915,-1.2915,-1.2915,-1.2915,-1.2915,-1.2915,-1.2915,-1.2856,-1.2403,-1.1922,-1.1516,-1.104,-1.0389,-0.9607,-0.9536,-0.9283,-0.8831,-0.8778,-0.8778,-0.8778,-0.8778,-0.8704,-0.8459,-0.7884,-0.7474,-0.7246,-0.5947,-0.5195,-0.5195,-0.4543,-0.4144,-0.4144,-0.422,-0.4037,-0.3503,-0.2888,-0.251,-0.2538,-0.2341,-0.2204,-0.2148,-0.1673,-0.1396,-0.1228,-0.0531,-0.0252,0.0,-0.0682,0.0,0.0,0.0,0.0,0.0,0.0,0.0,0.0,0.0,0.0,0.0,0.0,0.0,0.0,0.0572,0.1178,0.1719,0.2126,0.2328,0.245,0.3049,0.3649,0.368,0.442,0.5057,0.5326,0.5395,0.5749,0.5943,0.5848,0.5782,0.6235,0.5719,0.5428,0.5954,0.6174,0.6527,0.6981,0.7502,0.7929,0.8844,0.9702,1.0193,0.9722,1.0117,1.0384,-1.9672,-1.9571,-1.9083,-1.8685,-1.861,-1.6779,-1.6036,-1.5698,-1.4672,-1.4085,-1.3948,-1.3675,-1.349,-1.3457,-1.3125,-1.29,-1.2915,-1.2915,-1.2915,-1.2915,-1.2915,-1.2915,-1.2915,-1.2915,-1.2915,-1.2915,-1.2915,-1.2915,-1.2881,-1.2847,-1.2157,-1.0939,-1.0881,-1.0192,-0.914,-0.8989,-0.8857,-0.8811,-0.8778,-0.8778,-0.8778,-0.8778,-0.8791,-0.8685,-0.8104,-0.7729,-0.7553,-0.6291,-0.5504,-0.5481,-0.4852,-0.4481,-0.4491,-0.4467,-0.4443,-0.4309,-0.3729,-0.3345,-0.3262,-0.2732,-0.2315,-0.2259,-0.223,-0.2176,-0.2091,-0.0978,-0.0727,-0.1898,-0.2296,-0.1926,0.0,0.0,0.0,0.0,0.0,0.0,0.0,0.0,0.0,0.0,0.0,0.0,0.0,0.0034,0.0,0.0,0.0877,0.1349,0.1482,0.2147,0.2644,0.2911,0.348,0.4353,0.5123,0.5395,0.5428,0.5557,0.562,0.5428,0.5428,0.5395,0.5395,0.5395,0.5591,0.5947,0.6461,0.6915,0.7274,0.8107,0.9312,0.9641,0.8947,0.9745,0.9873,-1.9798,-1.9708,-1.8577,-1.811,-1.7916,-1.6362,-1.555,-1.5297,-1.5058,-1.4601,-1.4202,-1.4258,-1.417,-1.388,-1.3724,-1.3389,-1.2944,-1.2915,-1.2915,-1.2915,-1.2915,-1.2915,-1.2915,-1.2915,-1.2915,-1.2915,-1.2915,-1.2915,-1.2915,-1.2915,-1.2412,-1.1616,-1.1441,-1.0771,-0.9666,-0.9439,-0.923,-0.8831,-0.8778,-0.8778,-0.8778,-0.8778,-0.8778,-0.8778,-0.8566,-0.8401,-0.8395,-0.7417,-0.6713,-0.6226,-0.5519,-0.4948,-0.4543,-0.4491,-0.4491,-0.446,-0.4236,-0.4098,-0.407,-0.3818,-0.368,-0.3652,-0.3176,-0.2926,-0.2788,-0.2037,-0.1535,-0.1977,-0.3318,-0.3423,-0.246,-0.1432,-0.0821,-0.0831,-0.0815,-0.0603,-0.0255,-0.0455,-0.0626,0.0,0.0,0.0,0.0,0.0,0.0,0.0,0.0,0.0,0.0606,0.1242,0.1809,0.1941,0.2544,0.328,0.3547,0.4788,0.5392,0.5395,0.5395,0.5428,0.5395,0.5395,0.5395,0.5395,0.5395,0.5491,0.6075,0.6429,0.6756,0.7125,0.8386,0.8576,0.8161,0.8436,0.8355,-1.9798,-1.9631,-1.8715,-1.8167,-1.7813,-1.6631,-1.5835,-1.5387,-1.537,-1.505,-1.4658,-1.4727,-1.4619,-1.4319,-1.4182,-1.3857,-1.3301,-1.3154,-1.3032,-1.2915,-1.2915,-1.2915,-1.2915,-1.2915,-1.2915,-1.2915,-1.2915,-1.2915,-1.2915,-1.2915,-1.2378,-1.1516,-1.1491,-1.0796,-0.9684,-0.9484,-0.9237,-0.8857,-0.8778,-0.8778,-0.8778,-0.8778,-0.8778,-0.8778,-0.8778,-0.8778,-0.8778,-0.8103,-0.7503,-0.6939,-0.6036,-0.5191,-0.4598,-0.4491,-0.4491,-0.4491,-0.4491,-0.4491,-0.4491,-0.4491,-0.4487,-0.446,-0.4042,-0.3707,-0.3707,-0.3262,-0.2815,-0.2912,-0.3789,-0.4614,-0.4026,-0.2904,-0.2086,-0.1839,-0.1773,-0.1532,-0.098,-0.1127,-0.0838,0.0,0.0,0.0,0.0,0.0,0.0,0.0,0.0,0.0,0.0,0.0437,0.0873,0.094,0.1676,0.2143,0.2509,0.3445,0.445,0.4619,0.5123,0.5226,0.5259,0.5292,0.5292,0.5359,0.5395,0.5395,0.5587,0.5976,0.6207,0.6334,0.6638,0.6975,0.678,0.6657,0.6991,-1.9798,-1.9721,-1.9747,-1.9071,-1.8328,-1.7495,-1.7024,-1.6242,-1.5642,-1.5352,-1.5186,-1.498,-1.4834,-1.4717,-1.4416,-1.4143,-1.4007,-1.374,-1.334,-1.3003,-1.2925,-1.2915,-1.2915,-1.2915,-1.2915,-1.2915,-1.2915,-1.2881,-1.2798,-1.2749,-1.2123,-1.1023,-1.0788,-1.0167,-0.8857,-0.8877,-0.8831,-0.8778,-0.8778,-0.8778,-0.8778,-0.8778,-0.8778,-0.8778,-0.8778,-0.8778,-0.8778,-0.8129,-0.7723,-0.7423,-0.6303,-0.5246,-0.4625,-0.4491,-0.4491,-0.4491,-0.4491,-0.4491,-0.4491,-0.4491,-0.4491,-0.4487,-0.446,-0.4349,-0.4322,-0.4294,-0.4239,-0.4219,-0.4556,-0.487,-0.4892,-0.4305,-0.355,-0.2874,-0.2696,-0.2631,-0.2404,-0.1808,-0.0973,0.0,0.0,0.0,0.0,0.0,0.0,0.0,0.0,0.0,0.0,0.0,0.0,0.0202,0.0773,0.1274,0.1641,0.2075,0.2976,0.3747,0.4453,0.4858,0.4855,0.4888,0.4821,0.4855,0.5326,0.5359,0.5395,0.5719,0.5653,0.5752,0.5752,0.5851,0.5906,0.6059,0.6355,-1.9501,-1.8992,-1.8501,-1.7841,-1.7146,-1.6386,-1.594,-1.5719,-1.5478,-1.542,-1.5391,-1.5273,-1.5205,-1.5186,-1.503,-1.4825,-1.459,-1.4414,-1.4004,-1.3379,-1.3027,-1.2915,-1.2915,-1.2915,-1.2915,-1.2915,-1.2915,-1.2642,-1.2261,-1.2187,-1.145,-1.0364,-1.0115,-0.964,-0.8857,-0.8778,-0.8778,-0.8778,-0.8778,-0.8778,-0.8778,-0.8778,-0.8778,-0.8778,-0.8778,-0.8778,-0.8778,-0.856,-0.7963,-0.7047,-0.6497,-0.5714,-0.4763,-0.4491,-0.4491,-0.4491,-0.4491,-0.4491,-0.4491,-0.4491,-0.4491,-0.4491,-0.4491,-0.4491,-0.4491,-0.4491,-0.4491,-0.4522,-0.4738,-0.4999,-0.5187,-0.5117,-0.4517,-0.3713,-0.358,-0.3311,-0.2711,-0.2078,-0.1175,-0.037,-0.074,-0.084,0.0,0.0,0.0,0.0,0.0,0.0,0.0,0.0,0.0,0.0,0.0,0.0,0.0839,0.1241,0.1909,0.2711,0.348,0.4151,0.4251,0.4251,0.4181,0.4384,0.4855,0.519,0.5259,0.5292,0.5226,0.5359,0.5524,0.5557,0.5495,0.569,0.6013,-1.9527,-1.9044,-1.8301,-1.7589,-1.6838,-1.6112,-1.5642,-1.5449,-1.542,-1.542,-1.542,-1.541,-1.542,-1.542,-1.542,-1.5264,-1.501,-1.4863,-1.4502,-1.3945,-1.335,-1.3057,-1.2935,-1.2915,-1.2915,-1.2915,-1.2915,-1.2666,-1.2236,-1.2163,-1.1525,-1.0389,-1.0159,-0.9684,-0.8883,-0.8778,-0.8778,-0.8778,-0.8778,-0.8778,-0.8778,-0.8778,-0.8778,-0.8778,-0.8778,-0.8778,-0.8778,-0.8778,-0.8262,-0.7128,-0.6529,-0.5655,-0.4598,-0.4491,-0.4491,-0.4491,-0.4491,-0.4491,-0.4491,-0.4491,-0.4491,-0.4491,-0.4491,-0.4491,-0.4491,-0.4491,-0.4508,-0.4627,-0.4845,-0.5071,-0.536,-0.5395,-0.509,-0.4619,-0.4517,-0.3949,-0.2945,-0.2043,-0.1643,-0.1109,-0.1109,-0.074,0.0,0.0,0.0,0.0,0.0,0.0,0.0,0.0,0.0,0.0,0.0,0.0,0.0,0.0471,0.094,0.1642,0.2377,0.3045,0.3413,0.3313,0.3247,0.3447,0.3849,0.4248,0.4384,0.4619,0.4719,0.4987,0.5326,0.5428,0.5428,0.5428,0.5657,-1.9759,-1.9579,-1.89,-1.8043,-1.7274,-1.6585,-1.595,-1.5468,-1.542,-1.542,-1.542,-1.542,-1.542,-1.542,-1.542,-1.5381,-1.5342,-1.5029,-1.4814,-1.4521,-1.3984,-1.3457,-1.3135,-1.3062,-1.3023,-1.3003,-1.2944,-1.2847,-1.2584,-1.2584,-1.2123,-1.072,-1.0491,-1.0064,-0.9008,-0.8778,-0.8778,-0.8778,-0.8778,-0.8778,-0.8778,-0.8778,-0.8778,-0.8778,-0.8778,-0.8778,-0.8778,-0.8672,-0.8348,-0.753,-0.6249,-0.5273,-0.4625,-0.4491,-0.4491,-0.4491,-0.4491,-0.4491,-0.4491,-0.4491,-0.4491,-0.4491,-0.4491,-0.4491,-0.4491,-0.4494,-0.4566,-0.474,-0.497,-0.5171,-0.5353,-0.5395,-0.5359,-0.5392,-0.5226,-0.4519,-0.3045,-0.211,-0.2009,-0.211,-0.1208,-0.0034,0.0,0.0,0.0,0.0,0.0,0.0,0.0,0.0,0.0,0.0,0.0,0.0,0.0,0.0,0.0,0.0806,0.1442,0.1944,0.2477,0.2444,0.238,0.2579,0.2878,0.3245,0.3578,0.3813,0.4284,0.4755,0.5024,0.5292,0.5395,0.5395,0.5399,-1.9176,-1.8167,-1.795,-1.7163,-1.6054,-1.5748,-1.5584,-1.542,-1.542,-1.542,-1.542,-1.542,-1.542,-1.542,-1.542,-1.542,-1.5381,-1.5293,-1.5049,-1.4823,-1.4617,-1.4199,-1.3789,-1.3477,-1.334,-1.3291,-1.2998,-1.2608,-1.2129,-1.2113,-1.1375,-1.0115,-1.009,-0.9684,-0.8903,-0.8778,-0.8778,-0.8778,-0.8778,-0.8778,-0.8778,-0.8778,-0.8778,-0.8778,-0.8778,-0.8778,-0.8725,-0.8268,-0.7643,-0.6912,-0.6032,-0.5191,-0.4598,-0.4515,-0.4515,-0.4491,-0.4491,-0.4491,-0.4491,-0.4491,-0.4491,-0.4491,-0.4491,-0.4491,-0.4491,-0.4491,-0.4618,-0.479,-0.4984,-0.5168,-0.5356,-0.5395,-0.5395,-0.5395,-0.5395,-0.4924,-0.388,-0.348,-0.3211,-0.2676,-0.1542,-0.0706,0.0,0.0,0.0,0.0,0.0,0.0,0.0,0.0,0.0,0.0,0.0,0.0,0.0,0.0,0.0,0.0,0.0538,0.084,0.1342,0.1609,0.1611,0.168,0.2111,0.2477,0.2778,0.3011,0.368,0.4284,0.4519,0.4652,0.5193,0.5395,0.5405,-1.9281,-1.8474,-1.7852,-1.7107,-1.6273,-1.5661,-1.542,-1.542,-1.542,-1.542,-1.542,-1.542,-1.542,-1.542,-1.542,-1.542,-1.542,-1.542,-1.5273,-1.5107,-1.5039,-1.4687,-1.4172,-1.3821,-1.3691,-1.3435,-1.2985,-1.2432,-1.185,-1.1541,-1.0788,-1.002,-0.9795,-0.9439,-0.8857,-0.8778,-0.8778,-0.8778,-0.8778,-0.8778,-0.8778,-0.8778,-0.8778,-0.8778,-0.8778,-0.8778,-0.8725,-0.8374,-0.783,-0.7101,-0.6367,-0.5523,-0.4653,-0.4787,-0.4787,-0.4543,-0.4491,-0.4491,-0.4491,-0.4491,-0.4491,-0.4491,-0.4491,-0.4491,-0.4505,-0.4542,-0.4668,-0.4842,-0.5012,-0.5192,-0.5353,-0.5395,-0.5395,-0.5395,-0.5395,-0.5024,-0.4082,-0.3211,-0.2512,-0.1744,-0.1108,-0.0605,-0.0067,0.0,0.0,0.0,0.0,0.0,0.0,0.0,0.0,0.0,0.0,0.0,0.0,0.0,0.0,0.0,0.0,0.0,0.0,0.0,0.0,0.0,0.0,0.1676,0.1944,0.231,0.2911,0.3413,0.368,0.4253,0.4864,0.5222,0.5266,-1.9579,-1.9333,-1.8031,-1.744,-1.7052,-1.5958,-1.542,-1.542,-1.542,-1.542,-1.542,-1.542,-1.542,-1.542,-1.542,-1.542,-1.542,-1.542,-1.541,-1.5361,-1.5312,-1.5,-1.4436,-1.4241,-1.4062,-1.3675,-1.293,-1.2406,-1.1943,-1.1328,-1.0563,-1.0044,-0.984,-0.9439,-0.8936,-0.8778,-0.8778,-0.8778,-0.8778,-0.8778,-0.8778,-0.8778,-0.8778,-0.8778,-0.8778,-0.8778,-0.8778,-0.8699,-0.8427,-0.7824,-0.7095,-0.6122,-0.5034,-0.5328,-0.5109,-0.4653,-0.4491,-0.4491,-0.4491,-0.4491,-0.4491,-0.4491,-0.4508,-0.4511,-0.4556,-0.4662,-0.4782,-0.4938,-0.5023,-0.5199,-0.536,-0.5395,-0.5395,-0.5395,-0.5395,-0.499,-0.4082,-0.2609,-0.1241,-0.0371,-0.0269,-0.0303,-0.0168,-0.0135,0.0,0.0,0.0,0.0,0.0,0.0,0.0,0.0,0.0,0.0,0.0,0.0,0.0,0.0,0.0,0.0,0.0,0.0,0.0,0.0,0.0,0.0,0.1074,0.1576,0.2078,0.2577,0.2878,0.3792,0.4682,0.4855,0.4941,-1.8259,-1.7163,-1.6866,-1.6397,-1.5882,-1.5526,-1.542,-1.542,-1.542,-1.542,-1.542,-1.542,-1.542,-1.542,-1.542,-1.542,-1.542,-1.542,-1.542,-1.542,-1.542,-1.5352,-1.5039,-1.4795,-1.46,-1.4231,-1.3331,-1.2762,-1.2422,-1.157,-1.0828,-1.0234,-0.9813,-0.9465,-0.8904,-0.8818,-0.8778,-0.8778,-0.8778,-0.8778,-0.8778,-0.8778,-0.8778,-0.8778,-0.8778,-0.8778,-0.8778,-0.8778,-0.8725,-0.8421,-0.783,-0.6966,-0.6285,-0.5787,-0.5328,-0.4842,-0.457,-0.4515,-0.4491,-0.4522,-0.4494,-0.4515,-0.461,-0.4668,-0.465,-0.4779,-0.4925,-0.503,-0.5092,-0.5213,-0.5373,-0.5395,-0.5395,-0.5395,-0.5395,-0.5326,-0.4957,-0.4048,-0.2748,-0.195,-0.1781,-0.1946,-0.1482,-0.1076,0.0,0.0,0.0,0.0,0.0,0.0,0.0,0.0,0.0,0.0,0.0,0.0,0.0,0.0,0.0,0.0,0.0,0.0,0.0,0.0,0.0,0.0,0.0,0.0505,0.0975,0.1509,0.2119,0.2822,0.3532,0.3993,0.4668,-1.7715,-1.7006,-1.6641,-1.6255,-1.5892,-1.5546,-1.542,-1.542,-1.542,-1.542,-1.542,-1.542,-1.542,-1.542,-1.542,-1.542,-1.542,-1.542,-1.542,-1.542,-1.542,-1.542,-1.54,-1.5186,-1.5,-1.4673,-1.383,-1.3128,-1.2365,-1.1581,-1.0725,-1.0051,-0.9677,-0.9375,-0.9025,-0.8891,-0.8785,-0.8778,-0.8778,-0.8778,-0.8778,-0.8778,-0.8778,-0.8778,-0.8778,-0.8778,-0.8778,-0.8778,-0.8778,-0.8613,-0.8129,-0.7723,-0.7557,-0.6929,-0.6199,-0.5605,-0.5113,-0.5003,-0.4956,-0.4748,-0.4604,-0.46,-0.4711,-0.4772,-0.4819,-0.4914,-0.5016,-0.5108,-0.5173,-0.5306,-0.5375,-0.5395,-0.5395,-0.5395,-0.5395,-0.5395,-0.5259,-0.4586,-0.4018,-0.3324,-0.2984,-0.3188,-0.2956,-0.2213,0.0,0.0,0.0,0.0,0.0,0.0,0.0,0.0,0.0,0.0,0.0,0.0,0.0,0.0,0.0,0.0,0.0,0.0,0.0,0.0,0.0,0.0,0.0,0.0,0.0,0.1095,0.1724,0.1983,0.2387,0.3152,0.392,-1.749,-1.723,-1.6669,-1.6384,-1.6236,-1.5661,-1.542,-1.542,-1.542,-1.542,-1.542,-1.542,-1.542,-1.542,-1.542,-1.542,-1.542,-1.542,-1.542,-1.542,-1.542,-1.542,-1.5371,-1.5168,-1.4888,-1.4639,-1.3898,-1.3044,-1.2192,-1.1197,-1.0444,-0.9838,-0.9481,-0.9375,-0.9245,-0.9092,-0.9011,-0.9031,-0.9038,-0.9025,-0.8985,-0.8951,-0.8865,-0.8778,-0.8778,-0.8778,-0.8778,-0.8778,-0.8778,-0.8758,-0.8246,-0.8193,-0.8103,-0.7777,-0.7235,-0.6448,-0.5655,-0.5191,-0.5083,-0.4919,-0.4684,-0.4721,-0.4863,-0.4908,-0.4938,-0.505,-0.5131,-0.5196,-0.5289,-0.5394,-0.5395,-0.5395,-0.5395,-0.5395,-0.5395,-0.5395,-0.5259,-0.4686,-0.4655,-0.4858,-0.422,-0.4023,-0.3756,-0.3184,-0.2183,-0.128,-0.064,0.0,0.0,0.0,0.0,0.0,0.0,0.0,0.0,0.0,0.0,0.0,0.0,0.0,0.0,0.0,0.0,0.0,0.0,0.0,0.0,0.0,0.0,0.0,0.113,0.1175,0.1657,0.2332,0.311,-1.7005,-1.5807,-1.6059,-1.596,-1.5614,-1.5439,-1.542,-1.542,-1.542,-1.542,-1.5439,-1.543,-1.5449,-1.5469,-1.542,-1.543,-1.5488,-1.5449,-1.542,-1.542,-1.542,-1.542,-1.5323,-1.4932,-1.4534,-1.4102,-1.3583,-1.299,-1.2338,-1.1158,-1.043,-1.004,-0.9753,-0.9613,-0.9599,-0.9546,-0.9452,-0.9419,-0.9439,-0.9446,-0.9412,-0.9272,-0.9078,-0.8925,-0.8911,-0.8891,-0.8858,-0.8831,-0.8778,-0.8805,-0.8903,-0.8245,-0.747,-0.6623,-0.6328,-0.6178,-0.5499,-0.5029,-0.5012,-0.4829,-0.4769,-0.4844,-0.4985,-0.5056,-0.5096,-0.5209,-0.53,-0.5334,-0.5361,-0.5395,-0.5395,-0.5395,-0.5395,-0.5395,-0.5395,-0.5395,-0.5359,-0.5226,-0.5057,-0.5259,-0.4957,-0.467,-0.4353,-0.3917,-0.3034,-0.2238,-0.1602,-0.0855,0.0,0.0,0.0,0.0,0.0,0.0,0.0,0.0,0.0,0.0,0.0,0.0,0.0,0.0,0.0,0.0,0.0,0.0,0.0,0.0,0.0,0.0,0.0,0.0,0.0852,0.1465,0.2196,-1.6775,-1.6073,-1.6084,-1.5977,-1.5762,-1.5498,-1.542,-1.542,-1.542,-1.5547,-1.5703,-1.5762,-1.5889,-1.6015,-1.6063,-1.5986,-1.5742,-1.5478,-1.543,-1.542,-1.542,-1.542,-1.5391,-1.4932,-1.4874,-1.4501,-1.3666,-1.2726,-1.2343,-1.1531,-1.0722,-1.0335,-1.0053,-0.9913,-0.986,-0.974,-0.9749,-0.9729,-0.9735,-0.9729,-0.9722,-0.9526,-0.9379,-0.9305,-0.9273,-0.9259,-0.9265,-0.9259,-0.9265,-0.9208,-0.9019,-0.8648,-0.8033,-0.718,-0.6297,-0.5928,-0.5464,-0.5264,-0.5255,-0.5134,-0.4931,-0.4995,-0.513,-0.524,-0.526,-0.5344,-0.5392,-0.5395,-0.5395,-0.5395,-0.5395,-0.5395,-0.5395,-0.5395,-0.5395,-0.5395,-0.5395,-0.5395,-0.5395,-0.5395,-0.5236,-0.5071,-0.5009,-0.4484,-0.3806,-0.3173,-0.2551,-0.177,-0.0943,-0.0662,0.0,0.0,0.0,0.0,0.0,0.0,0.0,0.0,0.0,0.0,0.0,0.0,0.0,0.0,0.0,0.0,0.0,0.0,0.0,0.0,0.0,0.0,0.0,0.058,0.1357,-1.6863,-1.6677,-1.6467,-1.631,-1.6183,-1.583,-1.5693,-1.5644,-1.5683,-1.5898,-1.6193,-1.6242,-1.6387,-1.6609,-1.6619,-1.6475,-1.6085,-1.5703,-1.5547,-1.542,-1.542,-1.542,-1.5381,-1.5206,-1.4991,-1.4628,-1.3386,-1.2535,-1.2205,-1.1556,-1.1125,-1.0687,-1.0287,-1.0207,-1.0154,-1.004,-0.9909,-0.9889,-0.9889,-0.9876,-0.9816,-0.9766,-0.9726,-0.9722,-0.9715,-0.9653,-0.9619,-0.9613,-0.9613,-0.9524,-0.9314,-0.9135,-0.9379,-0.8527,-0.7315,-0.6306,-0.6163,-0.5953,-0.5682,-0.5375,-0.5076,-0.5179,-0.5287,-0.5375,-0.5385,-0.5382,-0.5395,-0.5395,-0.5395,-0.5395,-0.5395,-0.5395,-0.5416,-0.544,-0.5426,-0.5405,-0.5433,-0.5433,-0.5395,-0.5402,-0.5416,-0.5393,-0.5318,-0.5208,-0.4589,-0.4044,-0.3407,-0.2856,-0.2045,-0.1435,0.0,0.0,0.0,0.0,0.0,0.0,0.0,0.0,0.0,0.0,0.0,0.0,0.0,0.0,0.0,0.0,0.0,0.0,0.0,0.0,0.0,0.0,0.0,0.0,0.0781,-1.7389,-1.6736,-1.708,-1.7012,-1.667,-1.6521,-1.6521,-1.6492,-1.6463,-1.656,-1.6629,-1.6629,-1.6699,-1.6765,-1.6746,-1.6494,-1.6222,-1.6056,-1.584,-1.5625,-1.5566,-1.5566,-1.5342,-1.4599,-1.4643,-1.4387,-1.2917,-1.2443,-1.2205,-1.1382,-1.08,-1.0559,-1.0546,-1.0519,-1.0459,-1.0392,-1.0492,-1.0472,-1.0459,-1.0338,-1.0114,-1.0067,-0.9947,-0.9806,-0.9775,-0.9796,-0.9829,-0.9836,-0.9809,-0.9773,-0.9864,-0.9837,-0.9672,-0.9358,-0.9536,-0.897,-0.7829,-0.5906,-0.5489,-0.5361,-0.5231,-0.5346,-0.5382,-0.5392,-0.5395,-0.5395,-0.5395,-0.5395,-0.5409,-0.5436,-0.545,-0.5419,-0.547,-0.5508,-0.5518,-0.5528,-0.5549,-0.5552,-0.5508,-0.5518,-0.5569,-0.5589,-0.5559,-0.5519,-0.5356,-0.4834,-0.431,-0.3747,-0.3136,-0.2438,-0.1555,0.0,0.0,0.0,0.0,0.0,0.0,0.0,0.0,0.0,0.0,0.0,0.0,0.0,0.0,0.0,0.0,0.0,0.0,0.0,0.0,0.0,0.0,0.0,0.0,-1.7793,-1.7418,-1.7412,-1.7285,-1.708,-1.6846,-1.6697,-1.6697,-1.6697,-1.6843,-1.707,-1.7109,-1.7217,-1.7311,-1.7236,-1.7012,-1.6809,-1.6584,-1.6357,-1.6101,-1.6043,-1.6062,-1.6052,-1.5546,-1.5162,-1.4219,-1.3261,-1.2389,-1.2097,-1.1348,-1.0586,-1.0586,-1.0586,-1.0573,-1.0586,-1.0586,-1.0579,-1.0573,-1.0566,-1.0526,-1.0432,-1.0361,-1.0307,-1.0211,-1.0191,-1.0177,-1.0177,-1.0211,-1.0211,-1.0224,-1.0327,-1.0314,-1.0223,-1.0126,-1.0231,-1.0243,-0.8496,-0.6944,-0.6205,-0.5988,-0.5712,-0.5427,-0.5395,-0.5395,-0.5395,-0.5395,-0.5395,-0.5395,-0.5556,-0.5593,-0.5568,-0.5572,-0.5644,-0.5661,-0.562,-0.5647,-0.5671,-0.5689,-0.5678,-0.5664,-0.5691,-0.5759,-0.582,-0.5808,-0.5818,-0.5613,-0.5217,-0.4817,-0.4038,-0.321,-0.226,0.0,0.0,0.0,0.0,0.0,0.0,0.0,0.0,0.0,0.0,0.0,0.0,0.0,0.0,0.0,0.0,0.0,0.0,0.0,0.0,0.0,0.0,0.0,0.0,-1.8008,-1.7969,-1.7676,-1.7539,-1.7519,-1.7178,-1.7038,-1.7028,-1.7048,-1.7213,-1.7461,-1.7549,-1.7725,-1.7891,-1.7666,-1.7451,-1.7324,-1.7031,-1.6635,-1.6472,-1.6329,-1.6081,-1.5664,-1.5407,-1.5078,-1.463,-1.3369,-1.2656,-1.2022,-1.129,-1.0801,-1.0606,-1.0586,-1.0586,-1.0586,-1.0586,-1.0586,-1.0586,-1.0586,-1.0579,-1.0566,-1.0566,-1.0566,-1.0566,-1.0586,-1.0586,-1.0586,-1.0566,-1.0559,-1.0553,-1.0546,-1.0533,-1.0508,-1.0199,-0.9977,-0.9779,-0.8441,-0.7482,-0.6726,-0.6277,-0.6038,-0.5653,-0.5395,-0.5395,-0.5395,-0.5395,-0.5462,-0.5498,-0.5651,-0.5708,-0.5692,-0.5742,-0.577,-0.5806,-0.5803,-0.5827,-0.5837,-0.5796,-0.5786,-0.5846,-0.5857,-0.5999,-0.602,-0.6061,-0.6132,-0.622,-0.606,-0.5744,-0.4957,-0.3975,-0.2922,-0.1831,0.0,0.0,0.0,0.0,0.0,0.0,0.0,0.0,0.0,0.0,0.0,0.0,0.0,0.0,0.0,0.0,0.0,0.0,0.0,0.0,0.0,0.0,0.0,-1.8008,-1.8008,-1.7969,-1.7949,-1.7939,-1.7939,-1.79,-1.7803,-1.7861,-1.7861,-1.7891,-1.7949,-1.7939,-1.7944,-1.792,-1.7715,-1.7402,-1.7386,-1.6781,-1.6007,-1.5371,-1.5284,-1.4963,-1.4634,-1.418,-1.3884,-1.314,-1.276,-1.2401,-1.1571,-1.1048,-1.0673,-1.0693,-1.0626,-1.0586,-1.0586,-1.0586,-1.0586,-1.0586,-1.0586,-1.0586,-1.0586,-1.0586,-1.0586,-1.0586,-1.0586,-1.0586,-1.0586,-1.0586,-1.0586,-1.0586,-1.0586,-1.0491,-1.0104,-0.9786,-0.939,-0.8775,-0.7842,-0.7086,-0.6288,-0.5624,-0.5462,-0.5395,-0.5405,-0.5433,-0.5402,-0.5495,-0.5642,-0.5796,-0.5832,-0.5796,-0.5827,-0.5915,-0.5959,-0.5976,-0.5969,-0.5959,-0.5908,-0.5905,-0.5979,-0.6047,-0.6136,-0.618,-0.6166,-0.6173,-0.6286,-0.6257,-0.598,-0.5509,-0.4606,-0.3554,-0.2618,-0.1994,0.0,0.0,0.0,0.0,0.0,0.0,0.0,0.0,0.0,0.0,0.0,0.0,0.0,0.0,0.0,0.0,0.0,0.0,0.0,0.0,0.0,0.0,-1.8008,-1.8008,-1.8008,-1.8008,-1.8008,-1.8008,-1.8008,-1.8008,-1.8008,-1.8008,-1.8008,-1.8008,-1.8008,-1.8008,-1.8008,-1.7939,-1.7773,-1.7773,-1.7307,-1.6939,-1.6428,-1.5904,-1.5368,-1.4511,-1.404,-1.3506,-1.295,-1.2308,-1.1812,-1.1627,-1.1424,-1.1102,-1.0968,-1.074,-1.066,-1.06,-1.0586,-1.0586,-1.0586,-1.0586,-1.0586,-1.0586,-1.0586,-1.0586,-1.0586,-1.0586,-1.0586,-1.0586,-1.0586,-1.06,-1.0606,-1.0613,-1.0588,-1.0168,-0.9951,-0.9701,-0.9083,-0.8358,-0.755,-0.6714,-0.6013,-0.5462,-0.5399,-0.5436,-0.5515,-0.5463,-0.5528,-0.5717,-0.5961,-0.6049,-0.593,-0.6038,-0.6163,-0.618,-0.6135,-0.6112,-0.6084,-0.6037,-0.6037,-0.6119,-0.617,-0.6238,-0.6265,-0.6286,-0.6286,-0.63,-0.6257,-0.6141,-0.5747,-0.5392,-0.4416,-0.3558,-0.2971,-0.2192,-0.1254,0.0,0.0,0.0,0.0,0.0,0.0,0.0,0.0,0.0,0.0,0.0,0.0,0.0,0.0,0.0,0.0,0.0,0.0,0.0,0.0,-1.8008,-1.8008,-1.8008,-1.8008,-1.8008,-1.8008,-1.8008,-1.8008,-1.8008,-1.8008,-1.8008,-1.8008,-1.8008,-1.8008,-1.8008,-1.8008,-1.7969,-1.7935,-1.7765,-1.7195,-1.6504,-1.6105,-1.5415,-1.452,-1.3351,-1.2997,-1.274,-1.2207,-1.1849,-1.169,-1.1623,-1.1516,-1.1343,-1.1122,-1.0774,-1.0633,-1.0593,-1.0586,-1.0586,-1.0586,-1.0586,-1.0586,-1.0586,-1.0586,-1.0586,-1.0673,-1.072,-1.0767,-1.0754,-1.0754,-1.0747,-1.0734,-1.0631,-1.0509,-1.0406,-1.0153,-0.9673,-0.8947,-0.8262,-0.7124,-0.6225,-0.5631,-0.5556,-0.5572,-0.5589,-0.5586,-0.5668,-0.5834,-0.6088,-0.6219,-0.6099,-0.6185,-0.6252,-0.6252,-0.6255,-0.6238,-0.6242,-0.6218,-0.6235,-0.6262,-0.6289,-0.6282,-0.6289,-0.63,-0.63,-0.63,-0.6257,-0.6257,-0.6141,-0.5825,-0.5434,-0.4688,-0.4062,-0.3205,0.0,0.0,0.0,0.0,0.0,0.0,0.0,0.0,0.0,0.0,0.0,0.0,0.0,0.0,0.0,0.0,0.0,0.0,0.0,0.0,0.0,-1.8008,-1.8008,-1.8008,-1.8008,-1.8008,-1.8008,-1.8008,-1.8008,-1.8008,-1.8008,-1.8008,-1.8008,-1.8008,-1.8008,-1.8008,-1.8008,-1.8008,-1.7974,-1.7681,-1.6966,-1.6009,-1.4914,-1.4047,-1.3288,-1.2738,-1.2425,-1.2324,-1.2306,-1.2198,-1.2131,-1.2037,-1.1897,-1.1759,-1.1511,-1.1002,-1.0747,-1.0613,-1.0606,-1.0653,-1.068,-1.0707,-1.072,-1.0727,-1.0734,-1.074,-1.0861,-1.0942,-1.0989,-1.0982,-1.0982,-1.0989,-1.0989,-1.0949,-1.0381,-1.0202,-1.0244,-0.9547,-0.9026,-0.8669,-0.6915,-0.6129,-0.5799,-0.5691,-0.5745,-0.5779,-0.5776,-0.5825,-0.5988,-0.6184,-0.6279,-0.6257,-0.63,-0.63,-0.63,-0.63,-0.63,-0.63,-0.63,-0.63,-0.63,-0.63,-0.6296,-0.6296,-0.63,-0.63,-0.63,-0.63,-0.63,-0.63,-0.618,-0.5867,-0.5589,-0.4921,-0.4217,-0.3166,-0.137,0.0,-0.0941,0.0,0.0,0.0,0.0,0.0,0.0,0.0,0.0,0.0,0.0,0.0,0.0,0.0,0.0,0.0,0.0,0.0,-1.8008,-1.8008,-1.8008,-1.8008,-1.8008,-1.8008,-1.8008,-1.8008,-1.8008,-1.8008,-1.8008,-1.8008,-1.8008,-1.8008,-1.8008,-1.8008,-1.8008,-1.8008,-1.7647,-1.7398,-1.5939,-1.5234,-1.4271,-1.3164,-1.2342,-1.2305,-1.2305,-1.2305,-1.2278,-1.2305,-1.2278,-1.2151,-1.1993,-1.1698,-1.1363,-1.1162,-1.1142,-1.1142,-1.1142,-1.1142,-1.1129,-1.1109,-1.1102,-1.1089,-1.1082,-1.1149,-1.1263,-1.1283,-1.1283,-1.1283,-1.1283,-1.1249,-1.1283,-1.0795,-1.0853,-1.0949,-1.0494,-0.9927,-0.9042,-0.764,-0.6718,-0.6219,-0.5833,-0.5878,-0.5928,-0.5847,-0.5955,-0.6122,-0.6242,-0.63,-0.63,-0.63,-0.63,-0.63,-0.63,-0.63,-0.63,-0.63,-0.63,-0.63,-0.63,-0.63,-0.63,-0.63,-0.63,-0.63,-0.63,-0.63,-0.63,-0.63,-0.6141,-0.6103,-0.5705,-0.5118,-0.41,-0.2813,-0.1566,-0.1488,0.0,0.0,0.0,0.0,0.0,0.0,0.0,0.0,0.0,0.0,0.0,0.0,0.0,0.0,0.0,0.0,0.0,-1.8008,-1.8008,-1.8008,-1.8008,-1.8008,-1.8008,-1.8008,-1.8008,-1.8008,-1.8008,-1.8008,-1.8008,-1.8008,-1.8008,-1.8008,-1.8008,-1.8008,-1.8008,-1.8008,-1.7725,-1.6044,-1.534,-1.4557,-1.3375,-1.2452,-1.2305,-1.2305,-1.2305,-1.2305,-1.2305,-1.2291,-1.2238,-1.2111,-1.1964,-1.1724,-1.1577,-1.1383,-1.1363,-1.1349,-1.1363,-1.1376,-1.139,-1.1396,-1.139,-1.1403,-1.1415,-1.1509,-1.1577,-1.1577,-1.1577,-1.1549,-1.1542,-1.1577,-1.1583,-1.1595,-1.1648,-1.1567,-1.0898,-0.9805,-0.8749,-0.7759,-0.6748,-0.6254,-0.6047,-0.6081,-0.6037,-0.6126,-0.6224,-0.6289,-0.63,-0.63,-0.63,-0.63,-0.63,-0.63,-0.63,-0.63,-0.63,-0.63,-0.63,-0.63,-0.63,-0.63,-0.63,-0.63,-0.63,-0.63,-0.63,-0.63,-0.63,-0.63,-0.6257,-0.6257,-0.5747,-0.5315,-0.4805,-0.3556,-0.2308,0.0,0.0,0.0,0.0,0.0,0.0,0.0,0.0,0.0,0.0,0.0,0.0,0.0,0.0,0.0,0.0,0.0,-1.8008,-1.8008,-1.8008,-1.8008,-1.8008,-1.8008,-1.8008,-1.8008,-1.8008,-1.8008,-1.8008,-1.8008,-1.8008,-1.8008,-1.8008,-1.8008,-1.8008,-1.8008,-1.8008,-1.7476,-1.6044,-1.5517,-1.4557,-1.331,-1.2482,-1.2305,-1.2305,-1.2305,-1.2305,-1.2305,-1.2305,-1.2305,-1.2258,-1.2184,-1.2024,-1.183,-1.1617,-1.1623,-1.163,-1.1643,-1.1615,-1.1542,-1.1575,-1.1582,-1.1623,-1.1717,-1.181,-1.1877,-1.1877,-1.1877,-1.1884,-1.1913,-1.1913,-1.1884,-1.2064,-1.2191,-1.2238,-1.1556,-1.0625,-0.9621,-0.8642,-0.7492,-0.6698,-0.6437,-0.6269,-0.619,-0.6248,-0.6265,-0.63,-0.63,-0.63,-0.63,-0.63,-0.63,-0.63,-0.63,-0.63,-0.63,-0.63,-0.63,-0.63,-0.63,-0.63,-0.63,-0.6317,-0.63,-0.63,-0.63,-0.63,-0.63,-0.63,-0.63,-0.6257,-0.6296,-0.5944,-0.5431,-0.4727,-0.3205,-0.1956,0.0,0.0,0.0,0.0,0.0,0.0,0.0,0.0,0.0,0.0,0.0,0.0,0.0,0.0,0.0,0.0,-1.8008,-1.8008,-1.8008,-1.8008,-1.8008,-1.8008,-1.8008,-1.8008,-1.8008,-1.8008,-1.8008,-1.8008,-1.8008,-1.8008,-1.8008,-1.8008,-1.8008,-1.8008,-1.8008,-1.726,-1.6088,-1.5482,-1.4522,-1.3346,-1.2519,-1.2305,-1.2305,-1.2305,-1.2305,-1.2305,-1.2305,-1.2305,-1.2305,-1.2305,-1.2245,-1.2124,-1.2037,-1.1984,-1.1971,-1.1971,-1.1948,-1.1935,-1.1941,-1.1971,-1.1971,-1.2058,-1.2104,-1.2144,-1.2144,-1.2158,-1.2171,-1.2178,-1.2178,-1.2178,-1.2258,-1.2278,-1.2218,-1.1835,-1.0864,-0.9857,-0.8884,-0.7859,-0.6872,-0.6412,-0.6296,-0.63,-0.63,-0.63,-0.63,-0.63,-0.63,-0.63,-0.63,-0.63,-0.63,-0.63,-0.63,-0.63,-0.63,-0.63,-0.63,-0.6327,-0.6323,-0.6337,-0.6351,-0.6317,-0.6313,-0.6298,-0.6313,-0.6317,-0.63,-0.63,-0.63,-0.63,-0.5864,-0.5392,-0.4882,-0.41,-0.2942,-0.1852,0.0,0.0,0.0,0.0,0.0,0.0,0.0,0.0,0.0,0.0,0.0,0.0,0.0,0.0,0.0,-1.8008,-1.8008,-1.8008,-1.8008,-1.8008,-1.8008,-1.8008,-1.8008,-1.8008,-1.8008,-1.8008,-1.8008,-1.8008,-1.8008,-1.8008,-1.8008,-1.8008,-1.8008,-1.8008,-1.7545,-1.6009,-1.5482,-1.4522,-1.3346,-1.2489,-1.2305,-1.2305,-1.2305,-1.2305,-1.2305,-1.2305,-1.2305,-1.2305,-1.2305,-1.2285,-1.2265,-1.2278,-1.2265,-1.2278,-1.2305,-1.2305,-1.2305,-1.2305,-1.2305,-1.2305,-1.2305,-1.2305,-1.2305,-1.2305,-1.2305,-1.2305,-1.2305,-1.2298,-1.2298,-1.2298,-1.2305,-1.2268,-1.1774,-1.0864,-0.9857,-0.8879,-0.7859,-0.6872,-0.6412,-0.63,-0.63,-0.63,-0.63,-0.63,-0.63,-0.63,-0.63,-0.63,-0.63,-0.63,-0.63,-0.63,-0.63,-0.63,-0.63,-0.6323,-0.6361,-0.6378,-0.6395,-0.6438,-0.646,-0.6493,-0.6488,-0.6441,-0.6371,-0.633,-0.63,-0.63,-0.6257,-0.5837,-0.5593,-0.5252,-0.4838,-0.4152,-0.3084,-0.2122,0.0,0.0,0.0,0.0,0.0,0.0,0.0,0.0,0.0,0.0,0.0,0.0,0.0,0.0,-1.8008,-1.8008,-1.8008,-1.8008,-1.8008,-1.8008,-1.794,-1.7906,-1.7794,-1.793,-1.7974,-1.8008,-1.8008,-1.7974,-1.7828,-1.7725,-1.7579,-1.7467,-1.726,-1.7647,-1.5728,-1.4879,-1.4343,-1.3302,-1.2445,-1.2305,-1.2305,-1.2305,-1.2305,-1.2305,-1.2305,-1.2305,-1.2305,-1.2305,-1.2305,-1.2305,-1.2305,-1.2305,-1.2305,-1.2305,-1.2305,-1.2305,-1.2305,-1.2305,-1.2305,-1.2305,-1.2305,-1.2305,-1.2305,-1.2305,-1.2305,-1.2305,-1.2305,-1.204,-1.2077,-1.1892,-1.1737,-1.1211,-1.0415,-0.948,-0.8689,-0.7783,-0.6911,-0.6451,-0.63,-0.63,-0.63,-0.63,-0.63,-0.63,-0.63,-0.63,-0.63,-0.63,-0.63,-0.63,-0.63,-0.63,-0.63,-0.632,-0.6388,-0.6469,-0.6548,-0.6535,-0.6556,-0.6645,-0.6643,-0.6647,-0.6603,-0.6474,-0.6453,-0.6395,-0.6416,-0.6439,-0.6354,-0.6059,-0.5821,-0.5445,-0.492,-0.3885,-0.2624,-0.1982,0.0,0.0,0.0,0.0,0.0,0.0,0.0,0.0,0.0,0.0,0.0,0.0,0.0,-1.8008,-1.8008,-1.8008,-1.8008,-1.8008,-1.8008,-1.7569,-1.6957,-1.6922,-1.732,-1.7896,-1.794,-1.7906,-1.7725,-1.7148,-1.6932,-1.6853,-1.6472,-1.5983,-1.5728,-1.47,-1.4314,-1.3962,-1.2981,-1.2378,-1.2305,-1.2305,-1.2305,-1.2305,-1.2305,-1.2305,-1.2305,-1.2305,-1.2305,-1.2305,-1.2305,-1.2305,-1.2305,-1.2305,-1.2305,-1.2305,-1.2305,-1.2305,-1.2305,-1.2305,-1.2305,-1.2305,-1.2305,-1.2305,-1.2305,-1.2305,-1.2305,-1.2305,-1.162,-1.1242,-1.1093,-1.0795,-1.0421,-0.975,-0.9031,-0.8275,-0.7668,-0.6945,-0.6528,-0.63,-0.63,-0.63,-0.63,-0.6317,-0.632,-0.6317,-0.6317,-0.6327,-0.6323,-0.6323,-0.6323,-0.6323,-0.6317,-0.6317,-0.6361,-0.6436,-0.6545,-0.6675,-0.6695,-0.6677,-0.6701,-0.6704,-0.6719,-0.6709,-0.665,-0.6664,-0.6617,-0.66,-0.6603,-0.6607,-0.6509,-0.6269,-0.6015,-0.5608,-0.4426,-0.3106,-0.2112,0.0,0.0,0.0,0.0,0.0,0.0,0.0,0.0,0.0,0.0,0.0,0.0,0.0,-1.8008,-1.8008,-1.8008,-1.8008,-1.794,-1.7569,-1.707,-1.6602,-1.6175,-1.6254,-1.6689,-1.6759,-1.6759,-1.6768,-1.6184,-1.5965,-1.5904,-1.5517,-1.5446,-1.4985,-1.4207,-1.389,-1.331,-1.2732,-1.2452,-1.2305,-1.2305,-1.2305,-1.2305,-1.2305,-1.2305,-1.2305,-1.2305,-1.2305,-1.2305,-1.2305,-1.2305,-1.2305,-1.2311,-1.2325,-1.2318,-1.2311,-1.2305,-1.2305,-1.2305,-1.2305,-1.2305,-1.2305,-1.2305,-1.2305,-1.2305,-1.2305,-1.2231,-1.1922,-1.1583,-1.1465,-1.1093,-1.0239,-0.941,-0.8694,-0.7936,-0.7288,-0.6799,-0.6303,-0.63,-0.63,-0.63,-0.6317,-0.6471,-0.6502,-0.6484,-0.647,-0.6525,-0.6549,-0.6508,-0.6512,-0.6525,-0.6501,-0.6416,-0.632,-0.6501,-0.6746,-0.6807,-0.6817,-0.6839,-0.6916,-0.6887,-0.6873,-0.6889,-0.6849,-0.6829,-0.6844,-0.6803,-0.6732,-0.6654,-0.6661,-0.6609,-0.6399,-0.6201,-0.4794,-0.3363,-0.1946,0.0,0.0,0.0,0.0,0.0,0.0,0.0,0.0,0.0,0.0,0.0,0.0,0.0,-1.793,-1.7828,-1.7794,-1.7725,-1.7545,-1.6784,-1.6315,-1.6035,-1.534,-1.4906,-1.4807,-1.4843,-1.4914,-1.5163,-1.5021,-1.5021,-1.4843,-1.445,-1.4593,-1.4378,-1.3774,-1.3382,-1.3062,-1.2703,-1.2415,-1.2305,-1.2305,-1.2305,-1.2305,-1.2305,-1.2305,-1.2305,-1.2305,-1.2305,-1.2305,-1.2305,-1.2305,-1.2331,-1.2351,-1.2385,-1.2358,-1.2318,-1.2311,-1.2305,-1.2305,-1.2305,-1.2305,-1.2305,-1.2305,-1.2305,-1.2305,-1.2305,-1.212,-1.1922,-1.2033,-1.1842,-1.1285,-1.0308,-0.9372,-0.8803,-0.7783,-0.6911,-0.65,-0.6327,-0.6334,-0.632,-0.632,-0.6436,-0.6586,-0.6668,-0.661,-0.659,-0.6651,-0.6685,-0.6688,-0.6688,-0.6654,-0.6672,-0.6542,-0.6399,-0.661,-0.6886,-0.6933,-0.694,-0.6987,-0.7068,-0.7095,-0.7095,-0.7071,-0.7014,-0.6974,-0.694,-0.6943,-0.6858,-0.679,-0.68,-0.6854,-0.681,-0.6436,-0.5046,-0.3622,-0.2335,-0.1281,0.0,0.0,0.0,0.0,0.0,0.0,0.0,0.0,0.0,0.0,0.0,0.0,-1.7569,-1.6888,-1.6888,-1.6472,-1.5834,-1.5552,-1.5021,-1.4307,-1.4099,-1.36,-1.3164,-1.3055,-1.3593,-1.5128,-1.4271,-1.3991,-1.3882,-1.3484,-1.2981,-1.2696,-1.2879,-1.2703,-1.2654,-1.2675,-1.2375,-1.2365,-1.2405,-1.2331,-1.2478,-1.2412,-1.2331,-1.2365,-1.2351,-1.2345,-1.2331,-1.2351,-1.2405,-1.2458,-1.2616,-1.2703,-1.2585,-1.2505,-1.2325,-1.2305,-1.2305,-1.2305,-1.2305,-1.2305,-1.2305,-1.2305,-1.2305,-1.2305,-1.2114,-1.1848,-1.1842,-1.1922,-1.1397,-1.0158,-0.9253,-0.8722,-0.7744,-0.6843,-0.6535,-0.6474,-0.6453,-0.6399,-0.6443,-0.6545,-0.6661,-0.6711,-0.6729,-0.6712,-0.6746,-0.6746,-0.6749,-0.6749,-0.6732,-0.6759,-0.6732,-0.6732,-0.6854,-0.698,-0.7038,-0.7041,-0.7041,-0.7095,-0.7095,-0.7095,-0.7095,-0.7095,-0.7095,-0.7055,-0.7054,-0.7041,-0.7058,-0.7007,-0.6991,-0.7031,-0.6819,-0.5717,-0.444,-0.2853,-0.188,-0.1168,0.0,0.0,0.0,0.0,0.0,0.0,0.0,0.0,0.0,0.0,0.0]},{"header":{"parameterUnit":"m.s-1","parameterCategory":1,"la1":31.0,"la2":29.5877,"lo1":-88.7671,"lo2":-86.6584,"dy":0.0162,"dx":0.0185,"nx":115,"ny":88,"refTime":"2024-09-19T12:00:00:Z","depth":0,"parameterNumber":3,"parameterNumberName":"V-component_of_WINDS"},"data":[0.0,0.0,0.0,0.0,0.0,0.0,0.0,0.0,0.0,0.0,0.0,0.0,0.0,0.0,0.0,0.0,0.0,0.0,0.0,0.0,0.0,0.0,0.0,0.0,0.0,0.0,0.0,0.0,0.0,0.0,0.0,0.0,0.0,0.0,0.0,0.0,0.0,0.0,0.0,0.0,0.0,0.0,0.0,0.0,0.0,0.0,0.0,0.0,0.0,0.0,0.0,0.0,0.0,0.0,0.0,0.0,0.0,0.0,0.0,0.0,0.0,0.0,0.0,0.0,0.0,0.0,0.0,0.0,0.0,0.0,0.0,0.0,0.0,0.0,0.0,0.0,0.0,0.0,0.0,0.0,0.0,0.0,0.0,0.0,0.0,0.0,0.0,0.0,0.0,0.0,0.0,0.0,0.0,0.0,0.0,0.0,0.0,0.0,0.0,0.0,0.0,0.0,0.0,0.0,0.0,0.0,0.0,0.0,0.0,0.0,0.0,0.0,0.0,0.0,0.0,0.0,0.0,0.0,0.0,0.0,0.0,0.0,0.0,0.0,0.0,0.0,0.0,0.0,0.0,0.0,0.0,0.0,0.0,0.0,0.0,0.0,0.0,0.0,0.0,0.0,0.0,0.0,0.0,0.0,0.0,0.0,0.0,0.0,0.0,0.0,0.0,0.0,0.0,0.0,0.0,0.0,0.0,0.0,0.0,0.0,0.0,0.0,0.0,0.0,0.0,0.0,0.0,0.0,0.0,0.0,0.0,0.0,0.0,0.0,0.0,0.0,0.0,0.0,0.0,0.0,0.0,0.0,0.0,0.0,0.0,0.0,0.0,0.0,0.0,0.0,0.0,0.0,0.0,0.0,0.0,0.0,0.0,0.0,0.0,0.0,0.0,0.0,0.0,0.0,0.0,0.0,0.0,0.0,0.0,0.0,0.0,0.0,0.0,0.0,0.0,0.0,0.0,0.0,0.0,0.0,0.0,0.0,0.0,0.0,0.0,0.0,0.0,0.0,0.0,0.0,0.0,0.0,0.0,0.0,0.0,0.0,0.0,0.0,0.0,0.0,0.0,0.0,0.0,0.0,0.0,0.0,0.0,0.0,0.0,0.0,0.0,0.0,0.0,0.0,0.0,0.0,0.0,0.0,0.0,0.0,0.0,0.0,0.0,0.0,0.0,0.0,0.0,0.0,0.0,0.0,0.0,0.0,0.0,0.0,0.0,0.0,0.0,0.0,0.0,0.0,0.0,0.0,0.0,0.0,0.0,0.0,0.0,0.0,0.0,0.0,0.0,0.0,0.0,0.0,0.0,0.0,0.0,0.0,0.0,0.0,0.0,0.0,0.0,0.0,0.0,0.0,0.0,0.0,0.0,0.0,0.0,0.0,0.0,0.0,0.0,0.0,0.0,0.0,0.0,0.0,0.0,0.0,0.0,0.0,0.0,0.0,0.0,0.0,0.0,0.0,0.0,0.0,0.0,0.0,0.0,0.0,0.0,0.0,0.0,0.0,0.0,0.0,0.0,0.0,0.0,0.0,0.0,0.0,0.0,0.0,0.0,0.0,0.0,0.0,0.0,0.0,0.0,0.0,0.0,0.0,0.0,0.0,0.0,0.0,0.0,0.0,0.0,0.0,0.0,0.0,0.0,0.0,0.0,0.0,0.0,0.0,0.0,0.0,0.0,0.0,0.0,0.0,0.0,0.0,0.0,0.0,0.0,0.0,0.0,0.0,0.0,0.0,0.0,0.0,0.0,0.0,0.0,0.0,0.0,0.0,0.0,0.0,0.0,0.0,0.0,0.0,0.0,0.0,0.0,0.0,0.0,0.0,0.0,0.0,0.0,0.0,0.0,0.0,0.0,0.0,0.0,0.0,0.0,0.0,0.0,0.0,0.0,0.0,0.0,0.0,0.0,0.0,0.0,0.0,0.0,0.0,0.0,0.0,0.0,0.0,0.0,0.0,0.0,0.0,0.0,0.0,0.0,0.0,0.0,0.0,0.0,0.0,0.0,0.0,0.0,0.0,0.0,0.0,0.0,0.0,0.0,0.0,0.0,0.0,0.0,0.0,0.0,0.0,0.0,0.0,0.0,0.0,0.0,0.0,0.0,0.0,0.0,0.0,0.0,0.0,0.0,0.0,0.0,0.0,0.0,0.0,0.0,0.0,0.0,0.0,0.0,0.0,0.0,0.0,0.0,0.0,0.0,0.0,0.0,0.0,0.0,0.0,0.0,0.0,0.0,0.0,0.0,0.0,0.0,0.0,0.0,0.0,0.0,0.0,0.0,0.0,0.0,0.0,0.0,0.0,0.0,0.0,0.0,0.0,0.0,0.0,0.0,0.0,0.0,0.0,0.0,0.0,0.0,0.0,0.0,0.0,0.0,0.0,0.0,0.0,0.0,0.0,0.0,0.0,0.0,0.0,0.0,0.0,0.0,0.0,0.0,0.0,0.0,0.0,0.0,0.0,0.0,0.0,0.0,0.0,0.0,0.0,0.0,0.0,0.0,0.0,0.0,0.0,0.0,0.0,0.0,0.0,0.0,0.0,0.0,0.0,0.0,0.0,0.0,0.0,0.0,0.0,0.0,0.0,0.0,0.0,0.0,0.0,0.0,0.0,0.0,0.0,0.0,0.0,0.0,0.0,0.0,0.0,0.0,0.0,0.0,0.0,0.0,0.0,0.0,0.0,0.0,0.0,0.0,0.0,0.0,0.0,0.0,0.0,0.0,0.0,0.0,0.0,0.0,0.0,0.0,0.0,0.0,0.0,0.0,0.0,0.0,0.0,0.0,0.0,0.0,0.0,0.0,0.0,0.0,0.0,0.0,0.0,0.0,0.0,0.0,0.0,0.0,0.0,0.0,0.0,0.0,0.0,0.0,0.0,0.0,0.0,0.0,0.0,0.0,0.0,0.0,0.0,0.0,0.0,0.0,0.0,0.0,0.0,0.0,0.0,0.0,0.0,0.0,0.0,0.0,0.0,0.0,0.0,0.0,0.0,0.0,0.0,0.0,0.0,0.0,0.0,0.0,0.0,0.0,0.0,0.0,0.0,0.0,0.0,0.0,0.0,0.0,0.0,0.0,0.0,0.0,0.0,0.0,0.0,0.0,0.0,0.0,0.0,0.0,0.0,0.0,0.0,0.0,0.0,0.0,0.0,0.0,0.0,0.0,0.0,0.0,0.0,0.0,0.0,0.0,0.0,0.0,0.0,0.0,0.0,0.0,0.0,0.0,0.0,0.0,0.0,0.0,0.0,0.0,0.0,0.0,0.0,0.0,0.0,0.0,0.0,0.0,0.0,0.0,0.0,0.0,0.0,0.0,0.0,0.0,0.0,0.0,0.0,0.0,0.0,0.0,0.0,0.0,0.0,0.0,0.0,0.0,0.0,0.0,0.0,0.0,0.0,0.0,0.0,0.0,0.0,0.0,0.0,0.0,0.0,0.0,0.0,0.0,0.0,0.0,0.0,0.0,0.0,0.0,0.0,0.0,0.0,0.0,0.0,0.0,0.0,0.0,0.0,0.0,0.0,0.0,0.0,0.0,0.0,0.0,0.0,0.0,0.0,0.0,0.0,0.0,0.0,0.0,0.0,0.0,0.0,0.0,0.0,0.0,0.0,0.0,0.0,0.0,0.0,0.0,0.0,0.0,0.0,0.0,0.0,0.0,0.0,0.0,0.0,0.0,0.0,0.0,0.0,0.0,0.0,0.0,0.0,0.0,0.0,0.0,0.0,0.0,0.0,0.0,0.0,0.0,0.0,0.0,0.0,0.0,0.0,0.0,0.0,0.0,0.0,0.0,0.0,0.0,0.0,0.0,0.0,0.0,0.0,0.0,0.0,0.0,0.0,0.0,0.0,0.0,0.0,0.0,0.0,0.0,0.0,0.0,0.0,0.0,0.0,0.0,0.0,0.0,0.0,0.0,0.0,0.0,0.0,0.0,0.0,0.0,0.0,0.0,0.0,0.0,0.0,0.0,0.0,0.0,0.0,0.0,0.0,0.0,0.0,0.0,0.0,0.0,0.0,0.0,0.0,0.0,0.0,0.0,0.0,0.0,0.0,0.0,0.0,0.0,0.0,0.0,0.0,0.0,0.0,0.0,0.0,0.0,0.0,0.0,0.0,0.0,0.0,0.0,0.0,0.0,0.0,0.0,0.0,0.0,0.0,0.0,0.0,0.0,0.0,0.0,0.0,0.0,0.0,0.0,0.0,0.0,0.0,0.0,0.0,0.0,0.0,0.0,0.0,0.0,0.0,0.0,0.0,0.0,0.0,0.0,0.0,0.2583,0.0,0.0,0.0,0.0,0.0,0.0,0.0,0.0,0.0,0.0,0.0,0.0,0.0,0.0,0.0,0.0,0.0,0.0,0.0,0.0,0.0,0.0,0.0,0.0,0.0,0.0,0.0,0.0,0.0,0.0,0.0,0.0,0.0,0.0,0.0,0.0,0.0,0.0,0.0,0.0,0.0,0.0,0.0,0.0,0.0,0.0,0.0,0.0,0.0,0.0,0.0,0.0,0.0,0.0,0.0,0.0,0.0,0.0,0.0,0.0,0.0,0.0,0.0,0.0,0.0,0.0,0.0,0.0,0.0,0.0,0.0,0.0,0.0,0.0,0.0,0.0,0.0,0.0,0.0,0.0,0.0,0.0,0.0,0.0,0.0,0.0,0.0,0.0,0.0,0.0,0.0,0.0,0.0,0.0,0.0,0.0,0.0,0.0,0.0,0.0,0.0,0.0,0.0,0.0,0.0,0.0,0.0,0.0,0.0,0.0,0.2914,0.3076,0.2778,0.2519,0.2397,0.0,0.0,0.0,0.0,0.0,0.0,0.0,0.0,0.0,0.0,0.0,0.0,0.0,0.0,0.0,0.0,0.0,0.0,0.0,0.0,0.0,0.0,0.0,0.0,0.0,0.0,0.0,0.0,0.0,0.0,0.0,0.0,0.0,0.0,0.0,0.0,0.0,0.0,0.0,0.0,0.0,0.0,0.0,0.0,0.0,0.0,0.0,0.0,0.0,0.0,0.0,0.0,0.0,0.0,0.0,0.0,0.0,0.0,0.0,0.0,0.0,0.0,0.0,0.0,0.0,0.0,0.0,0.0,0.0,0.0,0.0,0.0,0.0,0.0,0.0,0.0,0.0,0.0,0.0,0.0,0.0,0.0,0.0,0.0,0.0,0.0,0.0,0.0,0.0,0.0,0.0,0.0,0.0,0.0,0.0,0.0,0.0,0.0,0.0,0.0,0.0,0.0,0.0,0.0,0.0,0.0,0.0,0.0,0.0,0.0,0.0,0.0,0.2772,0.2508,0.2304,0.0,0.0,0.0,0.0,0.0,0.0,0.0,0.0,0.0,0.0,0.0,0.0,0.0,0.0,0.0,0.0,0.0,0.0,0.0,0.0,0.0,0.0,0.0,0.0,0.0,0.0,0.0,0.0,0.0,0.0,0.0,0.0,0.0,0.0,0.0,0.0,0.0,0.0,0.0,0.0,0.0,0.0,0.0,0.0,0.0,0.0,0.0,0.0,0.0,0.0,0.0,0.0,0.0,0.0,0.0,0.0,0.0,0.0,0.0,0.0,0.0,0.0,0.0,0.0,0.0,0.0,0.0,0.0,0.0,0.0,0.0,0.0,0.0,0.0,0.0,0.0,0.0,0.0,0.0,0.0,0.0,0.0,0.0,0.0,0.0,0.0,0.0,0.0,0.0,0.0,0.0,0.0,0.0,0.0,0.0,0.0,0.0,0.0,0.0,0.0,0.0,0.0,0.0,0.0,0.0,0.0,0.0,0.0,0.0,0.0,0.2768,0.307,0.278,0.0,0.2571,0.0,0.0,0.0,0.0,0.0,0.0,0.0,0.0,0.0,0.0,0.0,0.0,0.0,0.0,0.0,0.0,0.0,0.0,0.0,0.0,0.0,0.0,0.0,0.0,0.0,0.0,0.0,0.0,0.0,0.0,0.0,0.0,0.0,0.0,0.0,0.0,0.0,0.0,0.0,0.0,0.0,0.0,0.0,0.0,0.0,0.0,0.0,0.0,0.0,0.0,0.0,0.0,0.0,0.0,0.0,0.0,0.0,0.0,0.0,0.0,0.0,0.0,0.0,0.0,0.0,0.0,0.0,0.0,0.0,0.0,0.0,0.0,0.0,0.0,0.0,0.0,0.0,0.0,0.0,0.0,0.0,0.0,0.0,0.0,0.0,0.0,0.0,0.0,0.0,0.0,0.0,0.0,0.0,0.0,0.0,0.0,0.0,0.0,0.0,0.0,0.0,0.0,0.0,0.0,0.0,0.0,0.0,0.0,0.0,0.0,0.29,0.3037,0.275,0.2678,0.0,0.0,0.0,0.0,0.0,0.0,0.0,0.0,0.0,0.0,0.0,0.0,0.0,0.0,0.0,0.0,0.0,0.0,0.0,0.0,0.0,0.0,0.0,0.0,0.0,0.0,0.0,0.0,0.0,0.0,0.0,0.0,0.0,0.0,0.0,0.0,0.0,0.0,0.0,0.0,0.0,0.0,0.0,0.0,0.0,0.0,0.0,0.0,0.0,0.0,0.0,0.0,0.0,0.0,0.0,0.0,0.0,0.0,0.0,0.0,0.0,0.0,0.0,0.0,0.0,0.0,0.0,0.0,0.0,0.0,0.0,0.0,0.0,0.0,0.0,0.0,0.0,0.0,0.0,0.0,0.0,0.0,0.0,0.0,0.0,0.0,0.0,0.0,0.0,0.0,0.0,0.0,0.0,0.0,0.0,0.0,0.0,0.0,0.0,0.0,0.0,0.0,0.0,0.0,0.0,0.0,0.0,0.0,0.0,0.0,0.2817,0.2938,0.3038,0.2863,0.2808,0.2892,0.0,0.0,0.0,0.0,0.0,0.0,0.0,0.0,0.0,0.0,0.0,0.0,0.0,0.0,0.0,0.0,0.0,0.0,0.0,0.0,0.0,0.0,0.0,0.0,0.0,0.0,0.0,0.0,0.0,0.0,0.0,0.0,0.0,0.0,0.0,0.0,0.0,0.0,0.0,0.0,0.0,0.0,0.0,0.0,0.0,0.0,0.0,0.0,0.0,0.0,0.0,0.0,0.0,0.0,0.0,0.0,0.0,0.0,0.0,0.0,0.0,0.0,0.0,0.0,0.0,0.0,0.0,0.0,0.0,0.0,0.0,0.0,0.0,0.0,0.0,0.0,0.0,0.0,0.0,0.0,0.0,0.0,0.0,0.0,0.0,0.0,0.0,0.0,0.0,0.0,0.0,0.0,0.0,0.0,0.0,0.0,0.0,0.0,0.0,0.0,0.0,0.0,0.0,0.0,0.0,0.0,0.0,0.0,0.293,0.2743,0.2811,0.3191,0.3183,0.2992,0.0,0.0,0.0,0.0,0.0,0.0,0.0,0.0,0.0,0.0,0.0,0.0,0.0,0.0,0.0,0.0,0.0,0.0,0.0,0.0,0.0,0.0,0.0,0.0,0.0,0.0,0.0,0.0,0.0,0.0,0.0,0.0,0.0,0.0,0.0,0.0,0.0,0.0,0.0,0.0,0.0,0.0,0.0,0.0,0.0,0.0,0.0,0.0,0.0,0.0,0.0,0.0,0.0,0.0,0.0,0.0,0.0,0.0,0.0,0.0,0.0,0.0,0.0,0.0,0.0,0.0,0.0,0.0,0.0,0.0,0.0,0.0,0.0,0.0,0.0,0.0,0.0,0.0,0.0,0.0,0.0,0.0,0.0,0.0,0.0,0.0,0.0,0.0,0.0,0.0,0.0,0.0,0.0,0.0,0.0,0.0,0.0,0.0,0.0,0.0,0.0,0.0,0.0,0.0,0.0,0.0,0.0,0.0,0.0,0.2346,0.261,0.3144,0.396,0.3329,0.3045,0.0,0.0,0.0,0.0,0.0,0.0,0.0,0.0,0.0,0.0,0.0,0.0,0.0,0.0,0.0,0.0,0.0,0.0,0.0,0.0,0.0,0.0,0.0,0.0,0.0,0.0,0.0,0.0,0.0,0.0,0.0,0.0,0.0,0.0,0.0,0.0,0.0,0.0,0.0,0.0,0.0,0.0,0.0,0.0,0.0,0.0,0.0,0.0,0.0,0.0,0.0,0.0,0.0,0.0,0.0,0.0,0.0,0.0,0.0,0.0,0.0,0.0,0.0,0.0,0.0,0.0,0.0,0.0,0.0,0.0,0.0,0.0,0.0,0.0,0.0,0.0,0.0,0.0,0.0,0.0,0.0,0.0,0.0,0.0,0.0,0.0,0.0,0.0,0.0,0.0,0.0,0.0,0.0,0.0,0.0,0.0,0.0,0.0,0.0,0.0,0.0,0.0,0.0,0.0,0.0,0.0,0.0,0.0,0.0,0.2541,0.0,0.3666,0.4232,0.3569,0.3214,0.0,0.0,0.0,0.0,0.0,0.0,0.0,0.0,0.0,0.0,0.0,0.0,0.0,0.0,0.0,0.0,0.0,0.0,0.0,0.0,0.0,0.0,0.0,0.0,0.0,0.0,0.0,0.0,0.0,0.0,0.0,0.0,0.0,0.0,0.0,0.0,0.0,0.0,0.0,0.0,0.0,0.0,0.0,0.0,0.0,0.0,0.0,0.0,0.0,0.0,0.0,0.0,0.0,0.0,0.0,0.0,0.0,0.0,0.0,0.0,0.0,0.0,0.0,0.0,0.0,0.0,0.0,0.0,0.0,0.0,0.0,0.0,0.0,0.0,0.0,0.0,0.0,0.0,0.0,0.0,0.0,0.0,0.0,0.0,0.0,0.0,0.0,0.0,0.0,0.0,0.0,0.0,0.0,0.0,0.0,0.0,0.0,0.0,0.0,0.0,0.0,0.0,0.0,0.0,0.0,0.0,0.0,0.0,0.2564,0.3639,0.4166,0.4251,0.3938,0.3887,0.3493,0.0,0.0,0.0,0.0,0.0,0.0,0.0,0.0,0.0,0.0,0.0,0.0,0.0,0.0,0.0,0.0,0.0,0.0,0.0,0.0,0.0,0.0,0.0,0.0,0.0,0.0,0.0,0.0,0.0,0.0,0.0,0.0,0.0,0.0,0.0,0.0,0.0,0.0,0.0,0.0,0.0,0.0,0.0,0.0,0.0,0.0,0.0,0.0,0.0,0.0,0.0,0.0,0.0,0.0,0.0,0.0,0.0,0.0,0.0,0.0,0.0,0.0,0.0,0.0,0.0,0.0,0.0,0.0,0.0,0.0,0.0,0.0,0.0,0.0,0.0,0.0,0.0,0.0,0.0,0.0,0.0,0.0,0.0,0.0,0.0,0.0,0.0,0.0,0.0,0.0,0.0,0.0,0.0,0.0,0.0,0.0,0.0,0.0,0.0,0.0,0.0,0.0,0.0,0.0,0.0,0.0,0.0,0.0,0.0,0.3691,0.3858,0.4198,0.4679,0.4091,0.3813,0.0,0.0,0.0,0.0,0.0,0.0,0.0,0.0,0.0,0.0,0.0,0.0,0.0,0.0,0.0,0.0,0.0,0.0,0.0,0.0,0.0,0.0,0.0,0.0,0.0,0.0,0.0,0.0,0.0,0.0,0.0,0.0,0.0,0.0,0.0,0.0,0.0,0.0,0.0,0.0,0.0,0.0,0.0,0.0,0.0,0.0,0.0,0.0,0.0,0.0,0.0,0.0,0.0,0.0,0.0,0.0,0.0,0.0,0.0,0.0,0.0,0.0,0.0,0.0,0.0,0.0,0.0,0.0,0.0,0.0,0.0,0.0,0.0,0.0,0.0,0.0,0.0,0.0,0.0,0.0,0.0,0.0,0.0,0.0,0.0,0.0,0.0,0.0,0.0,0.0,0.0,0.0,0.0,0.0,0.0,0.0,0.0,0.0,0.0,0.0,0.0,0.0,0.0,0.0,0.0,0.0,0.0,0.0,0.0,0.4812,0.4706,0.4924,0.5452,0.4808,0.4428,0.4382,0.0,0.0,0.0,0.0,0.0,0.0,0.0,0.0,0.0,0.0,0.0,0.0,0.0,0.0,0.0,0.0,0.0,0.0,0.0,0.0,0.0,0.0,0.0,0.0,0.0,0.0,0.0,0.0,0.0,0.0,0.0,0.0,0.0,0.0,0.0,0.0,0.0,0.0,0.0,0.0,0.0,0.0,0.0,0.0,0.0,0.0,0.0,0.0,0.0,0.0,0.0,0.0,0.0,0.0,0.0,0.0,0.0,0.0,0.0,0.0,0.0,0.0,0.0,0.0,0.0,0.0,0.0,0.0,0.0,0.0,0.0,0.0,0.0,0.0,0.0,0.0,0.0,0.0,0.0,0.0,0.0,0.0,0.0,0.0,0.0,0.0,0.0,0.0,0.0,0.0,0.0,0.0,0.0,0.0,0.0,0.0,0.0,0.0,0.0,0.0,0.0,0.0,0.0,0.0,0.0,0.0,0.0,0.0,0.6792,0.6594,0.6406,0.6222,0.5913,0.5313,0.0,0.0,0.0,0.0,0.0,0.0,0.0,0.0,0.0,0.0,0.0,0.0,0.0,0.0,0.0,0.0,0.0,0.0,0.0,0.0,0.0,0.0,0.0,0.0,0.0,0.0,0.0,0.0,0.0,0.0,0.0,0.0,0.0,0.0,0.0,0.0,0.0,0.0,0.0,0.0,0.0,0.0,0.0,0.0,0.0,0.0,0.0,0.0,0.0,0.0,0.0,0.0,0.0,0.0,0.0,0.0,0.0,0.0,0.0,0.0,0.0,0.0,0.0,0.0,0.0,0.0,0.0,0.0,0.0,0.0,0.0,0.0,0.0,0.0,0.0,0.0,0.0,0.0,0.0,0.0,0.0,0.0,0.0,0.0,0.0,0.0,0.0,0.0,0.0,0.0,0.0,0.0,0.0,0.0,0.0,0.0,0.0,0.0,0.0,0.0,0.0,0.0,0.0,0.0,0.0,0.0,0.0,0.0,0.0,0.8121,0.8536,0.8392,0.768,0.6864,0.6227,0.0,0.0,0.0,0.0,0.0,0.0,0.0,0.0,0.0,0.0,0.0,0.0,0.0,0.0,0.0,0.0,0.0,0.0,0.0,0.0,0.0,0.0,0.0,0.0,0.0,0.0,0.0,0.0,0.0,0.0,0.0,0.0,0.0,0.0,0.0,0.0,0.0,0.0,0.0,0.0,0.0,0.0,0.0,0.0,0.0,0.0,0.0,0.0,0.0,0.0,0.0,0.0,0.0,0.0,0.0,0.0,0.0,0.0,0.0,0.0,0.0,0.0,0.0,0.0,0.0,0.0,0.0,0.0,0.0,0.0,0.0,0.0,0.0,0.0,0.0,0.0,0.0,0.0,0.0,0.0,0.0,0.0,0.0,0.0,0.0,0.0,0.0,0.0,0.0,0.0,0.0,0.0,0.0,0.0,0.0,0.0,0.0,0.0,0.0,0.0,0.0,0.0,0.0,0.0,0.0,0.0,0.0,0.0,0.783,0.9169,1.0006,1.0196,0.965,0.8737,0.768,0.0,0.0,0.0,0.0,0.0,0.0,0.0,0.0,0.0,0.0,0.0,0.0,0.0,0.0,0.0,0.0,0.0,0.0,0.0,0.0,0.0,0.0,0.0,0.0,0.0,0.0,0.0,0.0,0.0,0.0,0.0,0.0,0.0,0.0,0.0,0.0,0.0,0.0,0.0,0.0,0.0,0.0,0.0,0.0,0.0,0.0,0.0,0.0,0.0,0.0,0.0,0.0,0.0,0.0,0.0,0.0,0.0,0.0,0.0,0.0,0.0,0.0,0.0,0.0,0.0,0.0,0.0,0.0,0.0,0.0,0.0,0.0,0.0,0.0,0.0,0.0,0.0,0.0,0.0,0.0,0.0,0.0,0.0,0.0,0.0,0.0,0.0,0.0,0.0,0.0,0.0,0.0,0.0,0.0,0.0,0.0,0.0,0.0,0.0,0.0,0.0,0.0,0.0,0.0,0.0,0.0,0.0,0.0,0.9007,1.002,1.1145,1.1724,1.165,1.0852,0.9309,0.0,0.0,0.0,0.0,0.0,0.0,0.0,0.0,0.0,0.0,0.0,0.0,0.0,0.0,0.0,0.0,0.0,0.0,0.0,0.0,0.0,0.0,0.0,0.0,0.0,0.0,0.0,0.0,0.0,0.0,0.0,0.0,0.0,0.0,0.0,0.0,0.0,0.0,0.0,0.0,0.0,0.0,0.0,0.0,0.0,0.0,0.0,0.0,0.0,0.0,0.0,0.0,0.0,0.0,0.0,0.0,0.0,0.0,0.0,0.0,0.0,0.0,0.0,0.0,0.0,0.0,0.0,0.0,0.0,0.0,0.0,0.0,0.0,0.0,0.0,0.0,0.0,0.0,0.0,0.0,0.0,0.0,0.0,0.0,0.0,0.0,0.0,0.0,0.0,0.0,0.0,0.0,0.0,0.0,0.0,0.0,0.0,0.0,0.0,0.0,0.0,0.0,0.0,0.0,0.0,0.0,0.0,0.0,0.975,1.0899,1.209,1.2551,1.2228,1.1045,0.9729,0.0,0.0,0.0,0.0,0.0,0.0,0.0,0.0,0.0,0.0,0.0,0.0,0.0,0.0,0.0,0.0,0.0,0.0,0.0,0.0,0.0,0.0,0.0,0.0,0.0,0.0,0.0,0.0,0.0,0.0,0.0,0.0,0.0,0.0,0.0,0.0,0.0,0.0,0.0,0.0,0.0,0.0,0.0,0.0,0.0,0.0,0.0,0.0,0.5285,0.0,0.0,0.0,0.0,0.0,0.0,0.0,0.0,0.0,0.0,0.0,0.0,0.0,0.0,0.0,0.0,0.0,0.0,0.0,0.0,0.0,0.0,0.0,0.0,0.0,0.0,0.0,0.0,0.0,0.0,0.0,0.0,0.0,0.0,0.0,0.0,0.0,0.0,0.0,0.0,0.0,0.0,0.0,0.0,0.0,0.0,0.0,0.0,0.0,0.0,0.0,0.0,0.0,0.0,0.0,0.0,0.0,0.0,0.0,1.0715,1.1899,1.3087,1.3615,1.3369,1.2306,1.0762,0.0,0.0,0.0,0.0,0.0,0.0,0.0,0.0,0.0,0.0,0.0,0.0,0.0,0.0,0.0,0.0,0.0,0.0,0.0,0.0,0.0,0.0,0.0,0.0,0.0,0.0,0.0,0.0,0.0,0.0,0.0,0.0,0.0,0.0,0.0,0.0,0.0,0.0,0.0,0.0,0.0,0.0,0.0,0.0,0.0,0.0,0.0,0.0,0.0,0.0,0.0,0.0,0.0,0.0,0.0,0.0,0.0,0.0,0.0,0.0,0.0,0.0,0.0,0.0,0.0,0.0,0.0,0.0,0.0,0.0,0.0,0.0,0.0,0.0,0.0,0.0,0.0,0.0,0.0,0.0,0.0,0.0,0.0,0.0,0.0,0.0,0.0,0.0,0.0,0.0,0.0,0.0,0.0,0.0,0.0,0.0,0.0,0.0,0.0,0.0,0.0,0.0,0.0,0.0,0.0,0.0,0.0,0.9933,1.1589,1.2761,1.3955,1.4564,1.4487,1.3615,1.1824,0.9107,0.0,0.0,0.0,0.0,0.0,0.0,0.0,0.0,0.0,0.0,0.0,0.0,0.0,0.0,0.0,0.0,0.0,0.0,0.0,0.0,0.0,0.0,0.0,0.0,0.0,0.0,0.0,0.0,0.0,0.0,0.0,0.0,0.0,0.0,0.0,0.0,0.0,0.0,0.3511,0.6041,0.0,0.0,0.0,0.0,0.0,0.0,0.0,0.0,0.6208,0.0,0.0,0.0,0.0,0.0,0.0,0.0,0.0,0.0,0.0,0.0,0.0,0.0,0.0,0.0,0.0,0.0,0.0,0.0,0.0,0.0,0.0,0.0,0.0,0.0,0.0,0.0,0.0,0.0,0.0,0.0,0.0,0.0,0.0,0.0,0.0,0.0,0.0,0.0,0.0,0.0,0.0,0.0,0.0,0.0,0.0,0.0,0.0,0.0,0.0,0.0,0.0,0.0,0.0,0.0,0.0,0.9528,1.0623,1.1811,1.3087,1.4355,1.4845,1.4489,1.3385,1.1991,1.034,0.0,0.0,0.0,0.0,0.0,0.0,0.0,0.0,0.0,0.0,0.0,0.0,0.0,0.0,0.0,0.0,0.0,0.0,0.0,0.0,0.0,0.0,0.0,0.0,0.0,0.0,0.0,0.0,0.0,0.0,0.0,0.0,0.0,0.0,0.0,0.0,0.0,0.0,0.0,0.6553,0.847,0.0,0.0,0.0,0.0,0.0,0.0,0.0,0.0,0.6509,0.0,0.0,0.0,0.0,0.0,0.0,0.0,0.0,0.0,0.0,0.0,0.0,0.0,0.0,0.0,0.0,0.0,0.0,0.0,0.0,0.0,0.0,0.0,0.0,0.0,0.0,0.0,0.0,0.0,0.0,0.0,0.0,0.0,0.0,0.0,0.0,0.0,0.0,0.0,0.0,0.0,0.0,0.0,0.0,0.0,0.0,0.0,0.0,0.0,0.0,0.0,0.0,0.0,0.0,0.0,0.9381,1.1317,1.2692,1.3513,1.4787,1.5213,1.4645,1.342,1.2005,0.0,0.0,0.0,0.0,0.0,0.0,0.0,0.0,0.0,0.0,0.0,0.0,0.0,0.0,0.0,0.0,0.0,0.0,0.0,0.0,0.0,0.0,0.0,0.0,0.0,0.0,0.0,0.0,0.0,0.0,0.0,0.0,0.0,0.0,0.0,0.0,0.0,0.0,0.0,0.0,0.8583,0.952,0.9102,0.0,0.0,0.0,0.0,0.0,0.0,0.7827,0.7485,0.0,0.0,0.0,0.0,0.0,0.0,0.0,0.0,0.0,0.0,0.0,0.0,0.0,0.0,0.0,0.0,0.0,0.0,0.0,0.0,0.0,0.0,0.0,0.0,0.0,0.0,0.0,0.0,0.0,0.0,0.0,0.0,0.0,0.0,0.0,0.0,0.0,0.0,0.0,0.0,0.0,0.0,0.0,0.0,0.0,0.0,0.0,0.0,0.0,0.0,0.0,0.0,0.0,0.0,0.0,0.9134,1.1742,1.3369,1.3888,1.5071,1.539,1.4796,1.3675,1.2193,0.0,0.0,0.0,0.0,0.0,0.0,0.0,0.0,0.0,0.0,0.0,0.0,0.0,0.0,0.0,0.0,0.0,0.0,0.0,0.0,0.0,0.0,0.0,0.0,0.0,0.0,0.0,0.0,0.0,0.0,0.0,0.0,0.0,0.0,0.0,0.0,0.0,0.0,0.0,0.0,0.0,1.0569,1.0581,0.9154,0.0,0.0,0.0,0.0,0.8859,0.904,0.0,0.0,0.0,0.0,0.0,0.0,0.0,0.0,0.0,0.0,0.0,0.0,0.0,0.0,0.0,0.0,0.0,0.0,0.0,0.0,0.0,0.0,0.0,0.0,0.0,0.0,0.0,0.0,0.0,0.0,0.0,0.0,0.0,0.0,0.0,0.0,0.0,0.0,0.0,0.0,0.0,0.0,0.0,0.0,0.0,0.0,0.0,0.0,0.0,0.0,0.0,0.0,0.0,0.0,0.0,0.0,0.9754,1.1522,1.2974,1.4129,1.4886,1.5123,1.4809,1.4303,1.2921,0.0,0.0,0.0,0.0,0.0,0.0,0.0,0.0,0.0,0.0,0.0,0.0,0.0,0.0,0.0,0.0,0.0,0.0,0.0,0.0,0.0,0.0,0.0,0.0,0.0,0.0,0.0,0.0,0.0,0.0,0.0,0.0,0.0,0.0,0.0,0.0,0.0,0.0,0.0,0.0,0.0,1.1483,1.1615,1.0349,0.9574,0.0,0.0,1.0474,1.1256,1.1487,0.0,0.0,0.0,0.0,0.0,0.0,0.0,0.0,0.0,0.0,0.0,0.0,0.0,0.0,0.0,0.0,0.0,0.0,0.0,0.0,0.0,0.0,0.0,0.0,0.0,0.0,0.0,0.0,0.0,0.0,0.0,0.0,0.0,0.0,0.0,0.0,0.0,0.0,0.0,0.0,0.0,0.0,0.0,0.0,0.0,0.0,0.0,0.0,0.0,0.0,0.0,0.0,0.0,0.0,0.0,0.8453,1.0059,1.2027,1.3372,1.4026,1.4577,1.4612,1.4116,1.3595,1.2303,0.0,0.0,0.0,0.0,0.0,0.0,0.0,0.0,0.0,0.0,0.0,0.0,0.0,0.0,0.0,0.0,0.0,0.0,0.0,0.0,0.0,0.0,0.0,0.0,0.0,0.0,0.0,0.0,0.0,0.0,0.0,0.0,0.0,0.0,0.0,0.0,0.0,0.0,0.0,0.0,0.0,0.0,1.3251,1.1756,0.0,0.0,0.0,1.1543,1.2202,0.0,0.0,0.0,0.0,0.0,0.0,0.0,0.0,0.0,0.0,0.0,0.0,0.0,0.0,0.0,0.0,0.0,0.0,0.0,0.0,0.0,0.0,0.0,0.0,0.0,0.0,0.0,0.0,0.0,0.0,0.0,0.0,0.0,0.0,0.0,0.0,0.0,0.0,0.0,0.0,0.0,0.0,0.0,0.0,0.0,0.0,0.0,0.0,0.0,0.0,0.0,0.0,0.0,0.0,0.0,0.0,0.0,1.0383,1.2559,1.3804,1.4039,1.438,1.4303,1.3727,1.3105,0.0,0.0,0.0,0.0,0.0,0.0,0.0,0.0,0.0,0.0,0.0,0.0,0.0,0.0,0.0,0.0,0.0,0.0,0.0,0.0,0.0,0.0,0.0,0.0,0.0,0.0,0.0,0.3087,0.0,0.0,0.0,0.0,0.0,0.0,0.0,0.0,0.0,0.0,0.0,0.0,0.0,0.0,1.2558,1.4823,1.3298,1.2246,0.0,0.0,1.2815,1.3192,1.3697,1.3378,0.0,0.0,0.0,0.0,0.0,0.0,0.0,0.0,0.0,0.0,0.0,0.0,0.0,0.0,0.0,0.0,0.0,0.0,0.0,0.0,0.0,0.0,0.0,0.0,0.0,0.0,0.0,0.0,0.0,0.0,0.0,0.0,0.0,0.0,0.0,0.0,0.0,0.0,0.0,0.0,0.0,0.0,0.0,0.0,0.0,0.0,0.0,0.0,0.0,0.0,0.0,0.0,0.0,0.0,0.9639,1.087,1.2855,1.4069,1.4444,1.4486,1.4363,1.408,1.354,1.246,0.0,0.0,0.0,0.0,0.0,0.0,0.0,0.0,0.0,0.0,0.0,0.0,0.0,0.0,0.0,0.0,0.0,0.0,0.0,0.0,0.0,0.0,0.0,0.0,0.0,0.0,0.0,0.0,0.0,0.0,0.0,0.0,0.0,0.0,0.0,0.0,0.0,0.0,0.0,0.0,0.0,1.3319,1.6002,1.4963,1.4101,0.0,1.4772,1.4784,1.4781,1.5597,1.5359,1.273,0.0,0.0,0.0,0.0,0.0,0.0,0.0,0.0,0.0,0.0,0.0,0.0,0.0,0.0,0.0,0.0,0.0,0.0,0.0,0.0,0.0,0.0,0.0,0.0,0.0,0.0,0.0,0.0,0.0,0.0,0.0,0.0,0.0,0.0,0.0,0.0,0.0,0.0,0.0,0.0,0.0,0.0,0.0,0.0,0.0,0.0,0.0,0.0,0.0,0.0,0.0,0.0,0.0,0.9794,1.1203,1.298,1.403,1.4303,1.4192,1.4092,1.3987,1.3788,1.2884,0.0,0.0,0.0,0.0,0.0,0.0,0.0,0.0,0.0,0.0,0.0,0.0,0.0,0.0,0.0,0.0,0.0,0.0,0.0,0.0,0.0,0.0,0.0,0.0,0.0,0.0,0.0,0.0,0.4826,0.5232,0.5594,0.0,0.0,0.0,0.0,0.0,0.0,0.0,0.0,0.0,0.0,1.4793,1.7155,1.6157,0.0,0.0,1.609,1.583,1.6731,1.6376,1.551,1.4128,1.288,0.0,0.0,0.0,0.0,0.0,0.0,0.0,0.0,0.0,0.0,0.0,0.0,0.0,0.0,0.0,0.0,0.0,0.0,0.0,0.0,0.0,0.0,0.0,0.0,0.0,0.0,0.0,0.0,0.0,0.0,0.0,0.0,0.0,0.0,0.0,0.0,0.0,0.0,0.0,0.0,0.0,0.0,0.0,0.0,0.0,0.0,0.0,0.0,0.0,0.0,0.0,0.0,1.0293,1.1511,1.3287,1.4289,1.4397,1.4222,1.4139,1.4133,1.3872,1.3049,0.0,0.0,0.0,0.0,0.0,0.0,0.0,0.0,0.0,0.0,0.0,0.0,0.0,0.0,0.0,0.0,0.0,0.0,0.0,0.0,0.0,0.0,0.0,0.0,0.0,0.0,0.0,0.0,0.5549,0.5896,0.618,0.0,0.0,0.0,0.0,0.0,0.0,0.0,0.0,0.0,0.0,1.6022,1.8241,1.7243,1.665,1.7699,1.6949,1.6544,1.7435,1.6902,1.6098,1.5169,0.0,0.0,0.0,0.0,0.0,0.0,0.0,0.0,0.0,0.0,0.0,0.0,0.0,0.0,0.0,0.0,0.0,0.0,0.0,0.0,0.0,0.0,0.0,0.0,0.0,0.0,0.0,0.9014,0.0,0.0,0.8982,0.0,0.0,0.0,0.0,0.0,0.0,0.0,0.0,0.0,0.0,0.0,0.0,0.0,0.0,0.0,0.0,0.0,0.0,0.0,0.0,0.0,0.0,1.1224,1.1812,1.3854,1.4901,1.4901,1.4761,1.4692,1.4668,1.3808,1.2897,1.2034,0.0,0.0,0.0,0.0,0.0,0.0,0.0,0.0,0.0,0.0,0.0,0.0,0.0,0.0,0.0,0.0,0.0,0.0,0.0,0.0,0.0,0.0,0.0,0.0,0.0,0.0,0.5861,0.6655,0.7061,0.0,0.0,0.0,0.0,0.0,0.0,0.0,0.0,0.0,1.0466,1.3574,1.6798,1.928,1.8302,1.7313,1.736,1.7319,1.708,1.6547,1.7321,1.7457,0.0,0.0,0.0,0.0,0.0,0.0,0.0,0.0,0.0,0.0,0.0,0.0,0.0,0.0,0.0,0.0,0.0,0.0,0.0,0.0,0.0,0.0,0.0,0.0,0.0,0.0,0.0,1.156,1.1074,0.0,0.0,0.0,0.0,0.0,0.0,0.0,0.0,0.0,0.0,0.0,1.3667,1.4313,0.0,0.0,0.0,0.0,0.0,0.0,0.0,0.0,0.0,0.0,0.0,0.0,1.1689,1.295,1.4765,1.5965,1.6531,1.5951,1.564,1.5621,1.4818,1.3929,1.3011,0.0,0.0,0.0,0.0,0.0,0.0,0.0,0.0,0.0,0.0,0.0,0.0,0.0,0.0,0.0,0.0,0.0,0.0,0.0,0.0,0.0,0.0,0.0,0.0,0.0,0.6367,0.0,0.0,0.0,0.0,0.0,0.0,0.0,0.0,0.0,0.0,1.3289,1.3106,1.2684,1.5596,1.8232,1.9516,1.8932,1.8477,0.0,0.0,0.0,0.0,0.0,0.0,0.0,0.0,0.0,0.0,0.0,0.0,0.0,0.0,1.6643,1.39,1.3032,1.2839,1.3197,0.0,0.0,0.0,0.0,0.0,0.0,0.0,0.0,0.0,0.0,0.0,0.0,0.0,0.0,1.3841,1.3616,1.3319,0.0,0.0,0.0,0.0,0.0,0.0,0.0,0.0,1.5958,1.6787,1.6642,1.7002,1.6825,0.0,1.5638,1.422,0.0,0.0,0.0,0.0,0.0,0.0,0.0,0.0,1.2757,1.4108,1.5842,1.7001,1.7519,1.6988,1.6644,1.664,1.5589,1.4577,1.3629,1.1815,1.0782,0.0,0.0,0.0,0.0,0.0,0.0,0.0,0.0,0.0,0.0,0.0,0.0,0.0,0.0,0.0,0.0,0.0,0.0,0.0,0.0,0.0,0.0,0.0,0.7068,0.0,0.0,0.0,0.0,0.0,0.0,0.0,0.0,0.0,1.6364,1.6209,1.5741,1.5159,1.7635,1.955,1.9675,0.0,0.0,0.0,0.0,0.0,0.0,0.0,1.9041,1.8808,1.8374,1.8142,1.8398,1.9036,1.9631,2.008,0.0,0.0,1.6218,1.5285,1.5091,1.5427,1.6028,1.6399,1.6188,1.7105,1.7833,0.0,0.0,0.0,0.0,0.0,0.0,0.0,0.0,1.5441,1.5887,0.0,1.5693,0.0,0.0,0.0,0.0,1.418,1.5759,0.0,0.0,1.9465,2.0341,2.027,1.9513,1.9124,1.9126,1.9101,1.8242,1.6453,1.3098,0.0,0.0,0.0,0.0,0.0,0.0,1.4376,1.5313,1.703,1.7958,1.7993,1.7822,1.77,1.7584,1.6103,1.4826,1.3886,1.3053,1.1905,1.0329,0.9883,0.0,0.0,0.0,0.0,0.0,0.0,0.0,0.0,0.0,0.0,0.0,0.0,0.0,0.0,0.0,0.0,0.0,0.0,0.0,0.0,0.7403,0.0,0.0,0.0,0.0,0.0,0.0,0.0,0.0,0.0,1.7921,1.9794,1.9161,1.8369,1.7853,0.0,0.0,0.0,0.0,1.9656,1.9656,1.9656,1.9574,1.9337,2.0221,2.0748,2.0111,0.0,0.0,2.0983,2.102,2.107,2.1126,2.1134,2.0794,1.9877,1.8652,1.8065,1.8605,1.835,1.8138,1.8733,1.9637,2.034,1.7939,0.0,0.0,0.0,0.0,1.7496,1.836,1.9698,1.9698,1.9165,1.828,1.8028,0.0,0.0,0.0,0.0,0.0,0.0,1.8744,1.9589,2.0717,2.1474,2.1912,2.1828,2.1709,2.1549,2.1097,2.0324,1.9246,1.7621,1.5151,1.1938,0.0,0.0,0.0,0.0,1.5625,1.7115,1.8243,1.9096,1.9676,1.9085,1.8167,1.6965,1.6457,1.5769,1.4895,1.4047,1.3362,1.2815,1.1004,0.0,0.0,0.0,0.0,0.0,0.0,0.0,0.0,0.0,0.0,0.0,0.0,0.0,0.0,0.0,0.0,0.0,0.0,0.0,0.8156,0.8335,0.8844,0.0,0.0,0.0,0.0,0.0,0.0,0.0,0.0,0.0,2.1715,2.0813,1.9895,0.0,0.0,2.0829,2.0381,2.0483,2.0584,2.0601,2.0584,0.0,2.0495,2.078,2.0939,2.0735,2.1116,2.1338,2.1035,2.1678,2.2489,2.3307,2.298,2.2297,2.1532,2.1114,2.0898,2.1042,2.1338,2.1652,2.1887,2.218,2.2345,2.1519,2.0127,1.8889,1.8838,1.9611,1.9742,2.0529,2.1791,2.1771,2.1408,2.0764,2.0419,1.9431,1.7981,1.7313,0.0,0.0,0.0,2.0434,2.1594,2.2119,2.276,2.3419,2.325,2.3092,2.2912,2.2221,2.1607,2.1112,2.0607,1.8717,1.5543,0.0,1.4756,1.4336,1.5625,1.6972,1.834,1.9218,1.9918,2.0417,1.998,1.9081,1.7737,1.7346,1.6754,1.5884,1.5007,1.4365,1.3954,1.2442,1.1087,0.0,0.0,0.0,0.0,0.0,0.0,0.0,0.0,0.0,0.0,0.0,0.667,0.531,0.0,0.0,0.0,0.7931,1.0565,1.1081,1.1151,0.0,0.0,0.0,0.0,0.0,0.0,0.0,1.7572,1.9316,2.1107,2.277,2.2108,2.1404,2.1292,2.1418,2.137,2.0958,0.0,2.154,2.188,2.1882,2.2008,2.2333,2.2153,2.1952,2.1937,2.2137,2.2097,2.1658,2.2549,2.3825,2.489,2.4464,2.3637,2.3338,2.339,2.3358,2.3031,2.3043,2.3192,2.319,2.333,2.3482,2.4452,2.4224,2.1349,2.0584,2.126,2.1291,2.1746,2.2397,2.2416,2.2825,2.3422,2.2641,2.2299,2.2198,2.0766,0.0,2.1221,2.1265,2.2117,2.3599,2.3618,2.4033,2.4718,2.3976,2.3604,2.3578,2.2842,2.2432,2.2316,2.235,2.1541,1.989,1.7914,1.6848,1.6726,1.7561,1.8394,1.9187,1.9998,2.0411,2.0484,2.0542,2.0156,1.9297,1.8437,1.7577,1.6727,1.5866,1.5,1.4158,1.3979,1.2854,1.0673,0.0,0.0,0.0,0.0,0.0,0.0,0.0,0.0,0.0,0.0,0.0,0.0,0.0,0.0,0.457,1.0288,0.0,1.4714,1.4987,0.0,0.0,0.0,1.6238,1.6334,1.8391,1.922,1.7704,0.0,0.0,2.3274,2.3058,2.276,2.2426,2.2346,2.2139,2.1554,2.1989,2.2544,2.3244,2.3386,2.3633,2.4118,2.3743,2.3335,2.3402,2.3491,2.3227,2.2738,2.3606,2.5089,2.6347,2.5574,2.4798,2.5237,2.5426,2.5462,2.4693,2.4041,2.3557,2.3654,2.398,2.4248,2.4047,2.4192,2.347,2.3355,2.3666,2.383,2.4011,2.4179,2.4179,2.3927,2.3479,2.3265,2.2838,2.2223,2.2508,2.2715,2.2941,2.3584,2.4112,2.4469,2.4488,2.4527,2.4556,2.4516,2.4407,2.4268,2.4218,2.3867,2.3215,2.3205,2.2677,2.1613,2.1084,1.993,1.8209,1.9233,1.9834,1.9942,2.023,2.0414,2.0427,2.0437,2.0046,1.9245,1.8366,1.7534,1.6718,1.5859,1.5308,1.5058,1.4411,1.4038,1.3953,1.1506,0.0,0.0,0.0,0.0,0.0,0.0,0.0,0.0,0.0,1.0168,0.8091,0.0,0.996,0.0,1.0981,1.4851,1.6609,1.5955,0.0,0.0,1.8026,1.8878,2.0705,2.1277,2.1616,2.192,2.2694,2.3398,2.3899,2.3359,2.2911,2.2972,2.2847,2.2671,2.2392,2.3224,2.3927,2.4137,2.4625,2.4888,2.4602,2.4066,2.3873,2.4191,2.4255,2.4162,2.4027,2.4706,2.5641,2.6485,2.6469,2.6251,2.6285,2.6404,2.637,2.6185,2.6,2.5866,2.5865,2.595,2.6017,2.3588,2.3764,2.3746,2.3821,2.3946,2.4363,2.4545,2.4537,2.4537,2.4248,2.3822,2.3803,2.3545,2.313,2.3601,2.3814,2.3851,2.4323,2.4449,2.4317,2.4317,2.4183,2.3926,2.4035,2.41,2.4155,2.4274,2.4129,2.3832,2.3814,2.3563,2.3119,2.3176,2.2337,2.0652,2.0976,2.1199,2.1231,2.1046,2.0929,2.0913,2.0571,2.0021,1.9215,1.8346,1.752,1.6719,1.5878,1.5234,1.482,1.4367,1.4468,1.5184,1.2765,1.1257,0.0,0.0,0.0,0.0,0.0,0.0,0.0,0.0,0.0,0.0,0.0,1.3866,1.2447,1.5495,1.8042,1.9293,1.9073,1.924,2.0207,2.0843,2.1606,2.2615,2.2914,2.3249,2.3754,2.3714,2.3777,2.4141,2.3785,2.352,2.3649,2.3966,2.3847,2.314,2.3862,2.4742,2.5112,2.5652,2.6103,2.61,2.5844,2.552,2.5324,2.5409,2.5508,2.5513,2.6126,2.6661,2.6715,2.6836,2.6906,2.6741,2.6708,2.6708,2.6708,2.6708,2.6708,2.6708,2.6708,2.6708,2.3165,2.3189,2.3189,2.3189,2.3253,2.3816,2.4074,2.4074,2.4056,2.4056,2.4074,2.4074,2.4074,2.4074,2.4074,2.4074,2.4074,2.4074,2.3917,2.3649,2.3649,2.3488,2.32,2.3189,2.3357,2.3621,2.3631,2.3785,2.4064,2.4132,2.4123,2.4142,2.4357,2.4014,2.3162,2.2699,2.2475,2.2492,2.1989,2.1671,2.1588,2.0897,2.0157,1.9339,1.8395,1.7574,1.6873,1.5929,1.505,1.4316,1.4273,1.4544,1.5117,1.3774,1.292,0.0,1.2023,0.0,0.0,0.0,0.0,0.0,0.0,0.0,0.0,1.5099,1.7267,1.9011,2.1029,2.215,2.1962,2.2619,2.2837,2.2311,2.3436,2.3989,2.3363,2.3842,2.4266,2.4256,2.4257,2.4275,2.4303,2.4266,2.4275,2.4478,2.5226,2.5319,2.4205,2.4754,2.5684,2.6291,2.667,2.7266,2.7942,2.8043,2.7579,2.6708,2.6654,2.6919,2.6829,2.7362,2.7666,2.72,2.7228,2.7255,2.6906,2.6873,2.6873,2.6906,2.6923,2.6874,2.6741,2.6708,2.6708,2.296,2.3189,2.3189,2.3189,2.32,2.3335,2.3392,2.338,2.3392,2.3392,2.3392,2.3392,2.341,2.3392,2.3392,2.338,2.3392,2.3392,2.3357,2.3282,2.3282,2.3265,2.3189,2.3189,2.3253,2.33,2.33,2.3317,2.341,2.3671,2.3795,2.3824,2.4105,2.4164,2.3979,0.0,0.0,0.0,2.238,2.2058,2.1529,2.1378,2.0907,2.0091,1.8603,0.0,1.7645,1.6204,1.5337,1.5165,1.5156,0.0,0.0,0.0,0.0,0.0,0.0,0.0,0.0,0.0,0.0,0.0,1.614,1.6166,1.5557,1.6536,1.7524,1.835,2.2155,2.4098,2.2814,2.3124,2.364,2.4185,2.4497,2.4636,2.4467,2.4591,2.4657,2.4537,2.4626,2.4704,2.474,2.4614,2.4801,2.5496,2.6126,2.6467,2.6497,2.6991,2.7508,2.7729,2.8114,2.8554,2.8822,2.8779,2.8437,2.7812,2.7607,2.7685,2.767,2.777,2.8149,2.834,2.8137,2.7765,2.7681,2.7663,2.7619,2.7663,2.7666,2.747,2.6841,2.6708,2.6708,2.2395,2.2764,2.276,2.2747,0.0,2.2747,2.2747,2.2773,2.3075,2.3189,2.3189,2.3189,2.3189,2.3189,2.3189,2.3189,2.3189,2.3189,2.3117,2.296,2.296,2.286,2.2747,2.2747,2.2819,2.2947,2.296,2.3033,2.3218,2.338,2.3544,2.3721,2.3858,2.4026,2.4208,2.4199,2.3958,2.3498,2.3151,2.2876,2.2627,2.1785,2.1018,2.0308,1.9062,0.0,0.0,0.0,0.0,0.0,0.0,0.0,0.0,0.0,0.0,1.6023,1.5592,1.5425,1.5786,1.5841,1.6555,1.8252,1.9588,1.9892,1.8894,1.8827,1.9286,2.037,2.3414,2.4976,2.4189,2.4123,2.4313,2.4747,2.4804,2.4804,2.4804,2.4804,2.4797,2.4752,2.4771,2.4828,2.4885,2.4792,2.5068,2.5861,2.6231,2.6824,2.7793,2.8175,2.8389,2.8717,2.8859,2.9067,2.9185,2.9071,2.8821,2.8317,2.8301,2.8262,2.7964,2.8205,2.8575,2.891,2.8533,2.8116,2.794,2.7897,2.7897,2.7897,2.7897,2.7787,2.7365,2.7293,2.7288,2.172,2.2063,2.2166,2.218,2.218,2.2268,2.2313,2.2352,2.2819,0.0,0.0,2.3038,2.3038,2.3038,2.3038,2.3021,2.3038,2.3038,2.289,2.2621,2.2639,2.2514,2.231,2.2313,2.2412,2.2621,2.2634,2.2764,2.3038,2.3081,2.3265,2.3511,2.3595,2.3785,2.4094,2.417,2.4275,2.4417,2.3941,2.3704,2.3706,2.2224,2.1105,2.046,1.9492,1.8664,1.8038,1.7873,1.7154,1.5839,1.5805,1.5821,1.5838,1.5839,1.6679,1.8445,1.8192,1.8052,1.8349,1.8387,1.9162,2.0963,2.2415,2.2873,2.2045,2.122,2.1439,2.312,2.4521,2.5337,2.5337,2.5105,2.4937,2.4917,2.4911,2.4924,2.4943,2.4917,2.4967,2.496,2.4962,2.5006,2.5222,2.5044,2.5331,2.6228,2.6626,2.7119,2.8602,2.8935,2.9044,2.9507,2.9399,2.9241,2.9436,2.9238,2.8892,2.8664,2.8803,2.876,2.8366,2.8585,2.8955,2.899,2.8715,2.843,2.8174,2.8147,2.8093,2.8093,2.8093,2.8112,2.8102,2.8089,2.8039,2.1134,2.1213,2.1553,2.1703,2.1718,2.212,2.2313,2.231,2.2405,2.2429,2.2432,2.2429,2.2429,2.2429,2.2415,2.2446,2.2429,2.2415,2.2405,2.2363,2.2346,2.2335,2.2313,2.2313,2.2307,2.2346,2.2363,2.2374,2.2457,2.2665,2.281,2.2885,2.3129,2.3437,2.3746,2.4046,2.4209,2.4238,2.4334,2.4091,2.3539,2.2621,2.1807,2.107,1.9621,1.8822,1.8813,1.8193,1.77,1.7456,1.7452,1.7483,1.7559,1.7542,1.7727,1.8066,1.8046,1.8632,2.0098,2.0234,2.1225,2.3469,2.3986,2.4053,2.3898,2.3009,2.3149,2.4763,2.5263,2.5457,2.5465,2.5425,2.5389,2.5399,2.5386,2.5408,2.5392,2.5389,2.5385,2.5379,2.5317,2.5624,2.6163,2.5746,2.6069,2.7683,2.7904,2.8279,2.9589,2.9957,2.9935,3.0136,2.9888,2.9703,2.9738,2.9377,2.9141,2.9249,2.9086,2.9003,2.8855,2.8943,2.9051,2.9007,2.8977,2.8893,2.8815,2.8839,2.8761,2.8767,2.8737,2.8755,2.8761,2.8773,2.8615,2.1118,2.1368,2.1811,2.1988,2.2003,2.2209,2.2313,2.2313,2.2313,2.2313,2.2313,2.2313,2.2313,2.2313,2.2313,2.2313,2.2313,2.2313,2.2313,2.2313,2.2313,2.2313,2.2313,2.2313,2.2313,2.2313,2.2313,2.2313,2.231,2.2426,2.2639,2.2967,2.3471,2.3827,2.3976,2.4132,2.4199,2.4199,2.4275,2.4232,2.4045,2.3233,2.2487,2.1814,2.0679,1.9912,1.955,1.9296,1.8937,1.8458,1.8482,1.8511,1.8547,1.8995,1.9495,2.0032,2.05,2.1109,2.1894,2.2402,2.3144,2.4273,2.4793,2.5062,2.5061,2.4589,2.4587,2.5333,2.5542,2.5609,2.5617,2.553,2.551,2.551,2.551,2.551,2.551,2.551,2.5673,2.606,2.617,2.6485,2.7302,2.6787,2.6886,2.8512,2.8953,2.9577,3.0269,3.0286,3.0254,3.0355,3.0208,3.004,2.9969,2.9877,2.9688,2.9445,2.9395,2.9343,2.9296,2.932,2.9404,2.946,2.9339,2.9225,2.9203,2.9089,2.9028,2.8987,2.8987,2.8987,2.8987,2.8987,2.8865,2.1339,2.1649,2.2108,2.227,2.2222,2.2159,2.2135,2.2166,2.2268,2.2313,2.2313,2.2313,2.2313,2.2313,2.2313,2.2313,2.2313,2.2313,2.2313,2.2313,2.2313,2.2313,2.2313,2.2313,2.2313,2.2313,2.2313,2.2313,2.2313,2.2313,2.2571,2.3093,2.3682,2.4006,2.4084,2.4161,2.4199,2.4199,2.4199,2.4266,2.4399,2.3594,2.2959,2.2494,2.1821,2.1165,2.0613,2.0749,2.0562,1.9915,1.9908,1.9948,1.9981,2.0584,2.1299,2.2051,2.2717,2.318,2.3396,2.4199,2.4687,2.4687,2.5312,2.5703,2.5684,2.5604,2.5529,2.5577,2.5636,2.5698,2.5684,2.5611,2.5549,2.5549,2.5549,2.5552,2.5551,2.5705,2.5974,2.6494,2.6842,2.7424,2.7989,2.778,2.7942,2.9071,2.9946,3.0365,3.0398,3.0394,3.0404,3.0404,3.0404,3.0311,3.0136,3.0241,3.0114,2.9607,2.9579,2.9598,2.957,2.9673,2.9763,2.9811,2.9664,2.9454,2.9384,2.9235,2.9089,2.9021,2.8987,2.8987,2.8987,2.8987,2.8987,2.1646,2.1758,2.2158,2.2211,2.2068,2.1818,2.1753,2.1766,2.2123,2.2313,2.2313,2.2313,2.2313,2.2313,2.2313,2.2313,2.2313,2.2313,2.2313,2.2313,2.2313,2.2313,2.2313,2.2313,2.2313,2.2313,2.2313,2.2313,2.2313,2.231,2.2467,2.2746,2.3117,2.3459,2.3753,2.4036,2.419,2.4199,2.4199,2.4199,2.4191,2.3428,2.3039,2.313,2.2525,2.223,2.2152,2.2456,2.2509,2.2451,2.2378,2.2447,2.2501,2.2614,2.2729,2.2889,2.2991,2.3332,2.4157,2.5056,2.5547,2.5566,2.5625,2.5703,2.5703,2.5683,2.5684,2.5684,2.5684,2.5703,2.5703,2.5684,2.5664,2.5664,2.5723,2.5683,2.582,2.6386,2.6578,2.5755,2.724,2.8299,2.8788,2.8526,2.8704,2.9956,3.0312,3.0442,3.0414,3.0402,3.0408,3.0396,3.0404,3.0379,3.0349,3.0367,3.0241,2.9973,2.972,2.9683,2.9798,2.9864,2.9901,2.9953,2.9798,2.9635,2.9494,2.9361,2.9278,2.91,2.904,2.8987,2.8987,2.8987,2.8987,2.206,2.2099,2.2537,2.2837,2.3013,2.3218,2.3068,2.2733,2.3334,2.3122,2.2398,2.275,2.2716,2.2313,2.2313,2.2313,2.2313,2.2313,2.2313,2.2313,2.2313,2.2313,2.2313,2.2313,2.2313,2.2313,2.2313,2.2313,2.2321,2.245,2.2586,2.2721,2.3045,2.3369,2.3692,2.3827,2.3978,2.419,2.4199,2.4199,2.4163,2.3896,2.3493,2.3103,2.2914,2.2622,2.2289,2.2464,2.2612,2.2642,2.2728,2.2814,2.2856,2.3318,2.3639,2.3744,2.4199,2.4639,2.4997,2.5368,2.5591,2.5573,2.5609,2.5636,2.5657,2.5682,2.5703,2.5703,2.5703,2.5703,2.5723,2.5703,2.5703,2.5762,2.6133,2.6465,2.6484,2.7246,2.7695,2.777,2.8492,2.9316,2.9905,2.9905,3.0029,3.0617,3.0688,3.0651,3.0547,3.0479,3.0472,3.0447,3.0428,3.039,3.0404,3.0404,3.0273,3.0089,3.0023,3.008,2.9954,3.0121,3.0197,3.0202,3.0011,2.988,2.9807,2.9644,2.9523,2.9291,2.9085,2.8987,2.8987,2.8987,2.8987,2.2657,2.2666,2.2854,2.3117,2.3467,2.3902,2.3812,2.3475,2.4163,2.3898,2.2987,2.3274,2.3105,2.2617,2.2398,2.2313,2.2313,2.2313,2.2313,2.2313,2.2313,2.2313,2.2313,2.2313,2.2313,2.2313,2.2313,2.2313,2.2324,2.249,2.266,2.2848,2.3081,2.3403,2.3777,2.3827,2.3947,2.418,2.4199,2.4199,2.4199,2.4199,2.3914,2.3401,2.3477,2.3262,2.272,2.2993,2.3195,2.3195,2.3371,2.3505,2.3505,2.4086,2.4454,2.4536,2.5108,2.5482,2.5479,2.5479,2.551,2.5515,2.5531,2.5567,2.5576,2.5639,2.5682,2.5684,2.6046,2.6367,2.6074,2.6055,2.6133,2.6406,2.7031,2.7363,2.7402,2.8125,2.8711,2.8965,2.9434,3.0176,3.0742,3.0834,3.0837,3.087,3.0884,3.0869,3.0703,3.061,3.0544,3.0521,3.0482,3.0422,3.0396,3.0404,3.0279,3.0222,3.026,3.0273,3.0143,3.0305,3.0398,3.0279,3.0176,3.0061,2.9939,2.9813,2.9722,2.9504,2.9315,2.9189,2.9267,2.9175,2.9122,2.3548,2.3428,2.2945,2.2869,2.2829,2.3201,2.3224,2.3383,2.4178,2.4457,2.422,2.3746,2.3424,2.3308,2.2733,2.2344,2.2313,2.2313,2.2313,2.2313,2.2313,2.2313,2.2313,2.2313,2.2313,2.2313,2.2313,2.2313,2.231,2.2307,2.2624,2.3129,2.3135,2.3511,2.4044,2.4122,2.417,2.4208,2.4199,2.4199,2.4199,2.4199,2.4153,2.4108,2.431,2.4329,2.4323,2.4659,2.4827,2.4852,2.4962,2.5091,2.5149,2.5173,2.5197,2.524,2.5332,2.5406,2.5417,2.5459,2.5501,2.5506,2.5489,2.5513,2.55,2.5606,2.5634,2.5535,2.6914,2.755,2.709,2.6953,2.7226,2.7871,2.8144,2.8242,2.8262,2.9004,2.9082,2.8926,2.9863,3.0684,3.0898,3.0918,3.0918,3.0918,3.0905,3.0888,3.0843,3.0706,3.0609,3.0584,3.0545,3.0492,3.0411,3.0404,3.0398,3.0355,3.0323,3.0398,3.0398,3.0404,3.0404,3.0404,3.0349,3.0241,3.0075,2.9954,2.9869,2.9735,2.9646,2.9561,2.9493,2.9445,2.9402,2.3595,2.3644,2.4101,2.4308,2.4379,2.5075,2.5129,2.478,2.5563,2.5354,2.466,2.4695,2.4543,2.4101,2.3831,2.319,2.2364,2.2313,2.2313,2.2313,2.2313,2.2313,2.2313,2.2313,2.2313,2.2313,2.2313,2.2313,2.2313,2.2313,2.2508,2.2797,2.2885,2.323,2.3774,2.3886,2.3968,2.418,2.4199,2.4199,2.4199,2.4199,2.4199,2.4199,2.4275,2.4312,2.4294,2.4548,2.473,2.4857,2.5024,2.5163,2.5279,2.5308,2.5308,2.5293,2.5312,2.5335,2.5339,2.5359,2.5379,2.5383,2.5408,2.5438,2.5453,2.5524,2.5559,2.5842,2.7024,2.7877,2.8115,2.7912,2.7878,2.821,2.8738,2.9076,2.9257,2.9801,3.0189,3.0098,3.0605,3.0879,3.0918,3.0918,3.0918,3.0918,3.0918,3.0918,3.0873,3.0756,3.0669,3.0642,3.0617,3.0567,3.0537,3.0446,3.0385,3.0404,3.0404,3.0398,3.0404,3.0404,3.0404,3.0404,3.0404,3.0367,3.0196,3.0082,3.0011,2.9965,2.986,2.9786,2.968,2.9664,2.9626,2.3595,2.3709,2.4389,2.4776,2.5031,2.5855,2.6031,2.5799,2.6421,2.6132,2.5389,2.5507,2.5321,2.4863,2.4626,2.4002,2.3038,2.2784,2.2516,2.2313,2.2313,2.2313,2.2313,2.2313,2.2313,2.2313,2.2313,2.2313,2.2313,2.2313,2.2504,2.2848,2.286,2.3218,2.3746,2.3847,2.3986,2.417,2.4199,2.4199,2.4199,2.4199,2.4199,2.4199,2.4199,2.4199,2.4199,2.4393,2.4543,2.4708,2.4904,2.5094,2.5269,2.5308,2.5308,2.5308,2.5308,2.5308,2.5308,2.5308,2.5288,2.5293,2.5344,2.5375,2.5375,2.5417,2.545,2.5813,2.6962,2.814,2.8644,2.8838,2.8929,2.9024,2.9517,2.9863,2.9945,3.037,3.0711,3.0801,3.084,3.0918,3.0918,3.0918,3.0918,3.0918,3.0918,3.0918,3.0898,3.0817,3.0769,3.0767,3.0696,3.0648,3.06,3.0529,3.0458,3.0452,3.0411,3.0414,3.0408,3.0402,3.0402,3.039,3.0404,3.0404,3.0329,3.0215,3.0169,3.0122,3.0097,3.0061,2.9965,2.9873,2.9836,2.3595,2.3659,2.3638,2.4137,2.4657,2.5278,2.5598,2.6055,2.6488,2.659,2.6369,2.5947,2.5693,2.549,2.5032,2.4558,2.4321,2.3799,2.3105,2.2465,2.233,2.2313,2.2313,2.2313,2.2313,2.2313,2.2313,2.231,2.2335,2.2363,2.262,2.3111,2.32,2.3522,2.417,2.4142,2.418,2.4199,2.4199,2.4199,2.4199,2.4199,2.4199,2.4199,2.4199,2.4199,2.4199,2.4384,2.4495,2.4567,2.4818,2.5082,2.5264,2.5308,2.5308,2.5308,2.5308,2.5308,2.5308,2.5308,2.5308,2.5288,2.5293,2.5313,2.5317,2.5322,2.5331,2.5552,2.6862,2.8156,2.8846,2.9689,3.0281,3.0549,3.0428,3.0453,3.055,3.065,3.0746,3.0859,3.0898,3.0879,3.0898,3.0918,3.0918,3.0918,3.0918,3.0918,3.0918,3.0879,3.0879,3.0859,3.0791,3.0716,3.0679,3.0633,3.0558,3.0513,3.0477,3.0455,3.0436,3.043,3.0441,3.0436,3.0396,3.039,3.0404,3.0305,3.0317,3.0299,3.0299,3.028,3.0209,3.0119,3.0058,2.3815,2.4199,2.4552,2.5012,2.554,2.6034,2.6333,2.6487,2.6674,2.6708,2.6657,2.6454,2.6336,2.6302,2.6099,2.5743,2.527,2.4966,2.4255,2.3173,2.2564,2.2313,2.2313,2.2313,2.2313,2.2313,2.2313,2.2402,2.2523,2.2563,2.2903,2.3414,2.3544,2.3785,2.417,2.4199,2.4199,2.4199,2.4199,2.4199,2.4199,2.4199,2.4199,2.4199,2.4199,2.4199,2.4199,2.4257,2.4418,2.4678,2.4788,2.5,2.5238,2.5308,2.5308,2.5308,2.5308,2.5308,2.5308,2.5308,2.5308,2.5308,2.5308,2.5308,2.5308,2.5308,2.5308,2.5481,2.6871,2.8352,2.9608,3.0175,3.0448,3.0517,3.0533,3.0544,3.0603,3.0672,3.0759,3.0857,3.0831,3.0809,3.0879,3.0918,3.0918,3.0918,3.0918,3.0918,3.0918,3.0918,3.0918,3.0898,3.084,3.082,3.077,3.0737,3.0663,3.0603,3.0545,3.05,3.0486,3.0486,3.0476,3.0467,3.0436,3.04,3.0408,3.0402,3.0414,3.039,3.0361,3.0355,3.0386,3.033,3.0228,2.3794,2.4158,2.4677,2.5237,2.5744,2.6228,2.6556,2.6691,2.6708,2.6708,2.6708,2.6691,2.6708,2.6708,2.6708,2.6437,2.5998,2.5744,2.5118,2.4154,2.3122,2.2615,2.2347,2.2313,2.2313,2.2313,2.2313,2.2388,2.2537,2.2577,2.2865,2.3403,2.3504,2.3746,2.4161,2.4199,2.4199,2.4199,2.4199,2.4199,2.4199,2.4199,2.4199,2.4199,2.4199,2.4199,2.4199,2.4199,2.4339,2.4654,2.4799,2.4993,2.5269,2.5308,2.5308,2.5308,2.5308,2.5308,2.5308,2.5308,2.5308,2.5308,2.5308,2.5308,2.5308,2.5308,2.5404,2.6077,2.7129,2.8577,3.0013,3.0404,3.0417,3.0452,3.0448,3.0507,3.0581,3.0655,3.0718,3.0781,3.08,3.0811,3.0879,3.0918,3.0918,3.0918,3.0918,3.0918,3.0918,3.0918,3.0918,3.0918,3.0898,3.0879,3.0879,3.0836,3.0767,3.0698,3.063,3.0571,3.0552,3.0563,3.057,3.0548,3.052,3.0467,3.0467,3.0452,3.0437,3.0414,3.0396,3.0398,3.0398,3.0398,3.0336,2.3653,2.3752,2.4246,2.4891,2.543,2.5908,2.6349,2.6657,2.6708,2.6708,2.6708,2.6708,2.6708,2.6708,2.6708,2.664,2.6573,2.6031,2.5659,2.5152,2.4222,2.3308,2.275,2.2567,2.2499,2.2465,2.2364,2.2307,2.2412,2.2412,2.262,2.3253,2.3357,2.3566,2.4094,2.4199,2.4199,2.4199,2.4199,2.4199,2.4199,2.4199,2.4199,2.4199,2.4199,2.4199,2.4199,2.4237,2.433,2.4534,2.4831,2.5077,2.5264,2.5308,2.5308,2.5308,2.5308,2.5308,2.5308,2.5308,2.5308,2.5308,2.5308,2.5308,2.5308,2.5327,2.5731,2.6712,2.7484,2.8599,2.9975,3.0404,3.039,3.0385,3.0414,3.0467,3.0571,3.065,3.0657,3.065,3.0757,3.0879,3.0879,3.0918,3.0918,3.0918,3.0918,3.0918,3.0918,3.0918,3.0918,3.0918,3.0918,3.0918,3.0898,3.0879,3.082,3.079,3.0728,3.0681,3.0623,3.0625,3.0669,3.0634,3.0587,3.0551,3.0514,3.0505,3.0482,3.0451,3.0428,3.0402,3.0404,3.0404,3.0423,2.4053,2.4776,2.4934,2.5505,2.6263,2.647,2.659,2.6708,2.6708,2.6708,2.6708,2.6708,2.6708,2.6708,2.6708,2.6708,2.664,2.6488,2.6065,2.5609,2.5254,2.4594,2.3883,2.3342,2.3105,2.3021,2.2626,2.2398,2.2573,2.2603,2.294,2.3544,2.3555,2.3746,2.4133,2.4199,2.4199,2.4199,2.4199,2.4199,2.4199,2.4199,2.4199,2.4199,2.4199,2.4199,2.4218,2.4358,2.452,2.4716,2.4885,2.5094,2.5269,2.5284,2.5284,2.5308,2.5308,2.5308,2.5308,2.5308,2.5308,2.5308,2.5308,2.5308,2.5308,2.5308,2.586,2.6822,2.7561,2.8579,2.9994,3.0404,3.0404,3.0404,3.0404,3.0444,3.0496,3.0545,3.0554,3.0586,3.0703,3.0793,3.0879,3.0918,3.0918,3.0918,3.0918,3.0918,3.0918,3.0918,3.0918,3.0918,3.0918,3.0918,3.0918,3.0918,3.0898,3.0879,3.0835,3.0789,3.0732,3.07,3.0739,3.0774,3.067,3.0623,3.0597,3.0575,3.0521,3.0482,3.0467,3.0447,3.0419,3.0404,3.0462,2.397,2.4572,2.5028,2.5542,2.6105,2.6522,2.6708,2.6708,2.6708,2.6708,2.6708,2.6708,2.6708,2.6708,2.6708,2.6708,2.6708,2.6708,2.6454,2.6167,2.6048,2.5439,2.4609,2.4,2.3714,2.3388,2.3127,2.2897,2.2764,2.2835,2.32,2.3606,2.3721,2.3886,2.417,2.4199,2.4199,2.4199,2.4199,2.4199,2.4199,2.4199,2.4199,2.4199,2.4199,2.4199,2.4218,2.4321,2.4461,2.4662,2.4842,2.5043,2.5259,2.5214,2.5214,2.5279,2.5308,2.5308,2.5308,2.5308,2.5308,2.5308,2.5308,2.5308,2.5385,2.5596,2.6308,2.7288,2.7715,2.8714,2.9975,3.0404,3.0404,3.0404,3.0404,3.0428,3.049,3.0554,3.0639,3.0712,3.0761,3.0795,3.0879,3.0898,3.0918,3.0918,3.0918,3.0918,3.0918,3.0918,3.0918,3.0918,3.0918,3.0918,3.0918,3.0918,3.0918,3.0898,3.0879,3.084,3.082,3.0781,3.082,3.084,3.0762,3.0696,3.0681,3.0636,3.0584,3.0552,3.0521,3.0506,3.0493,3.0593,3.0645,2.3752,2.3927,2.4875,2.5316,2.558,2.6298,2.6708,2.6708,2.6708,2.6708,2.6708,2.6708,2.6708,2.6708,2.6708,2.6708,2.6708,2.6708,2.6691,2.6607,2.6522,2.5981,2.5066,2.4728,2.4357,2.3926,2.3938,2.3642,2.3376,2.3355,2.3518,2.3808,2.3829,2.3886,2.4141,2.4199,2.4199,2.4199,2.4199,2.4199,2.4199,2.4199,2.4199,2.4199,2.4199,2.4199,2.4199,2.4228,2.4303,2.4442,2.4643,2.4903,2.5165,2.5065,2.5111,2.5259,2.5308,2.5308,2.5308,2.5308,2.5308,2.5308,2.5404,2.5423,2.5673,2.6269,2.7121,2.8005,2.7951,2.8752,3.0013,3.0404,3.0404,3.0404,3.0404,3.0433,3.049,3.0592,3.0737,3.0877,3.0878,3.0858,3.0878,3.0879,3.0879,3.0918,3.0918,3.0918,3.0918,3.0918,3.0918,3.0918,3.0918,3.0918,3.0918,3.0918,3.0918,3.0918,3.0918,3.0898,3.0898,3.0879,3.0898,3.0879,3.082,3.0781,3.0762,3.0721,3.0672,3.0614,3.0587,3.0606,3.064,3.0871,3.0976,2.4732,2.5505,2.5726,2.605,2.6367,2.6624,2.6708,2.6708,2.6708,2.6708,2.6708,2.6708,2.6708,2.6708,2.6708,2.6708,2.6708,2.6708,2.6708,2.6708,2.6708,2.659,2.6048,2.5625,2.5287,2.5026,2.4876,2.4712,2.4512,2.4257,2.432,2.4554,2.4136,2.3876,2.4216,2.4226,2.4199,2.4199,2.4199,2.4199,2.4199,2.4199,2.4199,2.4199,2.4199,2.4199,2.4199,2.4199,2.4218,2.4284,2.4461,2.47,2.4862,2.4943,2.5065,2.5203,2.5274,2.5284,2.5308,2.5322,2.5327,2.5442,2.5981,2.6308,2.637,2.7101,2.7928,2.8525,2.8335,2.8829,3.009,3.0404,3.0404,3.0404,3.0404,3.0396,3.0439,3.0494,3.0639,3.0778,3.0769,3.072,3.0863,3.0801,3.082,3.0879,3.0918,3.0918,3.0918,3.0918,3.0918,3.0918,3.0918,3.0918,3.0918,3.0918,3.0918,3.0918,3.0918,3.0918,3.0918,3.0918,3.0918,3.0918,3.0898,3.0879,3.082,3.0836,3.0805,3.0725,3.0786,3.1083,3.1305,3.1388,3.1709,2.5125,2.5633,2.5872,2.6139,2.6384,2.659,2.6708,2.6708,2.6708,2.6708,2.6708,2.6708,2.6708,2.6708,2.6708,2.6708,2.6708,2.6708,2.6708,2.6708,2.6708,2.6708,2.6674,2.6302,2.5981,2.5673,2.5605,2.549,2.5283,2.5265,2.5344,2.5597,2.4884,2.4665,2.4629,2.4428,2.4218,2.4199,2.4199,2.4199,2.4199,2.4199,2.4199,2.4199,2.4199,2.4199,2.4199,2.4199,2.4199,2.4238,2.4384,2.4495,2.4526,2.467,2.4864,2.5024,2.513,2.5152,2.5201,2.5618,2.5942,2.5923,2.6717,2.7063,2.7332,2.7871,2.8448,2.8967,2.9154,2.9527,3.0288,3.0404,3.0404,3.0404,3.0404,3.0404,3.0408,3.0457,3.0518,3.066,3.0636,3.0655,3.0698,3.0682,3.0781,3.0879,3.0898,3.0898,3.0918,3.0918,3.0918,3.0918,3.0918,3.0918,3.0918,3.0918,3.0918,3.0918,3.0918,3.0918,3.0918,3.0918,3.0918,3.0937,3.0957,3.0918,3.0879,3.0918,3.1172,3.1368,3.1574,3.1852,3.2118,3.2366,3.2813,2.5567,2.5484,2.604,2.622,2.6174,2.6522,2.6708,2.6708,2.6708,2.6708,2.6708,2.6708,2.6708,2.6708,2.6708,2.6708,2.6708,2.6708,2.6708,2.6708,2.6708,2.6708,2.6691,2.6673,2.6516,2.594,2.6277,2.6233,2.6145,2.614,2.6429,2.6577,2.596,2.5583,2.5401,2.4979,2.4759,2.4814,2.4832,2.4795,2.4685,2.4593,2.4438,2.4199,2.4199,2.4199,2.4199,2.4199,2.4199,2.4227,2.4468,2.4486,2.4393,2.4478,2.4623,2.4821,2.4993,2.5233,2.5554,2.6063,2.6563,2.6774,2.7582,2.8011,2.8184,2.864,2.9102,2.9467,2.9808,3.0206,3.0404,3.0404,3.0404,3.0404,3.0404,3.0404,3.0408,3.0442,3.0467,3.0455,3.051,3.0557,3.0591,3.0616,3.0743,3.0872,3.0892,3.0937,3.0996,3.0976,3.0996,3.1133,3.1211,3.1738,3.1836,3.1621,3.1523,3.1562,3.1426,3.125,3.1289,3.1601,3.168,3.1094,3.0996,3.1113,3.1387,3.168,3.1914,3.2109,3.2363,3.2635,3.2986,3.3356,3.3842,2.7214,2.6503,2.7194,2.7162,2.664,2.6674,2.6708,2.6708,2.6708,2.6708,2.6742,2.6725,2.6759,2.6793,2.6708,2.6725,2.6826,2.6759,2.6708,2.6708,2.6708,2.6708,2.6741,2.6939,2.6979,2.7163,2.7317,2.7388,2.7388,2.7532,2.744,2.7398,2.6796,2.641,2.6374,2.6227,2.597,2.5878,2.5933,2.5952,2.586,2.5474,2.4942,2.452,2.4483,2.4428,2.4337,2.4263,2.4199,2.4273,2.4881,2.5004,2.492,2.4936,2.5033,2.513,2.5328,2.5724,2.6244,2.6537,2.7044,2.7645,2.8453,2.8857,2.9088,2.9544,2.9865,3.0058,3.0212,3.0404,3.0404,3.0404,3.0404,3.0404,3.0404,3.0404,3.039,3.0414,3.0422,3.0408,3.0439,3.0563,3.0728,3.0787,3.0808,3.1033,3.1228,3.1355,3.1465,3.1328,3.1191,3.1387,3.1601,3.2305,3.2949,3.2656,3.248,3.2656,3.2519,3.207,3.2207,3.2617,3.2539,3.2051,3.1836,3.1953,3.2207,3.2441,3.2773,3.3047,3.3262,3.3437,3.3954,3.4422,3.4657,2.8337,2.791,2.7858,2.7604,2.7232,2.6843,2.6708,2.6708,2.6708,2.6928,2.7199,2.73,2.752,2.7808,2.7893,2.7689,2.7266,2.681,2.6725,2.6708,2.6708,2.6708,2.6725,2.6939,2.6971,2.7129,2.756,2.8006,2.8134,2.8097,2.8207,2.8205,2.7622,2.7236,2.709,2.6759,2.6693,2.6638,2.6657,2.6638,2.662,2.6172,2.5768,2.5566,2.5391,2.5438,2.5456,2.5438,2.5456,2.556,2.5917,2.594,2.5871,2.5999,2.6227,2.6333,2.6413,2.6613,2.7192,2.7533,2.8145,2.8511,2.928,2.9717,2.9833,3.0115,3.0385,3.0404,3.0404,3.0404,3.0404,3.0404,3.0404,3.0404,3.0404,3.0404,3.0404,3.0404,3.0404,3.0404,3.0471,3.0717,3.1182,3.1163,3.0998,3.1167,3.1538,3.1787,3.2017,3.1927,3.1816,3.2148,3.2461,3.2832,3.3594,3.3672,3.3457,3.3613,3.3652,3.3203,3.3105,3.3516,3.3496,3.3164,3.3047,3.3008,3.2891,3.3066,3.3516,3.3965,3.4101,3.4355,3.498,3.5444,3.5521,2.9281,2.8959,2.8449,2.8179,2.7959,2.7418,2.7182,2.7165,2.7233,2.7537,2.7976,2.806,2.8383,2.884,2.8857,2.8535,2.779,2.7131,2.6928,2.6708,2.6708,2.6708,2.6708,2.6808,2.6906,2.7083,2.7675,2.8071,2.8237,2.8424,2.87,2.8679,2.8264,2.8044,2.7897,2.7585,2.7134,2.7079,2.7079,2.7042,2.6877,2.6833,2.6722,2.662,2.6602,2.6521,2.6429,2.641,2.641,2.6526,2.6765,2.691,2.6763,2.7252,2.7784,2.801,2.7801,2.7708,2.8083,2.8482,2.8973,2.9371,2.9987,3.0288,3.0346,3.0327,3.0404,3.0404,3.0404,3.0404,3.0404,3.0404,3.0519,3.0654,3.0577,3.0462,3.0615,3.0615,3.0404,3.0442,3.0519,3.0979,3.1567,3.1981,3.1898,3.207,3.2419,3.2649,3.2846,3.2859,3.2871,3.3223,3.3476,3.3555,3.4062,3.4668,3.4531,3.4512,3.459,3.4394,3.4316,3.4414,3.4297,3.4277,3.4277,3.4219,3.3965,3.3867,3.4473,3.4883,3.4941,3.5156,3.5547,3.5723,3.5792,3.0194,2.9061,2.9583,2.9465,2.8873,2.8688,2.8688,2.8637,2.8587,2.8756,2.8874,2.8874,2.8924,2.9111,2.9077,2.8569,2.8027,2.7739,2.7435,2.7063,2.6962,2.6962,2.6843,2.7099,2.7252,2.7345,2.794,2.8112,2.8237,2.862,2.8887,2.8913,2.8877,2.8803,2.8638,2.8455,2.873,2.8675,2.8638,2.8308,2.7787,2.7658,2.7328,2.6943,2.6767,2.6822,2.6914,2.6932,2.6859,2.6851,2.7379,2.7305,2.7033,2.8277,2.8814,2.8668,2.8231,2.7937,2.8738,2.91,2.9481,2.9936,3.0327,3.0385,3.0404,3.0404,3.0404,3.0404,3.0481,3.0635,3.0712,3.0538,3.0827,3.1038,3.1096,3.1154,3.1269,3.1288,3.1038,3.1096,3.1385,3.1698,3.214,3.2543,3.2887,3.3086,3.3296,3.3541,3.3722,3.3799,3.391,3.4258,3.4414,3.4512,3.4629,3.5215,3.5293,3.5293,3.5312,3.5351,3.5254,3.5195,3.5488,3.5469,3.541,3.5176,3.4785,3.4902,3.5508,3.5644,3.5508,3.5644,3.5898,3.5996,3.5976,3.0818,3.0245,3.0159,2.9939,2.9583,2.9178,2.8993,2.8993,2.8993,2.9247,2.9567,2.9634,2.982,3.0059,2.9854,2.9465,2.9041,2.8652,2.8332,2.8029,2.7927,2.7961,2.7944,2.776,2.7637,2.7981,2.8038,2.8156,2.8326,2.8718,2.8987,2.8987,2.8987,2.895,2.8987,2.8987,2.8968,2.895,2.8932,2.8822,2.8565,2.8466,2.8319,2.7959,2.7904,2.7868,2.7868,2.7959,2.7959,2.7996,2.8374,2.8338,2.8184,2.8695,2.9093,2.9027,2.8914,2.9065,2.9511,2.9596,2.9909,3.02,3.0404,3.0404,3.0404,3.0404,3.0404,3.0404,3.1308,3.1718,3.1781,3.1801,3.2006,3.2102,3.1872,3.2025,3.216,3.2058,3.2,3.2122,3.2275,3.266,3.3006,3.3365,3.3859,3.423,3.4392,3.4549,3.4766,3.4931,3.5064,3.5273,3.5371,3.541,3.5508,3.5801,3.5703,3.5703,3.5703,3.5762,3.584,3.5937,3.6016,3.6016,3.5801,3.5586,3.5449,3.5566,3.582,3.5918,3.5996,3.6016,3.6016,3.6016,3.5996,3.119,3.1123,3.0615,3.0378,3.0345,2.9753,2.9585,2.9568,2.9602,2.989,3.0243,3.0395,3.07,3.0987,3.0598,3.0226,3.0006,2.9499,2.9253,2.9188,2.9157,2.9161,2.9076,2.8749,2.8658,2.8868,2.9,2.902,2.9204,2.9411,2.9574,2.9042,2.8987,2.8987,2.8987,2.8987,2.8987,2.8987,2.8987,2.8968,2.8932,2.8932,2.8932,2.8932,2.8987,2.8987,2.8987,2.8932,2.8913,2.8895,2.8877,2.884,2.887,2.9001,2.9181,2.9228,2.9317,2.9596,2.9877,3.0015,3.0183,3.0317,3.0404,3.0404,3.0404,3.0404,3.0392,3.0405,3.1846,3.2788,3.3346,3.3198,3.2936,3.2929,3.291,3.3045,3.3103,3.2872,3.2814,3.2942,3.3218,3.3808,3.4141,3.4372,3.4776,3.5276,3.5502,3.5515,3.5554,3.5579,3.5642,3.5676,3.5723,3.5762,3.5879,3.5996,3.6016,3.6016,3.6016,3.6016,3.6016,3.6016,3.6016,3.6016,3.6016,3.5937,3.5723,3.5879,3.6016,3.6016,3.6016,3.6016,3.6016,3.6016,3.6016,3.119,3.119,3.1123,3.1089,3.1072,3.1072,3.1004,3.0835,3.0937,3.0937,3.0987,3.1089,3.1072,3.1159,3.1038,3.0683,3.0142,3.0038,2.9888,2.9713,2.9607,2.9916,3.0012,3.0087,3.0066,3.0204,3.013,3.0336,3.0695,3.0642,3.0149,2.9225,2.928,2.9097,2.8987,2.8987,2.8987,2.8987,2.8987,2.8987,2.8987,2.8987,2.8987,2.8987,2.8987,2.8987,2.8987,2.8987,2.8987,2.8987,2.8987,2.8987,2.9021,2.9138,2.9246,2.9334,2.9504,2.9786,3.0095,3.0232,3.0343,3.0392,3.0404,3.0462,3.0615,3.0442,3.0386,3.0816,3.2455,3.3718,3.418,3.4135,3.3763,3.3795,3.3891,3.3853,3.3795,3.3506,3.3487,3.3692,3.4077,3.4577,3.4827,3.4968,3.5007,3.5423,3.5488,3.5496,3.5532,3.5582,3.5683,3.5764,3.5804,3.5859,3.5937,3.5996,3.6016,3.6016,3.6016,3.6016,3.6016,3.6016,3.6016,3.6016,3.6016,3.6016,3.6016,3.6016,3.6016,3.6016,3.6016,3.6016,3.6016,3.6016,3.6016,3.119,3.119,3.119,3.119,3.119,3.119,3.119,3.119,3.119,3.119,3.119,3.119,3.119,3.119,3.119,3.1072,3.0784,3.0784,3.0668,3.0717,3.0816,3.1046,3.1163,3.1119,3.1077,3.1249,3.1167,3.1048,3.1177,3.1517,3.1176,3.0503,3.0032,2.9409,2.9189,2.9023,2.8987,2.8987,2.8987,2.8987,2.8987,2.8987,2.8987,2.8987,2.8987,2.8987,2.8987,2.8987,2.8987,2.9023,2.9042,2.906,2.909,2.9219,2.9314,2.9418,2.9594,3.001,3.0425,3.044,3.0228,3.0392,3.0423,3.0635,3.1077,3.0788,3.1154,3.2013,3.3378,3.4751,3.4969,3.4911,3.4731,3.4827,3.4795,3.4661,3.4507,3.4237,3.4237,3.4481,3.4769,3.5154,3.5308,3.5423,3.5423,3.55,3.5488,3.5508,3.5534,3.555,3.5645,3.5722,3.5756,3.5831,3.5896,3.5957,3.5996,3.6016,3.5996,3.6016,3.6016,3.6016,3.6016,3.6016,3.6016,3.6016,3.6016,3.6016,3.6016,3.6016,3.6016,3.6016,3.6016,3.6016,3.6016,3.119,3.119,3.119,3.119,3.119,3.119,3.119,3.119,3.119,3.119,3.119,3.119,3.119,3.119,3.119,3.119,3.1123,3.1142,3.124,3.1423,3.1704,3.2039,3.2139,3.2232,3.2332,3.2371,3.2137,3.2009,3.2227,3.2118,3.1935,3.1641,3.1164,3.0454,2.95,2.9115,2.9005,2.8987,2.8987,2.8987,2.8987,2.8987,2.8987,2.8987,2.8987,2.9225,2.9354,2.9482,2.9445,2.9445,2.9427,2.939,2.9407,2.9471,2.9591,2.9802,3.0105,3.0573,3.0968,3.1169,3.0942,3.1334,3.1308,3.1602,3.1698,3.1481,3.1942,3.2667,3.4308,3.5494,3.5495,3.5302,3.5231,3.5231,3.525,3.5154,3.5173,3.5038,3.5135,3.5288,3.5442,3.5404,3.5442,3.55,3.55,3.55,3.5488,3.5488,3.5508,3.5522,3.5564,3.5611,3.5648,3.5735,3.5801,3.5898,3.5976,3.5957,3.5976,3.6016,3.6016,3.6016,3.6016,3.6016,3.6016,3.6016,3.6016,3.6016,3.6016,3.6016,3.6016,3.6016,3.6016,3.6016,3.6016,3.119,3.119,3.119,3.119,3.119,3.119,3.119,3.119,3.119,3.119,3.119,3.119,3.119,3.119,3.119,3.119,3.119,3.121,3.1332,3.1658,3.2109,3.2632,3.2993,3.3201,3.3291,3.368,3.3405,3.3245,3.3513,3.333,3.3073,3.2687,3.2197,3.1518,3.0228,2.9427,2.906,2.9042,2.917,2.9244,2.9317,2.9354,2.9372,2.939,2.9409,2.9739,3.0063,3.0191,3.0173,3.0173,3.0191,3.0191,3.0185,3.0364,3.0713,3.1296,3.1597,3.1871,3.2072,3.2535,3.2672,3.2474,3.2275,3.2583,3.2776,3.2756,3.2827,3.3532,3.4628,3.5385,3.5488,3.55,3.55,3.55,3.55,3.55,3.55,3.55,3.55,3.55,3.55,3.5481,3.5481,3.55,3.55,3.55,3.55,3.55,3.55,3.5501,3.5534,3.554,3.5579,3.563,3.5739,3.5872,3.5957,3.5925,3.5937,3.5996,3.6016,3.6016,3.6016,3.6016,3.6016,3.6016,3.6016,3.6016,3.6016,3.6016,3.6016,3.6016,3.6016,3.6016,3.6016,3.119,3.119,3.119,3.119,3.119,3.119,3.119,3.119,3.119,3.119,3.119,3.119,3.119,3.119,3.119,3.119,3.119,3.119,3.1351,3.1468,3.2144,3.2484,3.2919,3.3419,3.3793,3.3807,3.3807,3.3807,3.3733,3.3807,3.3733,3.3385,3.2839,3.2032,3.1219,3.0668,3.0613,3.0613,3.0613,3.0613,3.0577,3.0522,3.0503,3.0467,3.0448,3.0632,3.0944,3.0999,3.0999,3.0999,3.0999,3.1011,3.0999,3.1131,3.1297,3.1573,3.1707,3.2093,3.2881,3.3595,3.3772,3.3351,3.3083,3.3333,3.3622,3.316,3.3558,3.4282,3.4955,3.55,3.55,3.55,3.55,3.55,3.55,3.55,3.55,3.55,3.55,3.55,3.55,3.55,3.55,3.55,3.55,3.55,3.55,3.55,3.55,3.55,3.5508,3.5515,3.5521,3.5571,3.5644,3.5749,3.5864,3.5887,3.5937,3.5996,3.6016,3.6016,3.6016,3.6016,3.6016,3.6016,3.6016,3.6016,3.6016,3.6016,3.6016,3.6016,3.6016,3.6016,3.6016,3.119,3.119,3.119,3.119,3.119,3.119,3.119,3.119,3.119,3.119,3.119,3.119,3.119,3.119,3.119,3.119,3.119,3.119,3.119,3.1329,3.2092,3.2434,3.2793,3.3314,3.3753,3.3807,3.3807,3.3807,3.3807,3.3807,3.377,3.3623,3.3275,3.2871,3.221,3.1806,3.1274,3.1219,3.1182,3.1219,3.1256,3.1292,3.1311,3.1292,3.1329,3.147,3.1727,3.1806,3.1806,3.1806,3.1837,3.1819,3.1806,3.1825,3.1966,3.2113,3.2329,3.2808,3.3639,3.4292,3.4289,3.3925,3.3742,3.4077,3.4487,3.4237,3.4519,3.5077,3.5442,3.55,3.55,3.55,3.55,3.55,3.55,3.55,3.55,3.55,3.55,3.55,3.55,3.55,3.55,3.55,3.55,3.55,3.55,3.55,3.55,3.55,3.55,3.5488,3.5488,3.5534,3.5562,3.5595,3.5702,3.5805,3.5898,3.5976,3.6016,3.6016,3.6016,3.6016,3.6016,3.6016,3.6016,3.6016,3.6035,3.6035,3.6016,3.6016,3.6016,3.6074,3.6133,3.119,3.119,3.119,3.119,3.119,3.119,3.119,3.119,3.119,3.119,3.119,3.119,3.119,3.119,3.119,3.119,3.119,3.119,3.119,3.1447,3.2092,3.235,3.2793,3.3361,3.3721,3.3807,3.3807,3.3807,3.3807,3.3807,3.3807,3.3807,3.3678,3.3476,3.3036,3.2504,3.1916,3.1935,3.1953,3.199,3.2021,3.1819,3.1911,3.1929,3.1935,3.2192,3.2449,3.2632,3.2632,3.2632,3.2651,3.2619,3.2619,3.2651,3.3146,3.3495,3.3623,3.3802,3.4086,3.4545,3.4823,3.4688,3.5069,3.5376,3.5327,3.5103,3.5212,3.5308,3.55,3.55,3.55,3.55,3.55,3.55,3.55,3.55,3.55,3.55,3.55,3.55,3.55,3.55,3.55,3.55,3.5596,3.55,3.55,3.55,3.55,3.55,3.55,3.55,3.5488,3.5481,3.5522,3.5544,3.5605,3.5735,3.5825,3.5898,3.5957,3.6035,3.6016,3.6016,3.6016,3.6016,3.6016,3.6035,3.6094,3.6113,3.6348,3.6367,3.6484,3.6387,3.6387,3.119,3.119,3.119,3.119,3.119,3.119,3.119,3.119,3.119,3.119,3.119,3.119,3.119,3.119,3.119,3.119,3.119,3.119,3.119,3.1543,3.2092,3.2367,3.2809,3.3346,3.3707,3.3807,3.3807,3.3807,3.3807,3.3807,3.3807,3.3807,3.3807,3.3807,3.3642,3.3311,3.3073,3.2926,3.2889,3.2889,3.2939,3.2902,3.2921,3.2889,3.2889,3.3128,3.3256,3.3366,3.3366,3.3403,3.344,3.3458,3.3458,3.3458,3.3678,3.3733,3.3797,3.3891,3.4195,3.4518,3.4822,3.5088,3.5354,3.546,3.5481,3.55,3.55,3.55,3.55,3.55,3.55,3.55,3.55,3.55,3.55,3.55,3.55,3.55,3.55,3.55,3.55,3.5654,3.5635,3.5712,3.5788,3.5596,3.5577,3.5718,3.5577,3.5596,3.55,3.55,3.55,3.55,3.5515,3.555,3.5585,3.5644,3.5876,3.6085,3.623,3.6269,3.6094,3.6172,3.6426,3.6269,3.6016,3.6191,3.6641,3.6816,3.7031,3.6973,3.6953,3.6973,3.709,3.119,3.119,3.119,3.119,3.119,3.119,3.119,3.119,3.119,3.119,3.119,3.119,3.119,3.119,3.119,3.119,3.119,3.119,3.119,3.1408,3.2109,3.2367,3.2809,3.3346,3.3739,3.3807,3.3807,3.3807,3.3807,3.3807,3.3807,3.3807,3.3807,3.3807,3.3752,3.3697,3.3733,3.3697,3.3733,3.3807,3.3807,3.3807,3.3807,3.3807,3.3807,3.3807,3.3807,3.3807,3.3807,3.3807,3.3807,3.3807,3.3788,3.3788,3.3788,3.3807,3.382,3.3954,3.4195,3.4518,3.4803,3.5088,3.5354,3.546,3.55,3.55,3.55,3.55,3.55,3.55,3.55,3.55,3.55,3.55,3.55,3.55,3.55,3.55,3.55,3.55,3.5635,3.5846,3.5942,3.6038,3.6051,3.5948,3.6358,3.7033,3.6526,3.5904,3.5673,3.55,3.55,3.5488,3.5599,3.5816,3.5946,3.6142,3.6444,3.6628,3.6657,3.6875,3.7051,3.7051,3.7012,3.6934,3.6953,3.7109,3.7441,3.7637,3.7891,3.8047,3.8047,3.7988,3.8144,3.119,3.119,3.119,3.119,3.119,3.119,3.123,3.1249,3.1291,3.1213,3.121,3.119,3.119,3.121,3.1271,3.1329,3.1389,3.143,3.1543,3.1351,3.2248,3.2648,3.2887,3.3343,3.3734,3.3807,3.3807,3.3807,3.3807,3.3807,3.3807,3.3807,3.3807,3.3807,3.3807,3.3807,3.3807,3.3807,3.3807,3.3807,3.3807,3.3807,3.3807,3.3807,3.3807,3.3807,3.3807,3.3807,3.3807,3.3807,3.3807,3.3807,3.3807,3.3881,3.3868,3.3934,3.3967,3.4123,3.4334,3.4624,3.4851,3.5105,3.5346,3.5453,3.55,3.55,3.55,3.55,3.55,3.55,3.55,3.55,3.55,3.55,3.55,3.55,3.55,3.55,3.55,3.5615,3.6,3.6224,3.6666,3.6827,3.718,3.6748,3.6966,3.7938,3.7688,3.6719,3.6365,3.6038,3.6154,3.6288,3.6264,3.6453,3.6492,3.6708,3.7058,3.7357,3.7525,3.7819,3.8144,3.8027,3.791,3.8125,3.8242,3.8164,3.8184,3.8574,3.8848,3.916,3.9199,3.9101,3.9258,3.119,3.119,3.119,3.119,3.119,3.119,3.1372,3.1641,3.166,3.1488,3.1232,3.123,3.1249,3.1329,3.1582,3.1677,3.1696,3.1896,3.2144,3.2248,3.2729,3.2921,3.3093,3.349,3.378,3.3807,3.3807,3.3807,3.3807,3.3807,3.3807,3.3807,3.3807,3.3807,3.3807,3.3807,3.3807,3.3807,3.3807,3.3807,3.3807,3.3807,3.3807,3.3807,3.3807,3.3807,3.3807,3.3807,3.3807,3.3807,3.3807,3.3807,3.3807,3.3986,3.4093,3.4141,3.4237,3.4353,3.4569,3.4764,3.4972,3.513,3.532,3.5439,3.55,3.55,3.55,3.55,3.5596,3.5615,3.5596,3.5596,3.5654,3.5635,3.5635,3.5635,3.5635,3.5596,3.5596,3.5846,3.6269,3.6885,3.7377,3.7731,3.8111,3.8245,3.8265,3.8599,3.8541,3.7957,3.7796,3.7526,3.743,3.745,3.7231,3.7149,3.721,3.745,3.7809,3.8103,3.839,3.8692,3.8984,3.8887,3.8848,3.9082,3.9043,3.8633,3.8769,3.9355,3.9668,3.9922,4.0293,4.0332,4.0488,3.119,3.119,3.119,3.119,3.123,3.1372,3.1603,3.1807,3.2004,3.1986,3.1805,3.1769,3.1769,3.1786,3.2021,3.2109,3.2161,3.235,3.2384,3.2599,3.2968,3.3124,3.3361,3.3606,3.3753,3.3807,3.3807,3.3807,3.3807,3.3807,3.3807,3.3807,3.3807,3.3807,3.3807,3.3807,3.3807,3.3807,3.3825,3.3862,3.3844,3.3825,3.3807,3.3807,3.3807,3.3807,3.3807,3.3807,3.3807,3.3807,3.3807,3.3807,3.3834,3.3902,3.3999,3.4018,3.4141,3.4428,3.4663,3.487,3.507,3.5231,3.5388,3.5519,3.55,3.55,3.55,3.5596,3.6699,3.6873,3.6538,3.6462,3.6769,3.6904,3.6911,3.693,3.6769,3.6635,3.6154,3.5615,3.6635,3.8257,3.8604,3.8661,3.9034,3.9477,3.9561,3.9484,3.9323,3.9092,3.8977,3.8815,3.8584,3.818,3.7738,3.7777,3.7964,3.8238,3.8607,3.9043,3.9427,3.962,3.9785,3.9805,3.9863,4.0,3.9844,3.9512,3.9726,4.0351,4.0527,4.0625,4.0976,4.1191,4.1094,3.1213,3.1271,3.1291,3.1329,3.1408,3.1733,3.1933,3.2074,3.2434,3.2614,3.2681,3.2665,3.2632,3.2517,3.2583,3.2583,3.2665,3.284,3.2777,3.2872,3.3151,3.3332,3.348,3.3638,3.3766,3.3807,3.3807,3.3807,3.3807,3.3807,3.3807,3.3807,3.3807,3.3807,3.3807,3.3807,3.3807,3.388,3.3935,3.4027,3.3954,3.3844,3.3825,3.3807,3.3807,3.3807,3.3807,3.3807,3.3807,3.3807,3.3807,3.3807,3.3873,3.3902,3.3863,3.391,3.4099,3.4386,3.4674,3.4822,3.5105,3.5346,3.5504,3.5654,3.5692,3.5615,3.5615,3.6269,3.7353,3.7815,3.7488,3.7373,3.7719,3.7911,3.793,3.793,3.7738,3.7596,3.6865,3.6058,3.7488,3.9304,3.9573,3.9611,3.9881,4.0342,4.0496,4.0496,4.0362,4.0035,3.9804,3.9611,3.9373,3.8892,3.8507,3.8565,3.8873,3.9119,3.9518,4.0015,4.0385,4.0343,4.0487,4.084,4.0918,4.0742,4.0801,4.0644,4.0996,4.1074,4.1016,4.0937,4.1016,4.1191,4.1191,3.1372,3.1678,3.1678,3.1896,3.2196,3.2333,3.2583,3.2903,3.3014,3.3243,3.3419,3.3462,3.3225,3.2534,3.2919,3.306,3.3105,3.327,3.349,3.362,3.355,3.3638,3.3845,3.4128,3.3885,3.3972,3.4082,3.388,3.4284,3.41,3.388,3.3972,3.3935,3.3917,3.388,3.3935,3.4082,3.4229,3.4546,3.4784,3.4578,3.4357,3.3862,3.3807,3.3807,3.3807,3.3807,3.3807,3.3807,3.3807,3.3807,3.3807,3.3855,3.3928,3.391,3.3902,3.4062,3.4431,3.4685,3.4984,3.5293,3.5618,3.5914,3.6481,3.6365,3.6058,3.6308,3.6885,3.7777,3.8303,3.8161,3.8065,3.8257,3.8257,3.8277,3.8277,3.818,3.8334,3.818,3.818,3.8873,3.9842,4.0169,4.0189,4.0189,4.0496,4.0496,4.0496,4.0496,4.0496,4.0496,4.0265,4.0008,4.0189,4.0027,3.9738,3.99,4.0131,4.0207,4.0359,4.0539,4.0799,4.1012,4.1155,4.1191,4.1055,4.1191,4.1191,4.1191,4.1152,4.1172,4.1152,4.1191,4.1191,4.1191]}]]